GFSMA_prec_radar_000.txt.gz
Reflectivity
-20 -20 -17 6 -14 -20 -20 -20 -20 -20 -20 -20 -20 -20 -20 -20 -20 -20 -20 -20 -20 -20 -20 -20 -20 -20 -20 -20 -20 -20 -20 -20 -20 -20 -20 -20 -20 -20 -20 -20 -20 -6 -2
-12 -20 6 -20 -20 -20 -20 -20 -20 -20 -20 -20 -20 -20 -20 -20 -20 -20 -20 -20 -20 -20 -20 -20 -20 -20 -20 -20 -20 -20 -20 -20 -20 -20 -20 -20 -20 -20 -20 -20 -20 -20 -20
12 -19 -20 -20 -20 -20 -20 -20 -20 -20 -20 -20 -20 -20 -20 -20 -20 -20 -20 -20 -20 -20 -20 -20 -20 -20 -20 -20 -20 -20 -20 -20 -20 -20 -20 -20 -20 -20 -20 -20 -20 -20 -20
-4 5 -20 -20 -20 -20 -20 -20 -20 -20 -20 -20 -20 -20 -20 -20 -20 -20 -20 -20 -20 -20 -20 -20 -20 -20 -20 -20 -20 -20 -20 -20 -20 -20 -20 -20 -20 -20 -20 -20 -20 -20 -20
-20 -20 -20 -20 -20 -20 -20 -20 -20 -20 -20 -20 -20 -20 -20 -20 -20 -20 -20 -20 -20 -20 -20 -20 -20 -20 -20 -20 -20 -20 -20 -20 -20 -20 -20 -20 -20 -20 -20 -20 -20 -20 -20
-20 -20 -20 -20 -20 -20 -20 -20 -20 -20 -20 -20 -20 -20 -20 -20 -20 -20 -20 -20 -20 -20 -20 -20 -20 -20 -20 -20 -20 -20 -20 -20 -20 -20 -20 -20 -20 -20 -20 -20 -20 -20 -20
-20 -20 -20 -20 -20 -20 -20 -20 -20 -20 -20 -20 -20 -20 -20 -20 -20 -20 -20 -20 -20 -20 -20 -20 -20 -20 -20 -20 -20 -20 -20 -20 -20 -20 -20 -20 -20 -20 -20 -20 -20 -20 -20
-20 -20 -20 -20 -20 -20 -20 -20 -20 -20 -20 -20 -20 -20 -20 -20 -20 -20 -20 -20 -20 -20 -20 -20 -20 -20 -20 -20 -20 -20 -20 -20 -20 -20 -20 -20 -20 -20 -20 -20 -20 -20 -20
-20 -20 -20 -20 -20 -20 -20 -20 -20 -20 -20 -20 -20 -20 -20 -20 -20 -20 -20 -20 -20 -20 -20 -20 -20 -20 -20 -20 -20 -20 -20 -20 -20 -20 -20 -20 -20 -20 -20 -20 -20 -20 -20
-20 -20 -20 -20 -20 -20 -20 -20 -20 -20 -20 -20 -20 -20 -20 -20 -20 -20 -20 -20 -20 -20 -20 -20 -20 -20 -20 -20 -20 -20 -20 -20 -20 -20 -20 -20 -3 -20 -20 -20 -4 -9 -19
-20 -20 -20 -20 -20 -20 -20 -20 -20 -20 -20 -20 -20 -20 -20 -20 -20 -20 -20 -20 -20 -20 -20 -20 -20 -20 -20 -20 -20 -20 -20 -20 -20 -20 -20 -1 -8 -20 -19 -20 -20 -20 -17
-20 -20 -20 -20 -20 -20 -20 -20 -20 -20 -20 -20 -20 -20 -20 -20 -20 -20 -20 -20 -20 -20 -20 -20 -20 -20 -20 -20 -20 -20 -20 -20 -20 -20 -9 -7 -7 -20 -9 -12 -20 -15 -19
-20 -20 -20 -20 -20 -20 -20 -20 -20 -20 -20 -20 -20 -20 -20 -20 -20 -20 -20 -20 -20 -20 -20 -20 -20 -20 -20 -20 -20 -20 -20 -20 -20 -20 -14 -11 -17 -7 -20 -20 -15 -20 -20
-20 -20 -20 -20 -20 -20 -20 -20 -20 -20 -20 -20 -20 -20 -20 -20 -20 -20 -20 -20 -20 -20 -20 -20 -20 -20 -20 -20 -20 -20 -20 -20 -20 -20 -20 -20 -20 2 -17 -20 -13 -3 -19
-20 -20 -20 -20 -20 -20 -20 -20 -20 -20 -20 -20 -20 -20 -20 -20 -20 -20 -20 -20 -20 -20 -20 -20 -20 -20 -20 -20 -20 -20 -20 -20 -20 -20 -20 -1 -18 -20 -20 -20 -20 -20 -20
-20 -20 -20 -20 -20 -20 -20 -20 -20 -20 -20 -20 -20 -20 -20 -20 -20 -20 -20 -20 -20 -20 -20 -20 -20 -20 -20 -20 -20 -20 -20 -20 -20 -20 10 -13 -20 -20 -20 -20 -20 -14 -11
-20 -20 -20 -20 -20 -20 -20 -20 -20 -20 -20 -20 -20 -20 -20 -20 -20 -20 -20 -20 -20 -20 -20 -20 -20 -20 -20 -20 -20 -20 -20 -20 -15 0 -18 -20 -20 -20 -20 -19 -0 5 12
-20 -20 -20 -20 -20 -20 -20 -20 -20 -20 -20 -20 -20 -20 -20 -20 -20 -20 -20 -20 -20 -20 -10 -20 -20 -20 -20 -20 -20 -20 -20 -20 -19 -20 -20 -20 5 -19 -12 11 21 17 17
-20 -20 -20 -20 -20 -20 -20 -20 -20 -20 -20 -20 -20 -20 -20 -20 -20 -20 -20 -20 -20 -20 0 -1 -20 -20 -20 -20 -20 -20 -20 -20 -20 -20 -20 -20 -20 -16 5 5 5 8 3
-20 -20 -20 -20 -20 -20 -20 -20 -20 -20 -20 -20 -20 -20 -20 -20 -20 -20 -20 -20 -20 -20 -20 -20 -20 -17 -4 -20 -20 -20 -20 -20 -20 -20 -20 -1 -6 -20 -20 -20 -20 -20 -20
-20 -20 -20 -20 -20 -20 -20 -20 -20 -20 -20 -20 -20 -20 -20 -20 -20 -20 -20 -20 -20 -20 -15 12 16 -4 -20 -20 -20 -20 -20 -20 -20 -15 -20 -20 -20 -20 -20 -20 -20 -20 -7
-20 -20 -20 -20 -20 -20 -20 -20 -20 -20 -20 -20 -20 -20 -20 -20 -20 -20 -20 -20 2 22 -12 -20 -20 -20 -20 -20 -20 -20 4 -20 -20 -12 -20 -19 -15 -20 -20 -20 -20 -2 6
-20 -20 -20 -20 -20 -20 -20 -20 -20 -20 -20 -20 -20 -20 -20 -20 -20 -20 -20 -15 19 -20 -20 -20 -20 -20 -20 -20 3 -8 -20 3 -20 -20 -19 -18 -20 -20 -20 -20 -20 -20 0
-20 -20 -20 -20 -20 -20 -20 -20 -20 -20 -20 -20 -20 -20 -20 -20 -20 1 4 0 -20 -20 -20 -20 -20 -9 5 -14 -20 -17 -20 -6 -20 -20 -20 -5 -20 -20 -20 -20 -20 -20 0
-20 -20 -20 -20 -20 -20 -20 -20 -20 -20 -20 -20 -20 -20 -20 -4 -1 11 9 -19 -20 -20 -20 -20 11 -7 -20 -20 -15 4 -11 -20 -20 -20 -20 -20 -20 -20 -20 -20 -20 -19 -16
-20 -20 -20 -20 -20 -20 -20 -20 -20 -20 -20 -20 -20 -20 -20 4 7 15 3 -20 -20 -20 2 -18 -20 -20 -20 -20 -20 -20 -20 7 -18 -15 -20 2 -17 -16 8 -3 -20 -20 -20

GFSMA_prec_radar_003.txt.gz
Reflectivity
-20 -20 -20 -20 -20 -20 -20 -20 -20 -20 -20 -20 -20 -20 -20 -20 -20 -20 -20 -20 -20 -20 -20 -20 -20 -20 -20 -20 -20 -7 -20 -20 -20 -20 -20 -20 -20 -20 -20 -20 -20 -20 -8
-11 1 11 -8 -20 -20 -20 -20 -20 -20 -20 -20 -20 -20 -20 -20 -20 -20 -20 -20 -20 -20 -20 -20 -20 -20 -20 -20 -20 -20 -20 -20 -20 -20 -20 -20 -20 -20 -20 -20 -20 -20 -20
9 2 -20 -20 -20 -20 -20 -20 -20 -20 -20 -20 -20 -20 -20 -20 -20 -20 -20 -20 -20 -20 -20 -20 -20 -20 -20 -20 -20 -20 -20 -20 -20 -20 -20 -20 -20 -20 -20 -20 -20 -20 -20
-3 -5 -20 -20 -20 -20 -20 -20 -20 -20 -20 -20 -20 -20 -20 -20 -20 -20 -20 -20 -20 -20 -20 -20 -20 -20 -20 -20 -20 -20 -20 -20 -20 -20 -20 -20 -20 -20 -20 -20 -20 -20 -20
-19 -20 -20 -20 -20 -20 -20 -20 -20 -20 -20 -20 -20 -20 -20 -20 -20 -20 -20 -20 -20 -20 -20 -20 -20 -20 -20 -20 -20 -20 -20 -20 -20 -20 -20 -20 -20 -20 -20 -20 -20 -20 -20
-20 -20 -20 -20 -20 -20 -20 -20 -20 -20 -20 -20 -20 -20 -20 -20 -20 -20 -20 -20 -20 -20 -20 -20 -20 -20 -20 -20 -20 -20 -20 -20 -20 -20 -20 -20 -20 -20 -20 -20 -20 -20 -20
-20 -20 -20 -20 -20 -20 -20 -20 -20 -20 -20 -20 -20 -20 -20 -20 -20 -20 -20 -20 -20 -20 -20 -20 -20 -20 -20 -20 -20 -20 -20 -20 -20 -20 -20 -20 -20 -20 -20 -20 -20 -20 -20
-20 -20 -20 -20 -20 -20 -20 -20 -20 -20 -20 -20 -20 -20 -20 -20 -20 -20 -20 -20 -20 -20 -20 -20 -20 -20 -20 -20 -20 -20 -20 -20 -20 -20 -20 -20 -20 -20 -20 -20 -20 -20 -20
-20 -20 -20 -20 -20 -20 -20 -20 -20 -20 -20 -20 -20 -20 -20 -20 -20 -20 -20 -20 -20 -20 -20 -20 -20 -20 -20 -20 -20 -20 -20 -20 -20 -20 -20 -20 -20 -20 -20 -20 -20 -20 -20
-20 -20 -20 -20 -20 -20 -20 -20 -20 -20 -20 -20 -20 -20 -20 -20 -20 -20 -20 -20 -20 -20 -20 -20 -20 -20 -20 -20 -20 -20 -20 -20 -20 -20 -20 -20 -20 -20 -20 -4 -6 -20 -5
-20 -20 -20 -20 -20 -20 -20 -20 -20 -20 -20 -20 -20 -20 -20 -20 -20 -20 -20 -20 -20 -20 -20 -20 -20 -20 -20 -20 -20 -20 -20 -20 -20 -20 -20 -20 -19 -20 -1 -20 -7 7 15
-20 -20 -20 -20 -20 -20 -20 -20 -20 -20 -20 -20 -20 -20 -20 -20 -20 -20 -20 -20 -20 -20 -20 -20 -20 -20 -20 -20 -20 -20 -20 -20 -20 -20 -17 -20 -11 14 15 7 11 13 9
-20 -20 -20 -20 -20 -20 -20 -20 -20 -20 -20 -20 -20 -20 -20 -20 -20 -20 -20 -20 -20 -20 -20 -20 -20 -20 -20 -20 -20 -20 -20 -20 -20 -20 -18 -20 -16 13 12 13 16 21 20
-20 -20 -20 -20 -20 -20 -20 -20 -20 -20 -20 -20 -20 -20 -20 -20 -20 -20 -20 -20 -20 -20 -20 -20 -20 -20 -20 -20 -20 -20 -20 -20 -20 -20 -20 -20 -20 -20 -19 20 8 10 11
-20 -20 -20 -20 -20 -20 -20 -20 -20 -20 -20 -20 -20 -20 -20 -20 -20 -20 -20 -20 -20 -20 -20 -20 -20 -20 -20 -20 -20 -20 -20 -20 -20 -20 -20 -20 -20 -20 15 15 1 3 2
-20 -20 -20 -20 -20 -20 -20 -20 -20 -20 -20 -20 -20 -20 -20 -20 -20 -20 -20 -20 -20 -20 -20 -20 -20 -20 -20 -20 -20 -20 -20 -20 -20 -20 -20 -19 1 -6 -19 -20 -18 7 11
-20 -20 -20 -20 -20 -20 -20 -20 -20 -20 -20 -20 -20 -20 -20 -20 -20 -20 -20 -20 -20 -20 -20 -20 -20 -20 -20 -20 -20 -20 -20 -20 -20 -20 -20 -20 -14 -13 -3 -15 17 18 -7
-20 -20 -20 -20 -20 -20 -20 -20 -20 -20 -20 -20 -20 -20 -20 -20 -20 -20 -20 -20 -20 -20 -20 -20 -20 -20 -20 -20 -20 7 8 -20 -20 -20 -20 -20 -20 -7 -15 6 4 18 19
-20 -20 -20 -20 -20 -20 -20 -20 -20 -20 -20 -20 -20 -20 -20 -20 -20 -20 -20 -20 -20 -20 -20 4 -20 -20 -17 8 7 -13 -20 -20 -20 -20 -20 -20 -20 -20 -20 -5 7 -6 2
-20 -20 -20 -20 -20 -20 -20 -20 -20 -20 -20 -20 -20 -20 -20 -20 -20 -20 -20 -20 -20 -17 -20 -20 -9 7 -5 -20 -20 -20 -20 -20 -20 -20 -20 -14 -20 -20 -20 -20 -20 -20 -20
-20 -20 -20 -20 -20 -20 -20 -20 -20 -20 -20 -20 -20 -20 -20 -20 -20 -20 -3 0 -5 4 10 16 8 -8 -20 -20 -20 -20 -9 -2 1 -3 -20 -20 -20 -20 -20 -20 -20 -20 -3
-20 -20 -20 -20 -20 -20 -20 -20 -20 -20 -20 -20 -20 -20 -20 -20 -20 -14 0 2 10 21 11 8 7 -7 -20 -20 -20 5 12 8 -20 -20 -20 -20 -20 -20 -20 -20 -20 -6 -0
-20 -20 -20 -20 -20 -20 -20 -20 -20 -20 -20 -20 -20 -20 -20 -20 -20 -20 -20 1 25 -20 -20 -20 -20 -20 -20 -20 10 10 8 8 6 -17 -19 -20 -20 -20 -20 -20 -20 -20 0
-20 -20 -20 -20 -20 -20 -20 -20 -20 -20 -20 -20 -20 -20 -20 -20 -20 5 7 16 -20 -20 -20 -20 -20 -7 12 2 1 3 6 10 -4 -20 -20 -20 -20 -20 -20 -20 -20 -20 -20
-20 -20 -20 -20 -20 -20 -20 -20 -20 -20 -20 -20 -20 -20 -20 -1 4 5 12 -20 -20 -20 -20 -20 9 -5 -20 -20 -17 4 4 -15 -20 -20 -20 -20 -20 -20 -20 -20 -20 -20 -4
-20 -20 -20 -20 -20 -20 -20 -20 -20 -20 -20 -20 -20 -20 -20 4 5 13 -10 -0 -20 -20 -3 6 -20 -20 -20 -20 -20 -20 -7 1 -20 -15 -20 -3 -18 -2 -0 -14 -4 -18 -20

GFSMA_prec_radar_006.txt.gz
Reflectivity
-13 -20 -20 -20 -20 -20 -20 -20 -20 -20 -20 -20 -20 -20 -20 -20 -20 -20 -20 -20 -20 -20 -20 -20 -20 -20 -20 -20 -20 -20 -20 -20 -20 -20 -20 -20 -20 -20 -20 -20 -20 -20 -20
-18 -20 -20 -20 -20 -20 -20 -20 -20 -20 -20 -20 -20 -20 -20 -20 -20 -20 -20 -20 -20 -20 -20 -20 -20 -20 -20 -20 -20 -20 -20 -20 -20 -20 -20 -20 -20 -20 -20 -20 -20 -20 -20
-20 -20 -20 -20 -20 -20 -20 -20 -20 -20 -20 -20 -20 -20 -20 -20 -20 -20 -20 -20 -20 -20 -20 -20 -20 -20 -20 -20 -20 -20 -20 -20 -20 -20 -20 -20 -20 -20 -20 -20 -20 -20 -20
-20 -20 -20 -20 -20 -20 -20 -20 -20 -20 -20 -20 -20 -20 -20 -20 -20 -20 -20 -20 -20 -20 -20 -20 -20 -20 -20 -20 -20 -20 -20 -20 -20 -20 -20 -20 -20 -20 -20 -20 -20 -20 -20
-3 -20 -20 -20 -20 -20 -20 -20 -20 -20 -20 -20 -20 -20 -20 -20 -20 -20 -20 -20 -20 -20 -20 -20 -20 -20 -20 -20 -20 -20 -20 -20 -20 -20 -20 -20 -20 -20 -20 -20 -20 -20 -20
-14 -20 -20 -20 -20 -20 -20 -20 -20 -20 -20 -20 -20 -20 -20 -20 -20 -20 -20 -20 -20 -20 -20 -20 -20 -20 -20 -20 -20 -20 -20 -20 -20 -20 -20 -20 -20 -20 -20 -20 -20 -20 -20
-20 -20 -20 -20 -20 -20 -20 -20 -20 -20 -20 -20 -20 -20 -20 -20 -20 -20 -20 -20 -20 -20 -20 -20 -20 -20 -20 -20 -20 -20 -20 -20 -20 -20 -20 -20 -20 -20 -20 -20 -20 -20 -20
-11 -20 -20 -20 -20 -20 -20 -20 -20 -20 -20 -20 -20 -20 -20 -20 -20 -20 -20 -20 -20 -20 -20 -20 -20 -20 -20 -20 -20 -20 -20 -20 -20 -20 -20 -20 -20 -20 -20 -20 -20 -20 -20
-20 -20 -20 -20 -20 -20 -20 -20 -20 -20 -20 -20 -20 -20 -20 -20 -20 -20 -20 -20 -20 -20 -20 -20 -20 -20 -20 -20 -20 -20 -20 -20 -20 -20 -20 -20 -20 -20 -20 -20 -20 -20 -20
-20 -20 -20 -20 -20 -20 -20 -20 -20 -20 -20 -20 -20 -20 -20 -20 -20 -20 -20 -20 -20 -20 -20 -20 -20 -20 -20 -20 -20 -20 -20 -20 -20 -20 -20 -20 -20 -20 -20 -20 -16 4 18
-20 -20 -20 -20 -20 -20 -20 -20 -20 -20 -20 -20 -20 -20 -20 -20 -20 -20 -20 -20 -20 -20 -20 -20 -20 -20 -20 -20 -20 -20 -20 -20 -20 -20 -20 -20 -20 -20 -17 -7 8 19 16
-20 -20 -20 -20 -20 -20 -20 -20 -20 -20 -20 -20 -20 -20 -20 -20 -20 -20 -20 -20 -20 -20 -20 -20 -20 -20 -20 -20 -20 -20 -20 -20 -20 -20 -20 -8 -20 -20 -18 -1 11 7 19
-20 -20 -20 -20 -20 -20 -20 -20 -20 -20 -20 -20 -20 -20 -20 -20 -20 -20 -20 -20 -20 -20 -20 -20 -20 -20 -20 -20 -20 -20 -20 -20 -20 -20 -20 -20 -20 -4 -12 -15 -11 -20 -17
-20 -20 -20 -20 -20 -20 -20 -20 -20 -20 -20 -20 -20 -20 -20 -20 -20 -20 -20 -20 -20 -20 -20 -20 -20 -20 -20 -20 -20 -20 -20 -20 -20 -20 -20 -20 -20 -20 -20 -20 -20 5 18
-20 -20 -20 -20 -20 -20 -20 -20 -20 -20 -20 -20 -20 -20 -20 -20 -20 -20 -20 -20 -20 -20 -20 -20 -20 -20 -20 -20 -20 -20 -20 -20 -20 -20 -20 -20 -20 -20 -20 -19 -2 -9 -2
-20 -20 -20 -20 -20 -20 -20 -20 -20 -20 -20 -20 -20 -20 -20 -20 -20 -20 -20 -20 -20 -20 -20 -20 -20 -20 -20 -20 -20 -20 -20 -20 -20 -14 -20 -20 -20 -20 -20 -20 -18 -16 -19
-20 -20 -20 -20 -20 -20 -20 -20 -20 -20 -20 -20 -20 -20 -20 -20 -20 -20 -20 -20 -20 -20 -20 -20 -20 -20 -20 -20 -20 -20 -20 -20 -20 -20 -20 -20 -20 -20 -20 -8 -17 -7 -6
-20 -20 -20 -20 -20 -20 -20 -20 -20 -20 -20 -20 -20 -20 -20 -20 -20 -20 -20 -20 -20 -20 -20 -20 -20 -20 -20 -20 -20 -20 -20 -20 -20 -20 -20 -20 -20 -11 -20 -20 -20 -20 11
-20 -20 -20 -20 -20 -20 -20 -20 -20 -20 -20 -20 -20 -20 -20 -20 -20 -20 -20 -20 -20 -20 -20 -20 -20 -20 1 -13 -6 -20 -20 -20 -20 -20 -20 -20 -20 -20 -18 -20 -20 -20 -20
-20 -20 -20 -20 -20 -20 -20 -20 -20 -20 -20 -20 -20 -20 -20 -20 -20 -20 -20 -20 -20 -18 -20 -19 0 12 5 -15 -20 -20 -20 -20 -20 -20 -20 -20 -20 -20 -20 -20 -20 -20 -19
-20 -20 -20 -20 -20 -20 -20 -20 -20 -20 -20 -20 -20 -20 -20 -20 -20 -20 -14 -11 -2 -7 8 12 13 4 -17 -20 -20 -20 -3 -7 -10 -20 -20 -20 -20 -20 -20 -20 -20 -20 -20
-15 -20 -20 -20 -20 -20 -20 -20 -20 -20 -20 -20 -20 -20 -20 -20 -20 -20 -5 -20 5 10 17 16 10 -4 -20 -20 -20 4 10 9 -1 -20 -20 -20 -20 -20 -20 -20 -20 -20 -5
-20 -20 -20 -20 -20 -20 -20 -20 -20 -20 -20 -20 -20 -20 -20 -20 -20 -20 -20 4 10 18 0 -10 -1 -20 -16 -4 9 14 7 10 6 -18 -0 -20 -20 -20 -20 -20 -20 -20 -20
-20 -20 -20 -20 -20 -20 -20 -20 -20 -20 -20 -20 -20 -20 -20 -20 -20 -3 7 15 4 -20 -20 -20 -20 -10 7 10 -7 1 1 5 1 -16 -20 -12 -20 -20 -20 -20 -20 -20 -20
-20 -20 -20 -20 -20 -20 -20 -20 -20 -20 -20 -20 -20 -20 -20 -9 -20 7 13 5 -16 -20 -20 -20 5 11 -9 -20 -14 -1 8 10 -20 -20 -20 -20 -20 -20 -20 -20 -20 -20 -20
-20 -20 -20 -20 -20 -20 -20 -20 -20 -20 -20 -20 -20 -20 -20 -20 2 12 -5 -7 -19 -20 -14 8 -20 -20 -20 -20 -20 -20 -1 9 7 -8 -20 -7 -13 -1 -16 -20 -20 -20 -20

GFSMA_prec_radar_009.txt.gz
Reflectivity
-20 -20 -20 -20 -20 -20 -20 -20 -20 -20 -20 -20 -20 -20 -20 -20 -20 -20 -20 -20 -20 -20 -20 -20 -20 -20 -20 -20 -20 -20 -20 -20 -20 -20 -20 -20 -20 -20 -20 -20 -20 -20 -20
-20 -20 -20 -20 -20 -20 -20 -20 -20 -20 -20 -20 -20 -20 -20 -20 -20 -20 -20 -20 -20 -20 -20 -20 -20 -20 -20 -20 -20 -20 -20 -20 -20 -20 -20 -20 -20 -20 -20 -20 -20 -20 -20
-20 -20 -20 -20 -20 -20 -20 -20 -20 -20 -20 -20 -20 -20 -20 -20 -20 -20 -20 -20 -20 -20 -20 -20 -20 -20 -20 -20 -20 -20 -20 -20 -20 -20 -20 -20 -20 -20 -20 -20 -20 -20 -20
-20 -20 -20 -20 -20 -20 -20 -20 -20 -20 -20 -20 -20 -20 -20 -20 -20 -20 -20 -20 -20 -20 -20 -20 -20 -20 -20 -20 -20 -20 -20 -20 -20 -20 -20 -20 -20 -20 -20 -20 -20 -20 -20
-20 -20 -20 -20 -20 -20 -20 -20 -20 -20 -20 -20 -20 -20 -20 -20 -20 -20 -20 -20 -20 -20 -20 -20 -20 -20 -20 -20 -20 -20 -20 -20 -20 -20 -20 -20 -20 -20 -20 -20 -20 -20 -20
-20 -20 -20 -20 -20 -20 -20 -20 -20 -20 -20 -20 -20 -20 -20 -20 -20 -20 -20 -20 -20 -20 -20 -20 -20 -20 -20 -20 -20 -20 -20 -20 -20 -20 -20 -20 -20 -20 -20 -20 -20 -20 -20
-20 -20 -20 -20 -20 -20 -20 -20 -20 -20 -20 -20 -20 -20 -20 -20 -20 -20 -20 -20 -20 -20 -20 -20 -20 -20 -20 -20 -20 -20 -20 -20 -20 -20 -20 -20 -20 -20 -20 -20 -20 -20 -20
-15 -20 -20 -20 -20 -20 -20 -20 -20 -20 -20 -20 -20 -20 -20 -20 -20 -20 -20 -20 -20 -20 -20 -20 -20 -20 -20 -20 -20 -20 -20 -20 -20 -20 -20 -20 -20 -20 -20 -20 -20 -20 -20
-20 -20 -20 -20 -20 -20 -20 -20 -20 -20 -20 -20 -20 -20 -20 -20 -20 -20 -20 -20 -20 -20 -20 -20 -20 -20 -20 -20 -20 -20 -20 -20 -20 -20 -20 -20 -20 -20 -20 -20 -20 -20 -20
-3 0 -20 -20 -20 -20 -20 -20 -20 -20 -20 -20 -20 -20 -20 -20 -20 -20 -20 -20 -20 -20 -20 -20 -20 -20 -20 -20 -20 -20 -20 -20 -20 -20 -20 -20 -20 -20 -20 -20 -20 -12 -2
-1 5 -20 -20 -20 -20 -20 -20 -20 -20 -20 -20 -20 -20 -20 -20 -20 -20 -20 -20 -20 -20 -20 -20 -20 -20 -20 -20 -20 -20 -20 -20 -20 -20 -20 -20 -20 -20 -20 -20 -12 -6 9
5 -9 -20 -20 -20 -20 -20 -20 -20 -20 -20 -20 -20 -20 -20 -20 -20 -20 -20 -20 -20 -20 -20 -20 -20 -20 -20 -20 -20 -20 -20 -20 -20 -20 -20 -20 -11 -7 -19 -18 -2 3 7
2 -20 -20 -20 -20 -20 -20 -20 -20 -20 -20 -20 -20 -20 -20 -20 -20 -20 -20 -20 -20 -20 -20 -20 -20 -20 -20 -20 -20 -20 -20 -20 -20 -20 -20 -19 -14 -20 -20 -20 -20 -11 10
-18 -20 -20 -20 -20 -20 -20 -20 -20 -20 -20 -20 -20 -20 -20 -20 -20 -20 -20 -20 -20 -20 -20 -20 -20 -20 -20 -20 -20 -20 -20 -20 -20 -20 -20 -20 -20 -20 -20 -20 3 -8 -15
-20 -20 -20 -20 -20 -20 -20 -20 -20 -20 -20 -20 -20 -20 -20 -20 -20 -20 -20 -20 -20 -20 -20 -20 -20 -20 -20 -20 -20 -20 -20 -20 -20 -19 -20 -20 -20 -20 -20 -20 -20 -8 -2
-20 -20 -20 -20 -20 -20 -20 -20 -20 -20 -20 -20 -20 -20 -20 -20 -20 -20 -20 -20 -20 -20 -20 -20 -20 -20 -20 -20 -20 -20 -20 -20 -20 -20 -20 -19 -20 -20 -20 -20 -20 -10 -3
-20 -20 -20 -20 -20 -20 -20 -20 -20 -20 -20 -20 -20 -20 -20 -20 -20 -20 -20 -20 -20 -20 -20 -20 -20 -20 -20 -20 -20 -20 -20 -20 -20 -20 -20 -20 -20 -20 -17 -19 6 -4 -15
-20 -20 -20 -20 -20 -20 -20 -20 -20 -20 -20 -20 -20 -20 -20 -20 -20 -20 -20 -20 -20 -20 -20 -20 -20 -20 -20 -20 -18 -20 -20 -20 -20 -20 -20 -20 -20 -1 -20 3 -7 -20 7
-20 -20 -20 -20 -20 -20 -20 -20 -20 -20 -20 -20 -20 -20 -20 -20 -20 -20 -20 -20 -20 -20 -20 -20 -20 -20 -20 -1 -13 -20 -20 -20 -20 -20 -20 -20 -20 -20 -5 1 -20 -17 2
-20 -20 -20 -20 -20 -20 -20 -20 -20 -20 -20 -20 -20 -20 -20 -20 -20 -20 -20 -20 -20 -20 -20 -20 -20 -20 7 -5 -20 -20 -20 -20 -20 -20 -20 -20 -20 -20 -20 -20 -20 -20 -13
-20 -20 -20 -20 -20 -20 -20 -20 -20 -20 -20 -20 -20 -20 -20 -20 -20 -20 -20 -12 -20 -20 -6 -19 7 -2 -20 -20 -20 -20 -13 -20 -20 -16 -20 -20 -20 -20 -20 -20 -20 -20 -20
-20 -20 -20 -20 -20 -20 -20 -20 -20 -20 -20 -20 -20 -20 -20 -20 -20 -20 -20 -20 -1 3 8 15 9 -12 -20 -20 -20 -6 0 7 -20 -20 -20 -20 -20 -20 -20 -20 -20 -20 -20
-20 -20 -20 -20 -20 -20 -20 -20 -20 -20 -20 -20 -20 -20 -20 -20 -20 -20 -20 -20 -20 11 11 2 -4 -20 -20 -20 -18 -2 4 -15 -20 -20 -20 -20 -20 -20 -20 -20 -20 -20 -20
-20 -20 -16 -20 -20 -20 -20 -20 -20 -20 -20 -20 -20 -20 -20 -20 -20 -20 -20 -8 7 -15 -20 -20 -20 -20 -20 -9 18 -6 -8 -20 -20 -20 -14 -20 -20 -20 -20 -20 -20 -20 -20
-11 -7 -20 -20 -20 -20 -20 -20 -20 -20 -20 -20 -20 -20 -20 -20 -20 -14 4 8 -20 -20 -20 -20 -20 1 -1 -16 -8 -20 -20 4 -20 -20 -20 -20 -20 -20 -20 -20 -20 -20 -20
-20 -20 -20 -20 -20 -20 -20 -20 -20 -20 -20 -20 -20 -20 -20 -20 4 2 -3 -20 -20 -20 -20 -18 -20 -20 -20 -20 -20 -20 -20 -5 -20 -19 -20 -12 -19 -20 -16 -20 -20 -20 -20

GFSMA_prec_radar_012.txt.gz
Reflectivity
-20 -20 -20 -20 -20 -20 -20 -20 -20 -20 -20 -20 -20 -20 -20 -20 -20 -20 -20 -20 -20 -20 -20 -20 -20 -20 -20 -20 -20 -20 -20 -20 -20 -20 -20 -20 -20 -20 -20 -20 -20 -20 -20
-20 -20 -20 -20 -20 -20 -20 -20 -20 -20 -20 -20 -20 -20 -20 -20 -20 -20 -20 -20 -20 -20 -20 -20 -20 -20 -20 -20 -20 -20 -20 -20 -20 -20 -20 -20 -20 -20 -20 -20 -20 -20 -20
-20 -20 -20 -20 -20 -20 -20 -20 -20 -20 -20 -20 -20 -20 -20 -20 -20 -20 -20 -20 -20 -20 -20 -20 -20 -20 -20 -20 -20 -20 -20 -20 -20 -20 -20 -20 -20 -20 -20 -20 -20 -20 -20
-20 -20 -20 -20 -20 -20 -20 -20 -20 -20 -20 -20 -20 -20 -20 -20 -20 -20 -20 -20 -20 -20 -20 -20 -20 -20 -20 -20 -20 -20 -20 -20 -20 -20 -20 -20 -20 -20 -20 -20 -20 -20 -20
-20 -20 -20 -20 -20 -20 -20 -20 -20 -20 -20 -20 -20 -20 -20 -20 -20 -20 -20 -20 -20 -20 -20 -20 -20 -20 -20 -20 -20 -20 -20 -20 -20 -20 -20 -20 -20 -20 -20 -20 -20 -20 -20
-20 -20 -20 -20 -20 -20 -20 -20 -20 -20 -20 -20 -20 -20 -20 -20 -20 -20 -20 -20 -20 -20 -20 -20 -20 -20 -20 -20 -20 -20 -20 -20 -20 -20 -20 -20 -20 -20 -20 -20 -20 -20 -20
-20 -20 -20 -20 -20 -20 -20 -20 -20 -20 -20 -20 -20 -20 -20 -20 -20 -20 -20 -20 -20 -20 -20 -20 -20 -20 -20 -20 -20 -20 -20 -20 -20 -20 -20 -20 -20 -20 -20 -20 -20 -20 -20
-20 -20 -20 -20 -20 -20 -20 -20 -20 -20 -20 -20 -20 -20 -20 -20 -20 -20 -20 -20 -20 -20 -20 -20 -20 -20 -20 -20 -20 -20 -20 -20 -20 -20 -20 -20 -20 -20 -20 -20 -20 -20 -20
-20 -20 -20 -20 -20 -20 -20 -20 -20 -20 -20 -20 -20 -20 -20 -20 -20 -20 -20 -20 -20 -20 -20 -20 -20 -20 -20 -20 -20 -20 -20 -20 -20 -20 -20 -20 -20 -20 -20 -20 -20 -20 -20
-20 -20 -20 -20 -20 -20 -20 -20 -20 -20 -20 -20 -20 -20 -20 -20 -20 -20 -20 -20 -20 -20 -20 -20 -20 -20 -20 -20 -20 -20 -20 -20 -20 -20 -20 -20 -20 -20 -20 -20 -20 -20 -5
-15 -20 -20 -20 -20 -20 -20 -20 -20 -20 -20 -20 -20 -20 -20 -20 -20 -20 -20 -20 -20 -20 -20 -20 -20 -20 -20 -20 -20 -20 -20 -20 -20 -20 -20 -20 -20 -20 -20 -20 5 14 19
-20 11 -20 -11 -19 -20 -20 -20 -20 -20 -20 -20 -20 -20 -20 -20 -20 -20 -20 -20 -20 -20 -20 -20 -20 -20 -20 -20 -20 -20 -20 -20 -20 -20 -20 -8 -11 -20 -20 -4 0 10 8
-20 -20 -20 4 -18 -20 -20 -20 -20 -20 -20 -20 -20 -20 -20 -20 -20 -20 -20 -20 -20 -20 -20 -20 -20 -20 -20 -20 -20 -20 -20 -20 -20 -20 -20 -13 -2 -16 -20 -20 -15 9 13
-20 -20 11 -3 -20 -20 -20 -20 -20 -20 -20 -20 -20 -20 -20 -20 -20 -20 -20 -20 -20 -20 -20 -20 -20 -20 -20 -20 -20 -20 -20 -20 -20 -20 -20 -20 -20 -20 -20 -20 -11 4 1
-20 17 -6 -14 -20 -20 -20 -20 -20 -20 -20 -20 -20 -20 -20 -20 -20 -20 -20 -20 -20 -20 -20 -20 -20 -20 -20 -20 -20 -20 -20 -20 -20 -20 -20 -20 -20 -19 -20 -20 -20 -20 -17
-0 -20 1 -20 -20 -20 -20 -20 -20 -20 -20 -20 -20 -20 -20 -20 -20 -20 -20 -20 -20 -20 -20 -20 -20 -20 -20 -20 -20 -20 -20 -20 -20 -20 -20 -20 -20 -20 -20 -10 6 -1 -5
-6 -20 -20 -20 -20 -20 -20 -20 -20 -20 -20 -20 -20 -20 -20 -20 -20 -20 -20 -20 -20 -20 -20 -20 -20 -20 -20 -20 -20 -20 -20 -20 -20 -20 -20 -20 -20 -20 -20 -2 -20 2 -12
-13 1 -20 -20 -20 -20 -20 -20 -20 -20 -20 -20 -20 -20 -20 -20 -20 -20 -20 -20 -20 -20 -20 -20 -20 -20 -20 -20 -20 -20 -20 -20 -20 -20 -20 -20 -20 -20 -20 -20 -19 -4 1
-3 1 -20 -20 -20 -20 -20 -20 -20 -20 -20 -20 -20 -20 -20 -20 -20 -20 -20 -20 -20 -20 -20 -20 -20 -20 -20 -20 -19 -20 -20 -20 -20 -20 -20 -20 -20 -20 -20 -7 -15 -3 -12
7 -20 -20 -20 -20 -20 -20 -20 -20 -20 -20 -20 -20 -20 -20 -20 -20 -20 -20 -20 -20 -20 -20 -20 -20 -20 -20 -9 -20 -20 -20 -20 -20 -20 -20 -20 -20 -20 -20 -20 -20 -20 -20
-16 -20 -20 -20 -14 -20 -20 -20 -20 -20 -20 -20 -20 -20 -20 -20 -20 -20 -20 -20 -20 -20 -20 -20 -12 -8 -19 -20 -20 -20 -20 -20 -20 -20 -20 -20 -20 -20 -20 -20 -20 -20 -20
-20 -20 -11 8 -8 -20 -20 -10 -20 -20 -20 -20 -20 -20 -20 -20 -20 -20 -20 -20 -20 -1 -1 -2 8 -20 -20 -20 -20 -20 -20 -20 -14 -20 -20 -20 -20 -20 -20 -20 -20 -20 -20
-11 8 5 -13 -20 -19 8 -20 -20 -20 -20 -20 -20 -20 -20 -20 -20 -20 -20 -20 -20 -20 7 6 -19 -20 -20 -20 -20 -18 -14 6 -20 -20 -20 -20 -20 -20 -20 -20 -20 -20 -20
11 -9 -20 -20 -5 -6 -20 -20 -20 -20 -20 -20 -20 -20 -20 -20 -20 -20 -20 -20 -20 -20 -20 -20 -20 -20 -20 -11 9 3 -19 -20 -20 -20 -20 -20 -20 -20 -20 -20 -20 -20 -20
-20 -20 -1 -5 -20 -20 -20 -20 -20 -20 -20 -20 -20 -20 -20 -20 -20 -20 1 -20 -20 -20 -20 -20 -20 -2 2 -16 -20 -20 -20 -20 -20 -20 -20 -20 -20 -20 -20 -20 -20 -20 -20
3 -7 -20 -20 -20 -20 -20 -20 -20 -20 -20 -20 -20 -20 -20 -20 -20 -15 4 -14 -20 -20 -20 -19 -20 -20 -20 -20 -20 -20 -20 -20 -20 -19 -20 8 -15 -19 -16 -20 -20 -20 -20

GFSMA_prec_radar_015.txt.gz
Reflectivity
-20 -20 -20 -16 -20 -20 -20 -20 -20 -20 -20 -20 -20 -20 -20 -20 -20 -20 -20 -20 -20 -20 -20 -20 -20 -20 -20 -20 -20 -20 -20 -20 -20 -20 -20 -20 -20 -20 -20 -20 -20 -20 -20
-20 -20 -20 -20 -20 -20 -20 -20 -20 -20 -20 -20 -20 -20 -20 -20 -20 -20 -20 -20 -20 -20 -20 -20 -20 -20 -20 -20 -20 -20 -20 -20 -20 -20 -20 -20 -20 -20 -20 -20 -20 -20 -20
-20 -20 -20 -20 -20 -20 -20 -20 -20 -20 -20 -20 -20 -20 -20 -20 -20 -20 -20 -20 -20 -20 -20 -20 -20 -20 -20 -20 -20 -20 -20 -20 -20 -20 -20 -20 -20 -20 -20 -20 -20 -20 -20
-20 -20 -20 -20 -20 -20 -20 -20 -20 -20 -20 -20 -20 -20 -20 -20 -20 -20 -20 -20 -20 -20 -20 -20 -20 -20 -20 -20 -20 -20 -20 -20 -20 -20 -20 -20 -20 -20 -20 -20 -20 -20 -20
-20 -20 -20 -20 -20 -20 -20 -20 -20 -20 -20 -20 -20 -20 -20 -20 -20 -20 -20 -20 -20 -20 -20 -20 -20 -20 -20 -20 -20 -20 -20 -20 -20 -20 -20 -20 -20 -20 -20 -20 -20 -20 -20
-20 -20 -20 -20 -20 -20 -20 -20 -20 -20 -20 -20 -20 -20 -20 -20 -20 -20 -20 -20 -20 -20 -20 -20 -20 -20 -20 -20 -20 -20 -20 -20 -20 -20 -20 -20 -20 -20 -20 -20 -20 -20 -20
-20 -20 -20 -20 -20 -20 -20 -20 -20 -20 -20 -20 -20 -20 -20 -20 -20 -20 -20 -20 -20 -20 -20 -20 -20 -20 -20 -20 -20 -20 -20 -20 -20 -20 -20 -20 -20 -20 -20 -20 -20 -20 -20
-20 -20 -20 -20 -20 -20 -20 -20 -20 -20 -20 -20 -20 -20 -20 -20 -20 -20 -20 -20 -20 -20 -20 -20 -20 -20 -20 -20 -20 -20 -20 -20 -20 -20 -20 -20 -20 -20 -20 -20 -20 -20 -20
-13 -20 -20 -20 -20 -20 -20 -20 -20 -20 -20 -20 -20 -20 -20 -20 -20 -20 -20 -20 -20 -20 -20 -20 -20 -20 -20 -20 -20 -20 -20 -20 -20 -20 -20 -20 -20 -20 -20 -20 -20 -20 -9
-13 -20 -20 -20 -5 -20 -20 -20 -20 -20 -20 -20 -20 -20 -20 -20 -20 -20 -20 -20 -20 -20 -20 -20 -20 -20 -20 -20 -20 -20 -20 -20 -20 -20 -20 -20 -20 -20 -20 -20 -0 -19 10
-17 -20 -20 -20 -3 -20 -20 -20 -20 -20 -20 -20 -20 -20 -20 -20 -20 -20 -20 -20 -20 -20 -20 -20 -20 -20 -20 -20 -20 -20 -20 -20 -20 -20 -20 -20 -20 -20 -20 -19 11 16 12
16 -20 -17 -20 -20 -20 -15 -20 -20 -20 -20 -20 -20 -20 -20 -20 -20 -20 -20 -20 -20 -20 -20 -20 -20 -20 -20 -20 -20 -20 -20 -20 -20 -20 -20 -20 -16 -17 -20 -11 12 2 12
-2 -20 6 -11 -11 -18 -20 -20 -20 -20 -20 -20 -20 -20 -20 -20 -20 -20 -20 -20 -20 -20 -20 -20 -20 -20 -20 -20 -20 -20 -20 -20 -20 -20 -20 -9 -16 1 -19 -9 -8 -18 -17
18 -20 -20 -20 -20 -13 8 -14 -20 -20 -20 -20 -20 -20 -20 -20 -20 -20 -20 -20 -20 -20 -20 -20 -20 -20 -20 -20 -20 -20 -20 -20 -20 -20 -20 -4 -18 -20 -20 -20 -14 -19 -20
-7 -20 -20 -2 -20 9 4 -20 -20 -20 -20 -20 -20 -20 -20 -20 -20 -20 -20 -20 -20 -20 -20 -20 -20 -20 -20 -20 -20 -20 -20 -20 -20 -20 -20 -20 -20 -20 -20 -20 -20 -16 5
4 1 -9 -20 14 9 -5 -20 -20 -20 -20 -20 -20 -20 -20 -20 -20 -20 -20 -20 -20 -20 -20 -20 -20 -20 -20 -20 -20 -20 -20 -20 -20 -20 -20 -20 -20 -16 1 2 -0 -7 -16
21 18 -4 13 20 -13 -8 -20 -20 -20 -20 -20 -20 -20 -20 -20 -20 -20 -20 -20 -20 -20 -20 -20 -20 -20 -20 -20 -20 -20 -20 -20 -20 -20 -20 -20 -20 -20 -20 -13 -19 -12 -19
14 20 14 10 -4 -0 -20 -20 -20 -20 -20 -20 -20 -20 -20 -20 -20 -20 -20 -20 -20 -20 -20 -20 -20 -20 -20 -20 -20 -20 -20 -20 -20 -20 -20 -20 -20 -20 -20 -17 -8 -20 4
-12 27 12 -13 12 -20 -20 -20 -20 -20 -20 -20 -20 -20 -20 -20 -20 -20 -20 -20 -20 -20 -20 -20 -20 -20 -20 -20 -20 -20 -20 -20 -20 -20 -20 -20 -20 -20 -20 -20 -20 -2 -19
23 -20 9 9 8 -20 -20 -20 -20 -12 -20 -20 -20 -20 -20 -20 -20 -20 -20 -20 -20 -20 -20 -20 -20 -20 -20 -20 -20 -20 -20 -20 -20 -20 -20 -20 -20 -20 -20 -20 -20 -20 -20
13 15 13 -8 -18 -20 -20 -2 7 -20 -20 -20 -20 -20 -20 -20 -20 -20 -20 -20 -20 -20 -20 -20 -20 -17 -8 -20 -20 -20 -20 -20 -20 -20 -20 -20 -20 -20 -20 -20 -20 -20 -20
7 21 8 -20 -20 -20 11 2 -20 -20 -3 -17 -20 -20 -20 -20 -20 -20 -20 -20 -20 -20 -20 -20 -0 -20 -20 -20 -20 -20 -20 -20 -20 -20 -20 -20 -20 -20 -20 -20 -20 -20 -20
23 24 -1 -15 8 13 6 -20 -4 5 -16 -20 -20 -20 -20 -20 -20 -20 -20 -20 -20 -20 7 7 -20 -20 -20 -20 -20 -17 -10 7 -20 -20 -20 -20 -20 -20 -20 -20 -20 -20 -20
28 30 8 -10 2 -19 -18 13 -5 -20 -20 -20 -20 -20 -20 -20 -20 -20 -20 -20 -20 -20 -20 -20 -20 -20 -20 -14 3 -15 -20 -20 -20 -20 -20 -20 -20 -20 -20 -20 -20 -20 -20
32 16 -15 -19 -20 -7 -13 -20 -20 -20 -20 -20 -20 -20 -20 -20 -20 -20 -20 -20 -20 -20 -20 -20 -20 -3 0 -17 -20 -20 -20 -20 -20 -20 -20 -20 -20 -20 -20 -20 -20 -20 -20
-20 -20 -19 -14 -20 -20 -20 -20 -20 -20 -20 -20 -20 -20 -20 -20 -5 -18 3 -19 -20 -20 -20 -20 -20 -20 -20 -20 -20 -20 -20 -20 -20 -19 -20 -20 -20 -19 -9 -20 -20 -20 -20

GFSMA_prec_radar_018.txt.gz
Reflectivity
-20 -20 -20 -20 -20 -20 -20 -20 -20 -20 -20 -20 -20 -20 -20 -20 -20 -20 -20 -20 -20 -20 -20 -20 -20 -20 -20 -20 -20 -20 -20 -20 -20 -20 -20 -20 -20 -20 -20 -20 -20 -20 -20
-20 -20 -20 -20 -20 -20 -20 -20 -20 -20 -20 -20 -20 -20 -20 -20 -20 -20 -20 -20 -20 -20 -20 -20 -20 -20 -20 -20 -20 -20 -20 -20 -20 -20 -20 -20 -20 -20 -20 -20 -20 -20 -20
-20 -20 -20 -20 -20 -20 -20 -20 -20 -20 -20 -20 -20 -20 -20 -20 -20 -20 -20 -20 -20 -20 -20 -20 -20 -20 -20 -20 -20 -20 -20 -20 -20 -20 -20 -20 -20 -20 -20 -20 -20 -20 -20
-20 -20 -20 -20 -20 -20 -20 -20 -20 -20 -20 -20 -20 -20 -20 -20 -20 -20 -20 -20 -20 -20 -20 -20 -20 -20 -20 -20 -20 -20 -20 -20 -20 -20 -20 -20 -20 -20 -20 -20 -20 -20 -20
-20 -20 -20 -20 -20 -20 -20 -20 -20 -20 -20 -20 -20 -20 -20 -20 -20 -20 -20 -20 -20 -20 -20 -20 -20 -20 -20 -20 -20 -20 -20 -20 -20 -20 -20 -20 -20 -20 -20 -20 -20 -20 -20
-20 -20 -20 -20 -20 -20 -20 -20 -20 -20 -20 -20 -20 -20 -20 -20 -20 -20 -20 -20 -20 -20 -20 -20 -20 -20 -20 -20 -20 -20 -20 -20 -20 -20 -20 -20 -20 -20 -20 -20 -20 -20 -20
-20 -20 -20 -20 -20 -20 -20 -20 -20 -20 -20 -20 -20 -20 -20 -20 -20 -20 -20 -20 -20 -20 -20 -20 -20 -20 -20 -20 -20 -20 -20 -20 -20 -20 -20 -20 -20 -20 -20 -20 -20 -20 -20
-20 -20 -20 -20 -20 -20 -20 -20 -20 -20 -20 -20 -20 -20 -20 -20 -20 -20 -20 -20 -20 -20 -20 -20 -20 -20 -20 -20 -20 -20 -20 -20 -20 -20 -20 -20 -20 -20 -20 -20 -20 -20 -20
4 3 7 -20 -20 -20 -20 -20 -20 -20 -20 -20 -20 -20 -20 -20 -20 -20 -20 -20 -20 -20 -20 -20 -20 -20 -20 -20 -20 -20 -20 -20 -20 -20 -20 -20 -20 -20 -20 -20 -20 -20 -20
5 10 6 -19 -20 -20 -20 -20 -20 -20 -20 -20 -20 -20 -20 -20 -20 -20 -20 -20 -20 -20 -20 -20 -20 -20 -20 -20 -20 -20 -20 -20 -20 -20 -20 -20 -20 -20 -20 -20 -14 -16 -1
-20 -20 8 11 -19 -20 -20 -20 -20 -20 -20 -20 -20 -20 -20 -20 -20 -20 -20 -20 -20 -20 -20 -20 -20 -20 -20 -20 -20 -20 -20 -20 -20 -20 -20 -20 -20 -20 -20 -18 -9 9 8
6 -20 -8 16 -2 -11 -16 -10 -20 -17 -20 -20 -20 -20 -20 -20 -20 -20 -20 -20 -20 -20 -20 -20 -20 -20 -20 -20 -20 -20 -20 -20 -20 -20 -20 -20 -20 -20 -20 -20 7 -16 11
-20 7 -19 15 15 -1 -20 -19 -14 10 -20 -20 -20 -20 -20 -20 -20 -20 -20 -20 -20 -20 -20 -20 -20 -20 -20 -20 -20 -20 -20 -20 -20 -20 -20 -20 -16 -8 -13 -20 -20 -20 -12
18 22 -20 9 9 15 14 -20 -20 -18 11 -20 -20 -20 -20 -20 -20 -20 -20 -20 -20 -20 -20 -20 -20 -20 -20 -20 -20 -20 -20 -20 -20 -20 -20 -19 -17 -20 -20 -20 -20 -20 -20
15 18 9 3 -13 13 -8 -14 -20 -7 9 -20 -20 -20 -20 -20 -20 -20 -20 -20 -20 -20 -20 -20 -20 -20 -20 -20 -20 -20 -20 -20 -20 -20 -20 -4 -14 -20 -20 -20 2 3 0
11 11 -20 -6 12 -1 -20 -10 -14 26 -2 -20 -20 -20 -20 -20 -20 -20 -20 -20 -20 -20 -20 -20 -20 -20 -20 -20 -20 -20 -20 -20 -20 -20 -20 -20 -20 -15 -20 -9 -11 -10 1
-11 -20 9 20 6 9 21 5 27 10 -20 -20 -20 -20 -20 -20 -20 -20 -20 -20 -20 -20 -20 -20 -20 -20 -20 -20 -20 -20 -20 -20 -20 -20 -20 -20 -13 -20 -20 -20 -20 -20 -4
18 -11 -6 17 0 25 27 27 16 -20 -19 -20 -20 -20 -20 -20 -20 -20 -20 -20 -20 -20 -20 -20 -20 -20 -20 -20 -20 -20 -20 -20 -20 -20 -20 -20 -20 -20 -20 -20 4 -1 -6
-18 -13 6 15 23 4 23 7 -17 2 -20 -20 -20 -17 12 -20 -20 -20 -20 -20 -20 -20 -20 -20 -20 -20 -20 -20 -20 -20 -20 -20 -20 -20 -20 -20 -20 -20 -20 -4 -20 -20 -20
4 16 18 19 6 35 19 22 11 -20 -20 -20 1 7 -20 -20 -20 -20 -20 -20 -20 -20 -20 -20 -20 -20 -20 -20 -20 -20 -20 -20 -20 -20 -20 -20 -20 -20 -20 -20 -20 -20 -20
18 12 14 28 24 17 20 13 7 -20 -20 7 -12 -5 -20 -20 -20 -20 -20 -20 -20 -20 -20 -20 -20 -20 -20 -20 -20 -20 -20 -20 -20 -20 -20 -20 -20 -20 -20 -20 -20 -20 -20
12 14 24 28 31 13 34 5 -1 -19 17 3 -1 -20 -20 -20 -20 -20 -20 -20 -20 -20 -20 -20 -20 -20 -20 -20 -20 -20 -20 -20 -20 -20 -20 -20 -20 -20 -20 -20 -20 -20 -20
18 28 34 31 19 16 17 4 7 6 -18 -20 -20 -20 -20 -20 -20 -20 -20 -20 -20 -20 -8 2 -20 -20 -20 -20 -20 -20 -17 -5 -20 -20 -20 -20 -20 -20 -20 -20 -20 -20 -20
22 33 26 22 25 15 16 7 -17 -20 -20 -20 -20 -20 -20 -20 -20 -20 -20 -20 -20 -20 -20 -20 -20 -20 -20 -20 -9 -14 -20 -20 -20 -20 -20 -20 -20 -20 -20 -20 -20 -20 -20
33 35 37 32 28 9 4 -9 -20 -20 -20 -20 -20 -20 -20 -20 -20 -20 -20 -20 -20 -20 -20 -20 -20 -20 -13 -15 -18 -20 -20 -20 -20 -20 -20 -20 -20 -20 -20 -20 -20 -20 -20
29 17 15 6 1 -14 -20 -20 -20 -20 -20 -20 -20 -20 -20 -20 -20 -20 4 -18 -20 -20 -20 -20 -20 -20 -20 -20 -20 -20 -20 -20 -20 -20 -20 -20 -20 -20 -20 -20 -20 -20 -20

GFSMA_prec_radar_021.txt.gz
Reflectivity
-20 -20 -20 -20 -20 -20 -20 -20 -20 -20 -20 -20 -20 -20 -20 -20 -20 -20 -20 -20 -20 -20 -20 -20 -20 -20 -20 -20 -20 -20 -20 -20 -20 -20 -20 -20 -20 -20 -20 -20 -20 -20 -20
-20 -20 -20 -20 -20 -20 -20 -20 -20 -20 -20 -20 -20 -20 -20 -20 -20 -20 -20 -20 -20 -20 -20 -20 -20 -20 -20 -20 -20 -20 -20 -20 -20 -20 -20 -20 -20 -20 -20 -20 -20 -20 -20
-20 -20 -20 -20 -20 -20 -20 -20 -20 -20 -20 -20 -20 -20 -20 -20 -20 -20 -20 -20 -20 -20 -20 -20 -20 -20 -20 -20 -20 -20 -20 -20 -20 -20 -20 -20 -20 -20 -20 -20 -20 -20 -20
-20 -20 -20 -20 -20 -20 -20 -20 -20 -20 -20 -20 -20 -20 -20 -20 -20 -20 -20 -20 -20 -20 -20 -20 -20 -20 -20 -20 -20 -20 -20 -20 -20 -20 -20 -20 -20 -20 -20 -20 -20 -20 -20
-20 -20 -20 -20 -20 -20 -20 -20 -20 -20 -20 -20 -20 -20 -20 -20 -20 -20 -20 -20 -20 -20 -20 -20 -20 -20 -20 -20 -20 -20 -20 -20 -20 -20 -20 -20 -20 -20 -20 -20 -20 -20 -20
-20 -20 -20 -20 -20 -20 -20 -20 -20 -20 -20 -20 -20 -20 -20 -20 -20 -20 -20 -20 -20 -20 -20 -20 -20 -20 -20 -20 -20 -20 -20 -20 -20 -20 -20 -20 -20 -20 -20 -20 -20 -20 -20
-20 -20 -20 -20 -20 -20 -20 -20 -20 -20 -20 -20 -20 -20 -20 -20 -20 -20 -20 -20 -20 -20 -20 -20 -20 -20 -20 -20 -20 -20 -20 -20 -20 -20 -20 -20 -20 -20 -20 -20 -20 -20 -20
-20 -20 -18 -15 -20 2 -20 -20 -20 -20 -20 -20 -20 -20 -20 -20 -20 -20 -20 -20 -20 -20 -20 -20 -20 -20 -20 -20 -20 -20 -20 -20 -20 -20 -20 -20 -20 -20 -20 -20 -20 -20 -20
-10 -20 -13 2 -3 7 -20 -20 -20 -20 -20 -20 -20 -20 -20 -20 -20 -20 -20 -20 -20 -20 -20 -20 -20 -20 -20 -20 -20 -20 -20 -20 -20 -20 -20 -20 -20 -20 -20 -20 -20 -20 -20
26 -19 9 -1 -20 2 -20 -20 -20 -20 -20 -20 -20 -20 -20 -20 -20 -20 -20 -20 -20 -20 -20 -20 -20 -20 -20 -20 -20 -20 -20 -20 -20 -20 -20 -20 -20 -20 -20 -20 -20 -20 -20
-20 -17 -19 2 -6 10 8 -17 -20 -20 -20 -20 -20 -20 -20 -20 -20 -20 -20 -20 -20 -20 -20 -20 -20 -20 -20 -20 -20 -20 -20 -20 -20 -20 -20 -20 -20 -20 -20 -20 -11 -20 -18
20 16 21 21 -20 -3 -8 10 -7 -20 -15 -20 -20 -20 -20 -20 -20 -20 -20 -20 -20 -20 -20 -20 -20 -20 -20 -20 -20 -20 -20 -20 -20 -20 -20 -20 -20 -20 -20 -20 -0 -15 -14
-20 -4 16 18 8 -20 -20 16 -20 -11 -20 -20 -20 -19 -20 -20 -20 -20 -20 -20 -20 -20 -20 -20 -20 -20 -20 -20 -20 -20 -20 -20 -20 -20 -20 -20 -20 -20 -2 -0 -8 -20 -15
19 -20 13 18 17 -16 -8 5 10 8 -20 -20 -20 -15 -20 -20 -20 -20 -20 -20 -20 -20 -20 -20 -20 -20 -20 -20 -20 -20 -20 -20 -20 -20 -20 -20 -20 -20 -5 -3 -11 -20 -20
16 7 -20 15 -8 13 13 6 -12 12 -20 13 -8 -20 -20 -3 -20 -20 -20 -20 -20 -20 -20 -20 -20 -20 -20 -20 -20 -20 -20 -20 -20 -20 -20 -20 -20 -10 -5 -20 -20 -20 5
11 16 15 6 -3 0 -10 -13 -11 28 -12 -9 -0 7 20 -20 -20 -20 -20 -20 -20 -20 -20 -20 -20 -20 -20 -20 -20 -20 -20 -20 -20 -20 -20 -20 -20 -15 -20 -20 -20 -20 -7
2 18 19 12 2 -13 -2 -20 -10 29 -13 23 27 11 9 -20 -20 -20 -20 -20 -20 -20 -20 -20 -20 -20 -20 -20 -20 -20 -20 -20 -20 -20 -20 -20 -20 -20 -20 -15 -20 -15 -2
9 17 7 -20 -20 11 9 -1 12 3 24 36 24 -12 -20 -20 -20 -20 -20 -20 -20 -20 -20 -20 -20 -20 -20 -20 -20 -20 -20 -20 -20 -20 -20 -20 -20 -20 -5 -18 -6 9 7
21 24 -20 -20 18 13 -7 13 30 3 33 2 -4 -19 -20 -20 -20 -19 -20 -20 -20 -20 -20 -20 -20 -20 -20 -20 -20 -20 -20 -20 -20 -20 -20 -20 -20 -20 -2 -9 -13 -20 -20
21 17 -20 10 12 -6 8 16 25 36 12 27 11 -7 -20 -20 -13 -20 -20 -20 -20 -20 -20 -20 -20 -20 -20 -20 -20 -20 -20 -20 -20 -20 -20 -20 -20 -20 -20 -20 -20 -20 -20
20 31 -12 4 -3 10 12 29 33 27 29 -4 -9 -10 -9 -12 -19 -20 -20 -20 -20 -20 -20 -20 -20 -20 -20 -20 -20 -20 -20 -20 -20 -20 -20 -20 -20 -20 -20 -20 -20 -20 -20
9 22 -20 0 11 17 28 30 33 28 27 17 18 -5 -12 -6 -20 -20 -20 -20 -20 -20 -20 -20 -20 -20 -20 -20 -20 -20 -20 -20 -20 -20 -20 -20 -20 -20 -20 -20 -20 -20 -20
35 4 -4 21 18 21 23 26 28 28 18 5 7 3 -18 -20 -20 -20 -20 -20 -20 -20 -20 -3 -20 -20 -20 -20 -20 -20 -20 -20 -20 -20 -20 -20 -20 -20 -20 -20 -20 -20 -20
1 7 23 19 33 27 39 35 19 14 5 3 3 -7 -7 -20 -20 -20 -20 -20 -20 -20 -20 -20 -20 -20 -20 -20 -18 -6 -13 -20 -20 -20 -20 -20 -20 -20 -20 -20 -20 -20 -20
28 29 24 36 34 35 27 16 20 17 15 1 -20 -20 -20 -20 -20 -20 -20 -20 -20 -20 -20 -20 -20 -20 -16 -16 -20 -20 -20 -20 -20 -20 -20 -20 -20 -20 -20 -20 -20 -20 -20
36 30 24 31 30 24 16 4 -10 -8 -20 -20 -20 -20 -20 -20 -20 -20 -19 -20 -20 -20 -20 -20 -20 -20 -20 -20 -20 -20 -20 -20 -20 -20 -20 -20 -20 -20 -20 -20 -20 -20 -20

GFSMA_prec_radar_024.txt.gz
Reflectivity
-20 -20 -20 -20 -20 -20 -20 -20 -20 -20 -20 -20 -20 -20 -20 -20 -20 -20 -20 -20 -20 -20 -20 -20 -20 -20 -20 -20 -20 -20 -20 -20 -20 -20 -20 -20 -20 -20 -20 -20 -20 -20 -20
-20 -20 -20 -20 -20 -20 -20 -20 -20 -20 -20 -20 -20 -20 -20 -20 -20 -20 -20 -20 -20 -20 -20 -20 -20 -20 -20 -20 -20 -20 -20 -20 -20 -20 -20 -20 -20 -20 -20 -20 -20 -20 -20
-20 -20 -20 -20 -20 -20 -20 -20 -20 -20 -20 -20 -20 -20 -20 -20 -20 -20 -20 -20 -20 -20 -20 -20 -20 -20 -20 -20 -20 -20 -20 -20 -20 -20 -20 -20 -20 -20 -20 -20 -20 -20 -20
-20 -20 -20 -20 -20 -20 -20 -20 -20 -20 -20 -20 -20 -20 -20 -20 -20 -20 -20 -20 -20 -20 -20 -20 -20 -20 -20 -20 -20 -20 -20 -20 -20 -20 -20 -20 -20 -20 -20 -20 -20 -20 -20
-20 -20 -20 -20 -20 -20 -20 -20 -20 -20 -20 -20 -20 -20 -20 -20 -20 -20 -20 -20 -20 -20 -20 -20 -20 -20 -20 -20 -20 -20 -20 -20 -20 -20 -20 -20 -20 -20 -20 -20 -20 -20 -20
-20 -20 -20 -20 -20 -20 -20 -20 -20 -20 -20 -20 -20 -20 -20 -20 -20 -20 -20 -20 -20 -20 -20 -20 -20 -20 -20 -20 -20 -20 -20 -20 -20 -20 -20 -20 -20 -20 -20 -20 -20 -20 -20
-7 -20 -20 -20 -20 -20 -20 -20 -20 -20 -20 -20 -20 -20 -20 -20 -20 -20 -20 -20 -20 -20 -20 -20 -20 -20 -20 -20 -20 -20 -20 -20 -20 -20 -20 -20 -20 -20 -20 -20 -20 -20 -20
17 -20 -20 -20 -20 -20 -20 -17 -20 -20 -20 -20 -20 -20 -20 -20 -20 -20 -20 -20 -20 -20 -20 -20 -20 -20 -20 -20 -20 -20 -20 -20 -20 -20 -20 -20 -20 -20 -20 -20 -20 -20 -20
-12 2 22 -20 -20 -17 -16 9 -15 -20 -20 -20 -20 -20 -20 -20 -20 -20 -20 -20 -20 -20 -20 -20 -20 -20 -20 -20 -20 -20 -20 -20 -20 -20 -20 -20 -20 -20 -20 -20 -20 -20 -20
20 -20 28 23 17 -20 -20 -20 -6 -20 -20 -20 -20 -20 -20 -20 -20 -20 -20 -20 -20 -20 -20 -20 -20 -20 -20 -20 -20 -20 -20 -20 -20 -20 -20 -20 -20 -20 -20 -20 -20 -20 -20
19 26 28 -18 13 -20 -9 -20 -19 14 -20 -20 -20 -20 -20 -20 -20 -20 -20 -20 -20 -20 -20 -20 -20 -20 -20 -20 -20 -20 -20 -20 -20 -20 -20 -20 -20 -20 -20 -20 -20 -20 -0
19 20 24 -20 24 21 -10 2 19 14 -13 -19 -20 -20 -20 -20 -20 -20 -20 -20 -20 -20 -20 -20 -20 -20 -20 -20 -20 -20 -20 -20 -20 -20 -20 -20 -20 -20 -20 -20 -20 -20 -12
-20 -20 23 24 23 21 20 20 16 5 20 -15 -20 1 -20 -20 -20 -18 -20 -20 -20 -20 -20 -20 -20 -20 -20 -20 -20 -20 -20 -20 -20 -20 -20 -20 -20 -20 -20 -20 -20 -20 -19
-20 24 22 22 22 21 16 11 9 8 10 22 -2 1 -15 -20 -5 -9 -20 -20 -20 -20 -20 -20 -20 -20 -20 -20 -20 -20 -20 -20 -20 -20 -20 -20 -20 -20 -20 -20 -19 -20 -9
-20 15 23 24 21 19 16 9 10 16 5 -20 29 11 18 9 22 -19 -20 -20 -7 -20 -20 -20 -20 -20 -20 -20 -20 -20 -20 -20 -20 -20 -20 -20 -20 -20 -20 -20 -8 -9 -19
-20 -20 21 21 26 20 15 10 -19 8 9 -20 6 33 33 19 -4 -6 11 9 -20 -20 -20 -20 -20 -20 -20 -20 -20 -20 -20 -20 -20 -20 -20 -20 -20 -20 -20 -20 -17 -20 -20
-20 -8 19 21 24 23 -13 1 -20 11 10 -11 -20 20 2 29 17 32 -9 -11 -16 -20 -20 -20 -20 -20 -20 -20 -20 -20 -20 -20 -20 -20 -20 -20 -20 -4 -2 -5 -20 -20 -20
-20 -20 20 15 12 13 -19 -13 11 8 21 19 -5 30 5 12 32 22 -13 -20 -20 -20 -20 -20 -20 -20 -20 -20 -20 -20 -20 -20 -20 -20 -20 -20 -20 -20 -20 -20 -20 -20 4
-20 -20 -20 -6 10 7 -20 -18 -5 -20 20 20 -10 14 33 10 17 -17 10 -0 -20 -20 -20 -20 -20 -20 -20 -20 -20 -20 -20 -20 -20 -20 -20 -20 -20 -20 -20 -20 -14 -17 -20
-20 -12 -18 -20 -14 -16 10 -11 -20 18 10 12 23 21 31 24 18 24 2 -9 -20 -20 -20 -20 -20 -20 -20 -20 -20 -20 -20 -20 -20 -20 -20 -20 -20 -20 -20 -20 -20 -20 -20
-20 -15 13 -20 -15 33 38 2 15 29 5 20 24 24 35 28 19 23 16 12 3 -20 -20 -20 -20 -20 -20 -20 -20 -20 -20 -20 -20 -20 -20 -20 -20 -20 -20 -20 -20 -20 -20
-20 -20 17 6 24 21 40 29 24 -10 20 23 21 33 29 34 25 15 6 -10 -20 -20 -20 -20 -20 -20 -20 -20 -20 -20 -20 -20 -20 -20 -20 -20 -20 -20 -20 -20 -20 -20 -20
5 22 20 17 -11 24 34 19 17 12 17 28 26 25 23 19 16 17 5 -20 -20 -20 -20 -20 -20 -20 -20 -20 -20 -20 -20 -20 -20 -20 -20 -20 -20 -20 -20 -20 -20 -20 -20
25 30 20 28 24 28 24 26 22 12 21 23 21 21 18 14 5 -2 -19 -20 -20 -20 -20 -20 -20 -20 -20 -20 -20 -6 -20 -20 -20 -20 -20 -20 -20 -20 -20 -20 -20 -20 -20
31 23 26 28 29 31 26 20 22 23 29 17 11 11 8 -0 -19 -20 -20 -20 -20 -20 -20 -20 -20 -20 -16 -16 -20 -20 -20 -20 -20 -20 -20 -20 -20 -20 -20 -20 -20 -20 -20
23 32 27 28 29 25 30 29 19 19 20 17 14 -11 -20 -20 -20 -20 -19 -20 -20 -20 -20 -20 -20 -20 -20 -20 -20 -20 -20 -20 -20 -20 -20 -20 -20 -20 -20 -20 -20 -20 -20

GFSMA_prec_radar_027.txt.gz
Reflectivity
-20 -20 -7 -20 -20 -20 -20 -20 -20 -20 -20 -20 -20 -20 -20 -20 -20 -20 -20 -20 -20 -20 -20 -20 -20 -20 -20 -20 -20 -20 -20 -20 -20 -20 -20 -20 -20 -20 -20 -20 -20 -20 -20
-20 -20 -16 -19 -20 -20 -20 -20 -20 -20 -20 -20 -20 -20 -20 -20 -20 -20 -20 -20 -20 -20 -20 -20 -20 -20 -20 -20 -20 -20 -20 -20 -20 -20 -20 -20 -20 -20 -20 -20 -20 -20 -20
-20 -20 -20 -20 -20 -20 -20 -20 -20 -20 -20 -20 -20 -20 -20 -20 -20 -20 -20 -20 -20 -20 -20 -20 -20 -20 -20 -20 -20 -20 -20 -20 -20 -20 -20 -20 -20 -20 -20 -20 -20 -20 -20
-20 -20 -20 -20 -20 -20 -20 -20 -20 -20 -20 -20 -20 -20 -20 -20 -20 -20 -20 -20 -20 -20 -20 -20 -20 -20 -20 -20 -20 -20 -20 -20 -20 -20 -20 -20 -20 -20 -20 -20 -20 -20 -20
-20 -20 -20 -20 -20 -20 -20 -20 -20 -20 -20 -20 -20 -20 -20 -20 -20 -20 -20 -20 -20 -20 -20 -20 -20 -20 -20 -20 -20 -20 -20 -20 -20 -20 -20 -20 -20 -20 -20 -20 -20 -20 -20
-20 -20 -20 -20 -20 -20 -20 -20 -20 -20 -20 -20 -20 -20 -20 -20 -20 -20 -20 -20 -20 -20 -20 -20 -20 -20 -20 -20 -20 -20 -20 -20 -20 -20 -20 -20 -20 -20 -20 -20 -20 -20 -20
-20 -20 -20 -20 -20 -20 -20 -20 -20 -20 -20 -20 -20 -20 -20 -20 -20 -20 -20 -20 -20 -20 -20 -20 -20 -20 -20 -20 -20 -20 -20 -20 -20 -20 -20 -20 -20 -20 -20 -20 -20 -20 -20
-20 -20 -20 0 -20 -20 -20 -20 -20 -20 -20 -20 -20 -20 -20 -20 -20 -20 -20 -20 -20 -20 -20 -20 -20 -20 -20 -20 -20 -20 -20 -20 -20 -20 -20 -20 -20 -20 -20 -20 -20 -20 -20
-3 -16 27 26 -15 -20 -20 -20 -20 -20 -20 -20 -20 -20 -20 -20 -20 -20 -20 -20 -20 -20 -20 -20 -20 -20 -20 -20 -20 -20 -20 -20 -20 -20 -20 -20 -20 -20 -20 -20 -20 -20 -20
6 -18 23 20 -11 16 -20 -20 -20 -20 -20 -20 -20 -20 -20 -20 -20 -20 -20 -20 -20 -20 -20 -20 -20 -20 -20 -20 -20 -20 -20 -20 -20 -20 -20 -20 -20 -20 -20 -20 -20 -20 -20
19 22 -16 -16 -20 -20 -20 -17 -20 -20 -20 -20 -20 -20 -20 -20 -20 -20 -20 -20 -20 -20 -20 -20 -20 -20 -20 -20 -20 -20 -20 -20 -20 -20 -20 -20 -20 -20 -20 -20 -20 -20 -20
8 19 8 9 -20 22 -20 22 17 -9 -7 -20 -20 6 -17 -20 -20 -20 -20 -20 -20 -20 -20 -20 -20 -20 -20 -20 -20 -20 -20 -20 -20 -20 -20 -20 -20 -20 -20 -20 -20 -20 -20
-20 -20 13 -4 -7 -3 22 24 20 17 15 17 17 11 -17 -10 -20 -17 -18 -20 -20 -19 -20 -20 -20 -20 -20 -20 -20 -20 -20 -20 -20 -20 -20 -20 -20 -20 -20 -20 -20 -20 -20
-20 17 13 16 24 23 22 21 22 21 17 17 11 12 -7 -13 30 -6 11 7 -10 -1 -20 -14 -20 -20 -20 -20 -20 -20 -20 -20 -20 -20 -20 -20 -20 -20 -20 -20 -20 -20 -20
-20 -20 6 13 19 22 26 24 21 21 3 -20 -18 -20 -20 -9 -20 8 10 28 7 -6 -19 -20 3 -20 -20 -20 -20 -20 -20 -20 -20 -20 -20 -20 -20 -20 -20 -20 -20 -20 -0
-20 -20 -20 -10 13 20 20 25 20 8 4 8 7 -20 -8 -9 -20 23 8 -2 2 13 -10 6 5 8 3 -20 -20 -20 -20 -20 -20 -20 -20 -20 -20 -20 -20 -14 -10 -20 -20
-20 -20 -20 -20 -20 15 18 19 26 39 4 -8 -20 -20 17 14 16 18 4 26 26 33 10 14 7 -4 -15 -5 -20 -20 -20 -20 -20 -20 -20 -20 -20 -15 -4 -2 -13 -20 -20
-20 -20 -20 -20 -20 -20 18 17 23 19 25 -11 -20 13 22 25 30 30 20 11 25 24 18 15 28 22 15 -8 -20 -20 -20 -20 -20 -20 -20 -20 -20 -20 -20 -18 -4 -2 2
-20 -20 -9 -14 -20 -20 3 1 4 17 23 -1 4 22 40 17 19 17 17 2 26 28 27 21 8 6 -3 9 -20 -20 -20 -20 -20 -20 -20 -20 -20 -20 -20 -20 -20 -8 -20
-20 -20 -19 -19 -20 -20 -20 -20 9 0 0 -2 15 4 11 24 22 32 26 19 25 24 26 18 12 15 -1 -20 -20 -20 -20 -20 -20 -20 -20 -20 -20 -20 -20 -20 -20 -20 -20
-1 17 11 -8 -20 -19 12 -11 -7 -20 18 23 36 27 31 40 31 31 12 7 17 19 21 18 9 -15 -19 -12 -20 -20 -20 -20 -20 -20 -20 -20 -20 -20 -20 -20 -20 -20 -20
21 12 13 9 13 8 18 21 30 25 27 34 35 27 15 27 15 16 23 25 28 15 3 -2 4 -5 -20 -20 -20 -20 -20 -20 -1 -20 -20 -20 -20 -20 -20 -20 -20 -20 -20
-10 16 -13 2 14 7 15 33 26 -0 -1 22 15 5 -6 -1 8 9 11 -6 -9 6 12 -1 -14 -20 -20 -20 -20 -20 -12 6 -1 -20 -20 -20 -20 -20 -20 -20 -20 -20 -20
4 7 8 23 26 32 27 19 9 -6 3 2 8 18 16 6 1 2 10 14 10 -0 -20 -20 -20 -20 -20 -20 3 -14 7 -9 -20 -20 -20 -20 -20 -20 -20 -20 -20 -20 -20
14 16 35 31 35 33 33 28 18 20 12 14 14 6 10 -5 0 -13 -16 -20 -20 -20 -20 -20 -20 -18 -16 -16 -17 -20 -20 -20 -20 -20 -20 -20 -20 -20 -20 -20 -20 -20 -20
30 39 36 31 38 30 16 14 11 0 4 9 6 6 -4 -20 -20 -20 -1 -20 -20 -20 -20 -20 -20 -20 -20 -20 -20 -20 -20 -20 -16 -20 -20 -20 -20 -20 -20 -20 -20 -20 -20

GFSMA_prec_radar_030.txt.gz
Reflectivity
-20 -20 -11 11 7 -3 -20 -20 -20 -20 -20 -20 -20 -20 -20 -20 -20 -20 -20 -20 -20 -20 -20 -20 -20 -20 -20 -20 -20 -20 -20 -20 -20 -20 -20 -20 -20 -20 -20 -20 -20 -20 -20
-20 -20 7 -2 11 -20 -20 -20 -20 -20 -20 -20 -20 -20 -20 -20 -20 -20 -20 -20 -20 -20 -20 -20 -20 -20 -20 -20 -20 -20 -20 -20 -20 -20 -20 -20 -20 -20 -20 -20 -20 -20 -20
-20 -20 -3 -8 2 -20 -20 -20 -20 -20 -20 -20 -20 -20 -20 -20 -20 -20 -20 -20 -20 -20 -20 -20 -20 -20 -20 -20 -20 -20 -20 -20 -20 -20 -20 -20 -20 -20 -20 -20 -20 -20 -20
-20 -20 -13 -7 2 2 -20 -20 -20 -20 -20 -20 -20 -20 -20 -20 -20 -20 -20 -20 -20 -20 -20 -20 -20 -20 -20 -20 -20 -20 -20 -20 -20 -20 -20 -20 -20 -20 -20 -20 -20 -20 -20
-20 4 -20 -14 1 -20 -20 -20 -20 -20 -20 -20 -20 -20 -20 -20 -20 -20 -20 -20 -20 -20 -20 -20 -20 -20 -20 -20 -20 -20 -20 -20 -20 -20 -20 -20 -20 -20 -20 -20 -20 -20 -20
-20 -20 -20 -20 -5 -20 -20 -20 -20 -20 -20 -20 -20 -20 -20 -20 -20 -20 -20 -20 -20 -20 -20 -20 -20 -20 -20 -20 -20 -20 -20 -20 -20 -20 -20 -20 -20 -20 -20 -20 -20 -20 -20
-20 -20 -20 -20 -20 -20 -20 -20 -20 -20 -20 -20 -20 -20 -20 -20 -20 -20 -20 -20 -20 -20 -20 -20 -20 -20 -20 -20 -20 -20 -20 -20 -20 -20 -20 -20 -20 -20 -20 -20 -20 -20 -20
-20 -20 23 -20 -14 7 -20 -20 -20 -20 -20 -20 -20 -20 -20 -20 -20 -20 -20 -20 -20 -20 -20 -20 -20 -20 -20 -20 -20 -20 -20 -20 -20 -20 -20 -20 -20 -20 -20 -20 -20 -20 -20
-20 -20 3 -9 -15 -20 -20 -20 -20 -20 -20 -20 -20 -20 -20 -20 -20 -20 -20 -20 -20 -20 -20 -20 -20 -20 -20 -20 -20 -20 -20 -20 -20 -20 -20 -20 -20 -20 -20 -20 -20 -20 -20
-6 -20 -14 19 18 17 -20 -20 -20 -20 -20 -20 -20 -20 -20 -20 -20 -20 -20 -20 -20 -20 -20 -20 -20 -20 -20 -20 -20 -20 -20 -20 -20 -20 -20 -20 -20 -20 -20 -20 -20 -20 -20
-20 -0 -7 23 -12 -20 8 21 18 -20 -20 -20 -20 -20 -20 -20 -3 -20 -20 -17 -20 -20 -20 -20 -20 -20 -20 -20 -20 -20 -20 -20 -20 -20 -20 -20 -20 -20 -20 -20 -20 -20 -20
-3 12 7 4 21 22 10 -20 20 24 -10 -20 -20 -20 1 -19 -20 5 0 -3 -20 -20 -20 -20 -20 -20 -20 -20 -20 -20 -20 -20 -20 -20 -20 -20 -20 -20 -20 -20 -20 -20 -20
-20 -18 -7 4 10 18 21 24 2 23 22 12 -20 4 7 -1 -20 -11 23 -19 -6 4 -20 -20 -20 -20 -20 -20 -20 -20 -20 -20 -20 -20 -20 -20 -20 -20 -20 -20 -20 -20 -20
-17 -20 -20 -20 -20 13 22 23 24 24 21 21 32 25 2 3 25 28 -12 -20 19 -9 -16 -20 -19 1 -19 -20 -20 -20 -20 -20 -20 -20 -20 -20 -20 -20 -20 -20 -20 -20 -20
-11 -9 -11 -20 -20 3 17 11 22 25 25 23 21 12 -3 11 6 -15 -20 -3 -15 3 8 4 14 -20 -20 -20 -20 -20 -20 -20 -20 -20 -20 -20 -20 -20 -20 -20 -20 -20 -20
-20 -20 -20 -20 -20 15 15 5 18 19 24 24 20 19 35 27 16 -12 1 9 19 3 -1 19 18 -7 -6 -7 4 16 -13 -20 -20 -20 -20 -20 -20 -20 -20 -20 -20 -20 -20
-20 -20 -20 -20 -20 -20 13 15 16 17 18 -6 7 26 42 40 25 20 -18 -4 8 24 27 21 31 19 7 14 16 11 16 5 -20 -20 -14 -20 -20 -20 -20 -18 -9 -4 -20
-20 -20 -20 -20 -20 -19 -20 1 10 23 15 18 16 9 28 41 23 4 8 1 32 29 35 31 35 19 13 18 21 26 19 18 11 8 -20 -20 -20 -20 -20 -20 -20 -19 -20
11 -18 -20 -20 -20 10 -20 -9 14 18 18 6 7 19 31 24 37 36 20 1 28 34 23 26 22 16 -14 -16 16 23 16 10 -11 -20 -20 -20 -20 -20 -20 -20 -20 -20 -20
-6 -19 -17 -20 -20 -15 10 -20 -20 -20 -4 -3 9 20 15 32 20 21 29 23 28 30 33 20 6 -18 -6 5 8 -5 -13 -20 -20 -17 -19 -20 -20 -20 -20 -20 -20 -20 -20
-20 -20 -20 7 -20 -14 -8 -2 1 -10 2 7 -1 -0 16 18 26 31 36 29 12 15 10 -1 -6 -8 -20 -20 -20 -14 -16 -14 -18 -20 -20 -20 -20 -20 -20 -20 -20 -20 -20
-17 -7 20 -20 -20 -20 13 14 8 6 -2 11 -7 13 25 31 32 32 23 -7 10 1 -1 -6 -8 -20 -20 -20 -20 -20 -20 -20 -20 -20 -20 -20 -20 -20 -20 -20 -20 -20 -20
6 5 -20 -18 -5 2 12 10 12 -5 -6 31 24 -3 -20 -6 3 -4 -10 -14 -7 -5 -20 -15 -13 -20 -20 -20 -16 1 -1 1 -5 -20 -20 -20 -20 -20 -20 -20 -20 -20 -20
2 -20 -1 17 4 22 18 8 5 16 24 8 0 -16 -20 -20 -13 -9 -5 -8 -7 -12 -18 -20 -20 -20 -20 -20 -5 1 2 -11 -20 -20 -20 -13 -20 -20 -20 -20 -20 -20 -20
5 9 8 -0 -4 28 31 23 24 12 16 15 -5 -11 -4 -7 -15 -12 -20 -20 -20 -20 -20 -20 -20 -20 -20 -20 -20 -20 -20 -4 -9 -20 -20 -20 -20 -20 -20 -20 -20 -20 -20
-1 -1 18 24 29 32 33 36 26 22 0 -20 -20 -17 -6 -10 -14 -11 -19 -7 -20 -20 -20 -20 -20 -20 -20 -20 -20 -20 -20 -4 -4 -11 -20 -20 -20 -20 -20 -20 -20 -20 -20

GFSMA_prec_radar_033.txt.gz
Reflectivity
-4 6 10 -1 -10 -20 -20 -20 -20 -20 -20 -20 -20 -20 -20 -20 -20 -20 -20 -20 -20 -20 -20 -20 -20 -20 -20 -20 -20 -20 -20 -20 -20 -20 -20 -20 -20 -20 -20 -20 -20 -20 -20
-20 -20 -16 -3 5 -3 -20 -20 -20 -20 -20 -20 -20 -20 -20 -20 -20 -20 -20 -20 -20 -20 -20 -20 -20 -20 -20 -20 -20 -20 -20 -20 -20 -20 -20 -20 -20 -20 -20 -20 -20 -20 -20
-20 -20 -20 -20 -15 9 -20 -20 -20 -20 -20 -20 -20 -20 -20 -20 -20 -20 -20 -20 -20 -20 -20 -20 -20 -20 -20 -20 -20 -20 -20 -20 -20 -20 -20 -20 -20 -20 -20 -20 -20 -20 -20
-20 -20 -20 -20 -20 9 -1 -20 -20 -20 -20 -20 -20 -20 -20 -20 -20 -20 -20 -20 -20 -20 -20 -20 -20 -20 -20 -20 -20 -20 -20 -20 -20 -20 -20 -20 -20 -20 -20 -20 -20 -20 -20
-20 -20 -20 -20 -20 -19 -5 -20 -20 -20 -20 -20 -20 -20 -20 -20 -20 -20 -20 -20 -20 -20 -20 -20 -20 -20 -20 -20 -20 -20 -20 -20 -20 -20 -20 -20 -20 -20 -20 -20 -20 -20 -20
-20 -20 -20 -20 -20 -17 -3 -20 -20 -20 -20 -20 -20 -20 -20 -20 -20 -20 -20 -20 -20 -20 -20 -20 -20 -20 -20 -20 -20 -20 -20 -20 -20 -20 -20 -20 -20 -20 -20 -20 -20 -20 -20
-20 -20 -20 -20 -20 -20 -20 -20 -20 -20 -20 -20 -20 -20 -20 -20 -20 -20 -20 -20 -20 -20 -20 -20 -20 -20 -20 -20 -20 -20 -20 -20 -20 -20 -20 -20 -20 -20 -20 -20 -20 -20 -20
-20 -20 -20 -20 -20 -20 -20 -20 -20 -20 -20 -20 -20 -20 -20 -20 -20 -20 -20 -20 -20 -20 -20 -20 -20 -20 -20 -20 -20 -20 -20 -20 -20 -20 -20 -20 -20 -20 -20 -20 -20 -20 -20
-20 -20 -16 -7 -18 -20 -20 4 -20 -4 -20 -20 -20 -20 -20 -20 -20 -20 -20 -20 -20 -20 -20 -20 -20 -20 -20 -20 -20 -20 -20 -20 -20 -20 -20 -20 -20 -20 -20 -20 -20 -20 -20
-12 -1 -16 5 9 -20 -17 14 -20 -15 -16 15 13 -20 -20 -20 -20 -20 -20 -20 -20 -9 -20 -20 -20 -20 -20 -20 -20 -20 -20 -20 -20 -20 -20 -20 -20 -20 -20 -20 -20 -20 -20
-20 -20 -6 -14 20 -20 26 20 -20 -20 23 -10 15 6 -20 -20 -20 -20 -20 -20 -19 1 -5 -5 -20 -20 -20 -20 -20 -20 -20 -20 -20 -20 -20 -20 -20 -20 -20 -20 -20 -20 -20
5 -20 9 5 -2 8 -19 -12 20 -20 21 18 13 7 0 2 -10 -20 -20 -20 9 2 1 3 11 -20 -8 -7 -20 -20 -20 -20 -20 -20 -20 -20 -20 -20 -20 -20 -20 -20 -20
-17 -20 -9 8 3 12 14 13 3 1 -5 20 21 22 11 10 -3 -9 14 -19 -20 -20 -19 -5 -8 -4 -15 -20 -20 -20 -20 -20 -20 -20 -20 -20 -20 -20 -20 -20 -20 -20 -20
-20 -20 -9 -0 -0 3 1 5 17 15 16 13 23 25 22 20 17 14 35 36 8 -6 3 15 -20 -0 3 -20 -20 -20 -20 -20 -20 -20 -20 -20 -20 -20 -20 -20 -20 -20 -20
-20 -20 6 9 -15 -4 13 -19 10 20 19 20 18 23 21 19 20 -11 -12 21 19 26 41 -3 3 -0 -5 28 -19 -15 -20 -19 -17 -2 -15 -20 -20 -20 -20 -20 -20 -20 -20
-20 -20 -5 -7 19 9 18 16 20 -8 21 19 21 22 22 24 22 14 11 20 27 30 37 26 28 30 -15 20 29 21 29 13 -20 -11 -4 6 -9 -14 -20 -20 -20 -20 -20
-20 -20 -19 -20 -20 -9 12 19 18 22 23 20 23 21 -3 15 29 33 36 31 42 40 34 40 36 15 18 31 33 22 17 -11 -10 -17 -20 -20 -20 -19 -4 -16 -20 -20 -20
-20 -20 -20 -20 -20 -16 -20 -3 3 10 20 22 22 25 9 20 17 6 25 35 20 34 33 38 21 12 22 17 14 -15 -20 -20 -20 -20 -20 -20 -20 -20 -20 -20 -20 -20 -20
-20 -20 -20 -20 -2 8 1 -4 -20 7 20 1 18 18 16 8 18 -1 4 21 36 25 27 39 20 9 16 -0 -10 -7 -20 -20 -20 -20 -20 -20 -20 -20 -20 -20 -20 -20 -20
-20 -20 -17 2 7 4 -15 -20 -20 -12 -6 -0 15 13 17 18 -11 17 37 26 31 19 10 5 14 23 15 -9 -17 -20 -20 -20 -20 -20 -20 -20 -20 -20 -20 -20 -20 -20 -20
-20 -20 -20 -20 -20 -20 -20 0 -20 -20 -20 -9 4 17 17 22 14 6 9 -9 6 20 23 16 13 12 9 -3 -20 -20 -20 -20 -20 -20 -20 -20 -20 -20 -20 -20 -20 -20 -20
-20 -19 8 3 0 -3 15 10 -19 11 -20 5 3 4 30 21 14 14 9 -2 -5 -17 -18 -2 -20 -20 -20 -20 -20 -20 -20 -20 -20 -20 -20 -20 -20 -20 -20 -20 -20 -20 -20
-20 1 10 4 8 9 10 -1 1 -20 -5 8 19 15 14 18 9 -19 -13 1 -18 -10 -8 -18 -20 -20 -20 -20 -20 -20 -20 -16 -20 -20 -20 -20 -20 -20 -20 -20 -20 -20 -20
-18 -12 -7 -9 0 15 12 12 16 -9 11 2 3 -9 11 14 1 -13 -20 -20 -20 -20 -20 -20 -20 -20 -20 -20 -20 -20 -15 -20 -20 -20 -20 -20 -20 -20 -20 -20 -20 -20 -20
9 -20 -10 -18 -12 3 11 7 8 21 14 -9 -4 13 13 2 -20 -20 -20 -20 -20 -20 -20 -20 -20 -20 -20 -20 -20 -20 -20 -20 -20 -20 -20 -20 -20 -20 -20 -20 -20 -20 -20
-20 -20 -20 -20 -7 -20 -4 13 16 16 13 12 7 -20 -20 -20 -20 -20 -20 -20 -20 -20 -20 -20 -20 -20 -20 -20 -20 -20 -20 -20 -10 -19 -20 -20 -20 -20 -20 -20 -20 -20 -20

GFSMA_prec_radar_036.txt.gz
Reflectivity
-20 -20 -20 -20 -20 -20 -20 -20 -20 -20 -20 -20 -20 -20 -20 -20 -20 -20 -20 -20 -20 -20 -20 -20 -20 -20 -20 -20 -20 -20 -20 -20 -20 -20 -20 -20 -20 -20 -20 -20 -20 -20 -20
-20 -20 -20 -20 -20 -20 -20 -20 -20 -20 -20 -20 -20 -20 -20 -20 -20 -20 -20 -20 -20 -20 -20 -20 -20 -20 -20 -20 -20 -20 -20 -20 -20 -20 -20 -20 -20 -20 -20 -20 -20 -20 -20
-20 -20 -20 -20 -20 -20 -20 -15 -20 -20 -20 -20 -20 -20 -20 -20 -20 -20 -20 -20 -20 -20 -20 -20 -20 -20 -20 -20 -20 -20 -20 -20 -20 -20 -20 -20 -20 -20 -20 -20 -20 -20 -20
-20 -20 -20 -20 -20 -20 -19 -18 -20 -20 -20 -20 -20 -20 -20 -20 -20 -20 -20 -20 -20 -20 -20 -20 -20 -20 -20 -20 -20 -20 -20 -20 -20 -20 -20 -20 -20 -20 -20 -20 -20 -20 -20
-20 -20 -20 -20 -20 -20 -19 -11 -20 -20 -20 -20 -20 -20 -20 -20 -20 -20 -20 -20 -20 -20 -20 -20 -20 -20 -20 -20 -20 -20 -20 -20 -20 -20 -20 -20 -20 -20 -20 -20 -20 -20 -20
-20 -20 -20 -20 -20 -20 -20 -20 -20 -20 -20 -20 -20 -20 -20 -20 -20 -20 -20 -20 -20 -20 -20 -20 -20 -20 -20 -20 -20 -20 -20 -20 -20 -20 -20 -20 -20 -20 -20 -20 -20 -20 -20
-20 29 -20 -20 -20 -20 -20 -20 -20 -20 -20 -20 -20 -20 -20 -20 -20 -20 -20 -20 -20 -20 -20 -20 -20 -20 -20 -20 -20 -20 -20 -20 -20 -20 -20 -20 -20 -20 -20 -20 -20 -20 -20
-12 -1 22 -5 -12 -20 -20 -20 -20 -20 -20 -20 -20 -20 -20 -20 -20 -20 -20 -20 -20 -20 -20 -20 -20 -20 -20 -20 -20 -20 -20 -20 -20 -20 -20 -20 -20 -20 -20 -20 -20 -20 -20
-1 -20 -2 23 -13 5 -20 20 -20 -20 -20 -16 -20 -6 -20 -20 -20 -20 -20 -20 -20 -20 -20 -20 -20 -20 -19 9 -20 -20 -20 -20 -20 -20 -20 -20 -20 -20 -20 -20 -20 -20 -20
-20 -20 18 22 25 2 -20 -16 20 24 -4 -13 -18 -16 -6 -20 -20 -20 -20 -20 -20 -20 -20 -20 -20 -20 -20 -11 -19 -20 -18 -20 -20 -20 -20 -20 -20 -20 -20 -20 -20 -20 -20
-20 -20 -20 -20 21 26 14 21 -10 25 18 -20 21 18 12 2 4 -0 -20 1 23 13 -5 -20 -20 -20 -20 -19 4 -18 -3 -8 -20 -20 -20 -20 -20 -20 -20 -20 -20 -20 -20
-5 6 -13 3 20 17 22 22 23 25 15 21 -20 16 17 18 17 13 10 -10 10 18 -7 -20 -20 -5 -3 -20 -8 -17 8 23 -2 -20 -20 -20 -20 -20 -20 -20 -20 -20 -20
-10 -20 16 -9 16 13 7 20 25 19 25 14 -6 0 18 18 16 20 25 8 -4 -20 -20 -17 -20 -19 -20 -10 -3 18 24 26 7 10 -20 -17 -20 -20 -20 -20 -20 -20 -20
-20 -20 -20 -20 4 15 15 15 19 20 23 23 16 12 18 17 22 24 22 19 24 12 -10 -19 34 29 16 23 18 25 14 32 5 20 13 -20 -1 -20 -20 -20 -20 -20 -20
-20 -20 -20 -20 6 8 15 15 16 13 6 -2 8 18 13 18 21 18 23 19 15 20 33 -15 -20 -15 20 31 35 34 37 28 23 33 28 18 14 -19 -20 -20 -20 -20 -20
-20 -20 -20 -20 -20 -4 12 16 21 19 6 11 17 16 20 21 15 18 14 22 19 27 36 32 24 37 36 34 38 34 31 23 21 21 15 5 -19 -20 -20 -20 -20 -20 -20
-20 -20 -20 -20 -20 -20 -20 -20 -19 -16 5 19 21 26 23 16 21 18 12 13 33 24 40 36 29 37 36 31 35 34 30 17 12 24 1 -20 -20 -20 -20 -20 -20 -20 -20
-20 -20 -20 -20 -20 -20 -20 -20 -20 -20 2 -0 -7 20 17 7 17 14 21 22 20 29 22 31 35 33 36 30 28 23 17 8 -8 -19 -20 -20 -20 -20 -20 -20 -20 -20 -20
-20 -20 -20 -20 -20 -20 -20 -20 -4 7 -11 1 8 -6 13 16 17 21 18 19 17 -1 34 29 31 31 27 20 16 12 -3 -6 -3 -20 -20 -20 -20 -20 -20 -20 -20 -20 -19
-20 -20 -20 -20 -20 -20 -20 -20 -20 -20 -20 -16 -13 4 11 4 -3 -3 39 40 27 1 12 12 -2 11 7 -3 -16 -20 -20 -20 -20 -20 -20 -20 -20 -20 -20 -20 -20 -20 -20
-20 -20 -20 -20 -20 -20 -20 -20 -20 -20 -20 -20 -14 -3 -5 6 14 4 18 25 -10 -20 -20 -20 -20 -20 -20 -20 -20 -20 -20 -20 -20 -20 -20 -20 -20 -20 -20 -20 -20 -20 -20
-20 -20 -20 -20 -20 -20 8 7 6 -3 8 -13 -20 -19 -4 27 13 12 17 6 10 -15 -20 -20 -20 -20 -20 -20 -20 -20 -20 -20 -20 -20 -20 -20 -20 -20 -20 -20 -20 -20 -20
-20 -20 -4 -20 -20 -6 5 6 11 -19 -18 -3 11 6 18 16 15 -16 11 11 5 -5 -12 -20 -20 -20 -20 -20 -20 -20 -20 -20 -20 -20 -20 -20 -20 -20 -20 -20 -20 -20 -20
-14 -20 -20 -20 -20 7 4 6 8 -20 -20 -19 -7 6 -1 -15 -3 9 18 -6 -19 -20 -20 -20 -20 -20 -20 -20 -20 -20 -20 -20 -20 -20 -20 -20 -20 -20 -20 -20 -20 -20 -20
-20 -20 -20 -20 -20 -2 4 -19 -20 -20 -20 -11 2 -18 -20 -20 -17 -20 -20 -20 -20 -20 -20 -20 -20 -20 -20 -20 -20 -20 -20 -20 -20 -20 -20 -20 -20 -20 -20 -20 -20 -20 -20
-20 -20 -20 -20 -20 -20 -20 -20 -20 -20 -20 -20 -20 -11 -13 -15 -20 -20 -20 -20 -20 -20 -20 -20 -20 -20 -20 -20 -20 -20 -20 -20 -20 -20 -20 -20 -20 -20 -20 -20 -20 -20 -20

GFSMA_prec_radar_039.txt.gz
Reflectivity
-20 -20 -20 -20 -20 -20 -20 -20 -20 -20 -20 -20 -20 -20 -20 -20 -20 -20 -20 -20 -20 -20 -20 -20 -20 -20 -20 -20 -20 -20 -20 -20 -20 -20 -20 -20 -20 -20 -20 -20 -20 -20 -20
-20 -20 -20 -20 -20 -20 -20 -20 -20 -20 -20 -20 -20 -20 -20 -20 -20 -20 -20 -20 -20 -20 -20 -20 -20 -20 -20 -20 -20 -20 -20 -20 -20 -20 -20 -20 -20 -20 -20 -20 -20 -20 -20
-20 -20 -20 -20 -20 -20 -20 -20 -20 -20 -20 -20 -20 -20 -20 -20 -20 -20 -20 -20 -20 -20 -20 -20 -20 -20 -20 -20 -20 -20 -20 -20 -20 -20 -20 -20 -20 -20 -20 -20 -20 -20 -20
-20 -20 -20 -20 -20 -20 -20 -20 -20 -20 -20 -20 -20 -20 -20 -20 -20 -20 -20 -20 -20 -20 -20 -20 -20 -20 -20 -20 -20 -20 -20 -20 -20 -20 -20 -20 -20 -20 -20 -20 -20 -20 -20
-20 -20 -20 -20 -20 -20 -20 -20 -20 -20 -20 -20 -20 -20 -20 -20 -20 -20 -20 -20 -20 -20 -20 -20 -20 -20 -20 -20 -20 -20 -20 -20 -20 -20 -20 -20 -20 -20 -20 -20 -20 -20 -20
-20 -20 -20 -20 -20 -20 -20 -20 -20 -20 -20 -20 -20 -20 -20 -20 -20 -20 -20 -20 -20 -20 -20 -20 -20 -20 -20 -20 -20 -20 -20 -20 -20 -20 -20 -20 -20 -20 -20 -20 -20 -20 -20
-20 -20 -20 -20 -20 -20 -20 -20 -20 -20 -20 -20 -20 -20 -20 -20 -20 -20 -20 -20 -20 -20 -20 -20 -20 -20 -20 -20 -20 -20 -20 -20 -20 -20 -17 -20 -20 -20 -20 -20 -20 -20 -20
-7 -10 -20 1 14 -20 -20 -11 -20 -18 -20 -20 -20 5 -20 -20 -20 -20 -20 -20 -20 -20 -20 -20 -20 -20 -20 -20 -20 -20 -20 -20 -20 -18 -20 -20 -20 -20 -20 -20 -20 -20 -20
-20 -20 -20 -20 -2 19 -20 20 3 23 20 -13 -20 25 -20 -20 -20 -20 -20 -20 -20 -20 -20 -20 -20 -20 -20 -20 -20 -18 -20 -13 -20 -20 -20 -20 -20 -20 -20 -20 -20 -20 -20
-20 -20 -20 -20 -18 13 26 12 18 12 6 19 17 -13 -2 -20 -20 -20 -20 -15 15 -16 -20 -20 -20 -18 -3 8 -20 -8 -20 -2 -6 -20 -20 -20 -20 -20 -20 -20 -20 -20 -20
-5 -0 -20 -19 -20 28 22 16 15 19 25 10 22 -10 -17 19 -20 -20 -20 18 11 11 2 22 -8 -7 -17 17 21 -5 -20 -12 -20 -19 -20 -20 -20 -17 -20 -20 -20 -20 -20
-20 -5 3 13 17 12 18 24 19 18 20 26 24 25 12 22 18 12 -20 0 20 17 12 5 22 27 6 -13 -20 -20 -15 21 12 23 -5 -17 18 13 -16 -20 -7 -20 -20
-20 -20 -20 -2 -20 13 6 8 6 4 22 10 21 20 22 24 31 19 21 16 5 12 8 1 40 19 2 22 20 10 17 24 27 -3 19 30 31 20 -4 -13 1 -7 -8
-20 -20 -20 -20 -16 -20 -20 -20 0 -8 -14 -4 19 19 7 34 30 18 27 25 16 12 -0 -4 31 15 30 26 13 20 29 37 18 26 32 36 27 28 18 7 2 -19 -20
-20 -20 -20 -20 -20 -20 -20 6 8 2 0 -10 13 -20 -20 -13 -12 19 16 21 19 18 19 -3 24 32 36 33 39 35 25 31 36 35 38 39 32 20 19 10 -9 -12 -20
-20 -20 -20 -20 -20 -20 -20 -20 -20 -20 -20 -11 -5 14 -6 -18 24 27 17 21 21 19 4 26 24 23 36 37 30 33 38 37 36 33 35 30 23 5 -3 -16 -20 -20 -20
-20 -20 -20 -20 -20 -20 -20 -20 -20 -20 -20 -20 -20 -20 -19 -17 -20 15 27 22 17 22 22 18 27 22 22 38 33 31 36 25 25 26 19 16 -3 -10 -20 -20 -20 -20 -20
-20 -20 -20 -20 -20 -20 -20 -20 -20 -20 -20 -20 -20 -20 -20 -20 8 -7 30 19 33 24 33 26 9 36 33 28 25 21 23 21 21 16 6 2 1 -7 -20 -20 -20 -20 -20
-20 -20 -20 -20 -20 -20 -20 -20 -20 -20 -20 -20 -20 -20 -20 -20 -20 -18 -1 15 16 29 22 25 20 30 31 29 26 23 16 17 7 7 -5 -20 -20 -20 -20 -20 -20 -20 -20
-20 -20 -20 -20 -20 -20 -20 -20 -20 -20 -20 -20 -20 -20 -20 -20 -8 2 6 -4 -17 18 24 41 32 34 32 18 5 -2 -9 -20 -20 -20 -20 -20 -20 -20 -20 -20 -20 -20 -20
-20 -20 -20 -20 -20 -20 -20 -20 -20 -20 -20 -20 -20 -1 11 -5 -12 -5 16 -6 10 0 8 25 16 6 -12 -11 -17 -20 -20 -20 -20 -20 -20 -20 -20 -20 -20 -20 -20 -20 -20
-20 -20 -20 -20 -20 -20 -5 -17 -20 -20 -20 -16 -6 -17 -20 11 10 19 22 13 12 8 -2 -6 -6 -15 -20 -20 -20 -20 -20 -20 -20 -20 -20 -20 -20 -20 -20 -20 -20 -20 -20
-20 -20 -20 -20 -20 -19 -3 -16 -20 -20 -20 -20 -20 -18 -5 16 14 16 15 14 14 13 16 -13 -20 -20 -20 -20 -20 -20 -20 -20 -20 -20 -20 -20 -20 -20 -20 -20 -20 -20 -20
-20 -20 -20 -20 -20 2 5 -15 -15 -20 -20 -20 -20 -20 -20 -20 -19 -7 -10 -17 -20 -20 -20 -20 -20 -20 -20 -20 -20 -20 -20 -20 -20 -20 -20 -20 -20 -20 -20 -20 -20 -20 -20
-20 -20 -20 -20 -20 -20 -19 -20 -20 -20 -20 -20 -20 -20 -20 -20 -20 -20 -20 -20 -20 -20 -20 -20 -20 -20 -20 -20 -20 -20 -20 -20 -20 -20 -20 -20 -20 -20 -20 -20 -20 -20 -20
-20 -20 -20 -20 -20 -20 -20 -20 -20 -20 -20 -20 -20 -20 -20 -20 -20 -20 -20 -20 -20 -20 -20 -20 -20 -20 -20 -20 -20 -20 -20 -20 -20 -20 -20 -20 -20 -20 -20 -20 -20 -20 -20

GFSMA_prec_radar_042.txt.gz
Reflectivity
-20 -20 -20 -20 -20 -20 -20 -20 -20 -20 -20 -20 -20 -20 -20 -20 -20 -20 -20 -20 -20 -20 -20 -20 -20 -20 -20 -20 -20 -20 -20 -20 -20 -20 -20 -20 -20 -20 -20 -20 -20 -20 -20
-20 -20 -20 -20 -20 -20 -20 -20 -20 -20 -20 -20 -20 -20 -20 -20 -20 -20 -20 -20 -20 -20 -20 -20 -20 -20 -20 -20 -20 -20 -20 -20 -20 -20 -20 -20 -20 -20 -20 -20 -20 -20 -20
-20 -20 -20 -20 -20 -20 -20 -20 -20 -20 -20 -20 -20 -20 -20 -20 -20 -20 -20 -20 -20 -20 -20 -20 -20 -20 -20 -20 -20 -20 -20 -20 -20 -20 -20 -20 -20 -20 -20 -20 -20 -20 -20
-20 -20 -20 -20 -20 -20 -20 -20 -20 -20 -20 -20 -20 -20 -20 -20 -20 -20 -20 -20 -20 -20 -20 -20 -20 -20 -20 -20 -20 -20 -20 -20 -20 -20 -20 -20 -20 -20 -20 -20 -20 -20 -20
-20 -20 -20 -20 -20 -20 -20 -20 -20 -20 -20 -20 -20 -20 -20 -20 -20 -20 -20 -20 -20 -20 -20 -20 -20 -20 -20 -20 -20 -20 -20 -20 -20 -20 -20 -20 -20 -20 -20 -20 -20 -20 -20
-20 -20 -20 -20 -20 -20 -20 -20 -20 -20 -20 -20 -20 -20 -20 -20 -20 -20 -20 -20 -20 -20 -20 -20 -20 -20 -20 -20 -20 -20 -20 -20 -20 -20 -20 -20 -20 -20 -20 -20 -20 -20 -20
-8 32 -20 -20 -20 -20 -20 -20 -20 -14 25 -20 -20 -20 -20 -20 -20 -20 -20 -20 -20 -20 -20 -20 -20 -20 -20 -20 -20 -20 -20 -20 -20 -20 -20 -20 -20 -20 -20 -20 -20 -20 -20
-18 -20 -20 -20 -19 -13 -15 18 -20 -20 23 20 22 20 -20 -20 -20 -20 -20 -20 -20 -20 -20 -20 -20 -20 -20 -20 -20 -20 -20 -20 -20 -20 -20 -19 6 -20 -20 -20 -20 -20 -20
-20 0 -2 -12 -20 -20 3 3 -11 3 28 5 -18 19 -20 -20 -20 -20 -20 -20 -20 -20 -20 -5 10 -6 -20 -20 -20 -20 -20 -20 -20 -20 -20 2 -20 -7 -20 -20 -20 -20 -20
-20 -20 -20 -20 -20 -20 -20 -20 -20 16 20 11 22 17 -1 -14 13 -20 -20 -20 -20 -20 -20 -20 -5 -5 -6 -14 14 15 10 -2 -4 6 -18 -20 -20 -8 -20 -20 -20 -20 -20
-20 -20 -20 -20 6 -20 -20 -20 -19 6 11 10 -17 20 19 -19 -18 20 -2 -19 17 17 -7 -20 -20 -14 3 3 33 23 8 20 10 -2 8 -2 -19 19 22 -18 -17 -20 -20
-20 -20 -20 -20 -20 -20 12 -20 -20 -3 -4 -20 23 22 21 23 1 24 8 10 33 37 3 13 -2 -11 0 20 31 32 39 16 -10 5 10 -20 -19 -8 24 29 10 5 12
-20 -20 -20 -20 -20 14 -20 -11 -3 -15 -15 8 -19 -2 -6 -11 -20 7 3 5 20 9 16 30 13 9 -8 32 29 32 34 32 3 1 18 9 -16 11 19 28 34 31 29
-20 -20 -20 -20 -20 -20 -20 -18 -20 -20 -20 -7 12 10 11 -12 -20 -19 -20 -14 10 -15 12 25 36 9 -1 -5 16 37 36 32 35 32 34 25 29 31 29 31 29 32 29
-20 -20 -20 -20 -20 -20 -20 -20 -20 -20 -20 -20 -3 -19 -1 -20 -20 -8 -4 3 23 21 20 9 12 10 15 -2 13 2 9 32 25 29 36 36 36 31 28 30 33 32 28
-20 -20 -20 -20 -20 -20 -20 -20 -20 -20 -20 -20 -20 -13 -20 -20 -20 -19 1 3 -20 -20 -1 21 24 15 10 8 13 19 14 18 27 34 32 27 28 29 29 26 27 27 14
-20 -20 -20 -20 -20 -20 -20 -20 -20 -20 -20 -20 -20 -6 2 3 3 13 13 3 -20 -20 -9 36 32 6 12 21 3 14 21 25 25 15 22 24 26 32 26 17 3 -20 -9
-20 -20 -20 -20 -20 -20 -20 -20 -20 -20 -20 -20 -20 -18 8 -3 -20 1 10 -0 -20 -13 13 32 37 25 3 13 12 31 23 26 30 14 26 23 21 12 -3 3 2 7 -20
-20 -20 -20 -20 -20 -20 -20 -20 -20 -20 -20 -20 -20 -20 -3 11 -4 -20 -20 -20 -19 1 -0 -13 23 29 34 37 24 23 30 34 23 23 2 5 -6 -3 -20 -20 -20 -18 -20
-20 -20 -20 -20 -20 -20 -20 -20 -20 -20 -20 -20 -20 -20 -20 -20 -20 -20 -20 -20 2 2 -9 1 6 17 18 16 19 25 10 20 16 -13 -13 -20 -20 -20 -20 -20 -20 -20 -20
-20 -20 -20 -20 -20 -20 -20 -20 -20 -20 -20 -5 -20 -20 -20 -3 9 -5 -20 -20 20 22 20 1 -17 -5 12 8 1 -9 -19 -20 -20 -20 -20 -20 -20 -20 -20 -20 -20 -20 -20
-20 -20 -20 -20 -20 -20 11 -20 -20 -20 -20 -20 -20 -20 -20 -7 -3 9 2 -1 -3 -20 -17 -12 -20 -20 -20 -20 -20 -20 -20 -20 -20 -20 -20 -20 -20 -20 -20 -20 -20 -20 -20
-20 -20 -20 -20 -20 -20 3 -20 -20 -20 -20 -20 -20 -20 -20 -20 -20 -20 -5 -7 0 2 1 -20 -20 -20 -20 -20 -20 -20 -20 -20 -20 -20 -20 -20 -20 -20 -20 -20 -20 -20 -20
-20 -20 -20 -20 -20 -14 -9 -20 -20 -20 -20 -20 -20 -20 -20 -20 -20 -20 -20 -20 -20 -20 -20 -20 -20 -20 -20 -20 -20 -20 -20 -20 -20 -20 -20 -20 -20 -20 -20 -20 -20 -20 -20
-20 -20 -20 -20 -20 -20 -20 -20 -20 -20 -20 -20 -20 -20 -20 -20 -20 -20 -20 -20 -20 -20 -20 -20 -20 -20 -20 -20 -20 -20 -20 -20 -20 -20 -20 -20 -20 -20 -20 -20 -20 -20 -20
-20 -20 -20 -20 -20 -20 -20 -20 -20 -20 -20 -20 -20 -20 -20 -20 -20 -20 -20 -20 -20 -20 -20 -20 -20 -20 -20 -20 -20 -20 -20 -20 -20 -20 -20 -20 -20 -20 -20 -20 -20 -20 -20

GFSMA_prec_radar_045.txt.gz
Reflectivity
-20 -20 -20 -20 -20 -20 -20 -20 -20 -20 -20 -20 -20 -20 -20 -20 -20 -20 -20 -20 -20 -20 -20 -20 -20 -20 -20 -20 -20 -20 -20 -20 -20 -20 -20 -20 -20 -20 -20 -20 -20 -20 -20
-20 -20 -20 -20 -20 -20 -20 -20 -20 -20 -20 -20 -20 -20 -20 -20 -20 -20 -20 -20 -20 -20 -20 -20 -20 -20 -20 -20 -20 -20 -20 -20 -20 -20 -20 -20 -20 -20 -20 -20 -20 -20 -20
-20 -20 -20 -20 -20 -20 -20 -20 -20 -20 -20 -20 -20 -20 -20 -20 -20 -20 -20 -20 -20 -20 -20 -20 -20 -20 -20 -20 -20 -20 -20 -20 -20 -20 -20 -20 -20 -20 -20 -20 -20 -20 -20
-20 -20 -20 -20 -20 -20 -20 -20 -20 -20 -20 -20 -20 -20 -20 -20 -20 -20 -20 -20 -20 -20 -20 -20 -20 -20 -20 -20 -20 -20 -20 -20 -20 -20 -20 -20 -20 -20 -20 -20 -20 -20 -20
-20 -20 -20 -20 -20 -20 -20 -20 -20 -20 -20 -20 -20 -20 -20 -20 -20 -20 -20 -20 -20 -20 -20 -20 -20 -20 -20 -20 -20 -20 -20 -20 -20 -20 -20 -20 -20 -20 -20 -20 -20 -20 -20
-20 -20 -20 -20 -20 -20 -20 -20 -20 -20 -20 -20 -20 -20 -20 -20 -20 -20 -20 -20 -20 -20 -20 -20 -20 -20 -20 -20 -20 -20 -20 -20 -20 -20 -20 -20 -20 -20 -20 -20 -18 -17 -20
-20 -20 -20 -20 -20 -20 -20 -20 -20 -20 7 -20 25 -20 -20 -20 -20 -20 -20 -20 -20 -20 -20 -20 -20 -20 -20 -20 -20 -20 -20 -20 -20 -20 -20 -20 -20 -20 -20 -20 -20 -20 -20
-10 -20 -20 4 -20 -20 -20 -20 -10 8 -20 -20 27 -5 -20 -20 -20 -20 -20 -20 -20 -20 -20 -20 -20 -16 -3 -15 2 -20 -20 -20 -1 -20 -20 -20 -20 -20 -20 -18 -14 -12 -20
-20 -20 -20 -20 -20 -20 -20 -20 -20 -20 15 -20 -20 2 -20 -20 -20 -20 -20 -20 -20 -20 -20 -2 -20 -20 -17 -20 -10 -5 -20 -20 -20 -20 -20 -20 -17 -2 -5 -18 -17 -3 1
-20 -20 -20 -20 -20 -20 -20 -20 -20 -20 -20 -11 -20 -14 -5 8 -20 -20 -20 -20 -20 -13 -10 30 10 -20 -13 -6 -0 13 28 -8 5 5 -20 -20 -3 -3 -20 -20 2 -10 10
-20 -20 -20 -20 -20 -20 -20 -20 -20 -20 10 -9 -20 14 10 11 13 13 -17 -20 -18 -20 11 -6 -20 -20 19 27 15 19 13 25 35 23 28 7 7 6 -1 -15 -2 7 11
-20 -20 -20 -20 -20 -20 -17 -15 -18 -17 10 15 -20 -20 -17 -20 12 -15 -17 4 -20 -20 -20 -20 -20 7 23 32 28 28 20 31 29 35 37 37 34 12 4 8 11 -2 1
-20 -20 -20 -20 -20 -20 -20 -20 -1 -15 4 -20 -20 -20 -20 -13 -20 -20 -7 -2 -7 -14 -18 -20 -20 -20 -20 -15 18 35 25 27 37 33 30 31 29 38 34 27 25 15 3
-20 -20 -20 -20 -20 -20 -20 -20 -20 -20 -20 -20 -20 -20 -20 -20 -7 6 -6 11 7 15 -20 -20 -20 -20 -20 -20 24 24 38 25 25 28 28 25 17 22 21 26 20 28 35
-20 -20 -20 -20 -20 -20 -20 -20 -20 -20 -17 6 -7 10 7 -10 -7 -17 -1 -15 -16 7 -9 -20 -20 -20 -20 -20 -20 31 35 30 31 20 22 29 23 17 20 24 24 26 27
-20 -20 -20 -20 -20 -20 -20 -20 -20 -20 -20 -0 -12 -9 -1 9 9 7 15 4 10 -5 -10 -13 -20 -20 -18 6 4 20 30 34 31 23 25 17 18 19 24 25 16 18 17
-20 -20 -20 -20 -20 -20 -20 -20 -20 -20 -20 -20 -20 -20 -20 -20 -7 -20 -9 -6 -15 -20 -20 -20 -20 -5 -5 29 26 22 26 27 28 29 27 25 26 22 12 16 21 16 14
-20 -20 -20 -20 -20 -20 -20 -20 -20 -20 -20 -20 -20 -20 -20 -20 -20 -20 -20 -20 -20 -20 -20 -20 -20 -19 -4 17 32 32 34 34 20 31 29 15 16 25 17 8 1 1 3
-20 -20 -20 -20 -20 -20 -20 -20 -20 -20 -20 -20 -20 -20 -20 -20 -20 -20 -20 -20 -20 -20 -20 -20 -20 -18 -10 5 22 25 29 35 32 18 13 10 13 21 11 -4 -20 -20 -20
-20 -20 -20 -20 -20 -20 -20 -20 -20 -20 -20 -20 -20 -20 -20 -20 -20 -20 -20 -20 -20 -20 -20 -14 -19 -19 -20 -7 2 20 16 20 -1 -20 -15 -20 -20 -20 -20 -20 -20 -20 -20
-20 -20 -20 -20 -20 -20 -20 -20 -20 -20 -20 -20 -20 -20 -20 3 12 5 -18 -20 -20 -20 -20 -20 -20 -20 -14 -13 -15 7 -8 -20 -20 -20 -20 -20 -20 -20 -20 -20 -20 -20 -20
-20 -20 -20 -20 -20 -20 5 -7 -20 -20 -20 -20 -20 -20 -20 6 9 19 13 6 -1 -20 -20 -20 -20 -20 -20 -20 -20 -20 -20 -20 -20 -20 -20 -20 -20 -20 -20 -20 -20 -20 -20
-20 -20 -20 -20 -20 -20 -2 -20 -20 -20 -20 -20 -20 -20 -20 -20 -20 -20 -20 -20 -0 -1 -6 -20 -20 -20 -20 -20 -20 -20 -20 -20 -20 -20 -20 -20 -20 -20 -20 -20 -20 -20 -20
-20 -20 -20 -20 -20 -20 -20 -20 -20 -20 -20 -20 -20 -20 -20 -20 -20 -20 -20 -20 -20 -20 -20 -20 -20 -20 -20 -20 -20 -20 -20 -20 -20 -20 -20 -20 -20 -20 -20 -20 -20 -20 -20
-20 -20 -20 -20 -20 -20 -20 -20 -20 -20 -20 -20 -20 -20 -20 -20 -20 -20 -20 -20 -20 -20 -20 -20 -20 -20 -20 -20 -20 -20 -20 -20 -20 -20 -20 -20 -20 -20 -20 -20 -20 -20 -20
-20 -20 -20 -20 -20 -20 -20 -20 -20 -20 -20 -20 -20 -20 -20 -20 -20 -20 -20 -20 -20 -20 -20 -20 -20 -20 -20 -20 -20 -20 -20 -20 -20 -20 -20 -20 -20 -20 -20 -20 -20 -20 -20

GFSMA_prec_radar_048.txt.gz
Reflectivity
-20 -20 -20 -20 -20 -20 -20 -20 -20 -20 -20 -20 -20 -20 -20 -20 -20 -20 -20 -20 -20 -20 -20 -20 -20 13 9 -11 -20 -20 -20 -20 -20 -20 -20 -20 -20 -20 -20 -20 -20 -20 -20
-20 -20 -20 -20 -20 -20 -20 -20 -20 -20 -20 -20 -20 -20 -20 -20 -20 -20 -20 -20 -20 -20 -20 -20 -20 -20 -10 11 -20 -20 -20 -20 -20 -20 -20 -20 -20 -20 -20 -20 -20 -20 -20
-20 -20 -20 -20 -20 -20 -20 -20 -20 -20 -20 -20 -20 -20 -20 -20 -20 -20 -20 -20 -20 -20 -20 -20 -20 -20 -20 6 -1 -19 -10 -3 -2 1 -5 -20 -20 -20 -20 -20 -20 -20 -20
-20 -20 -20 -20 -20 -20 -20 -20 -20 -20 -20 -20 -20 -20 -20 -20 -20 -20 -20 -20 -20 -20 -20 -20 -20 -20 -20 -20 -20 -8 6 11 -20 -8 -20 -20 -20 -20 -20 -20 -20 -20 -20
-20 -20 -20 -20 -20 -20 -20 -20 -20 -20 -20 -20 -20 -20 -20 -20 -20 -20 -20 -20 -20 -20 -20 -20 -20 -20 -20 -20 -20 -20 14 12 3 -20 -20 -20 -20 -20 -20 -20 -20 -20 -20
-20 -20 -20 -20 -20 -20 -20 -20 -20 -20 -20 -20 -20 -20 -20 -20 -20 -20 -20 -18 -20 -20 -20 -20 -20 -20 -20 -20 -20 -20 -13 17 6 -9 -20 -20 -20 -20 -20 -20 -20 -20 -20
-20 -20 -20 -20 -20 -20 -20 -20 -20 -20 -20 -20 -20 -20 -20 -20 -20 -20 -20 -20 -20 -20 -20 -20 -20 -20 -20 -20 -20 -20 -20 8 15 4 -20 -20 -20 -20 -20 -20 -6 -3 -0
-20 -20 -20 -20 -20 -20 -20 -20 -20 -20 -20 -20 -20 -17 -20 -19 -20 -20 -20 -20 -20 -20 -20 -20 -20 -20 -20 -20 -20 -20 -14 -4 11 12 -8 -20 -20 -20 -20 -20 -1 -3 1
-20 -20 -20 -20 -20 -20 -20 -20 -20 -20 -10 -20 -20 -12 -8 -15 -16 -20 -20 -20 -20 -20 -20 -20 -20 -20 -20 -20 -5 -16 11 -15 8 11 19 9 -20 -11 -19 2 -20 11 2
-20 -20 -20 -20 -20 -20 -20 -20 -20 -20 -20 -20 1 -12 -16 -15 13 -1 -13 -20 -20 -20 -20 -20 -11 -20 -20 -20 -3 29 27 18 5 9 26 21 25 1 3 -0 4 2 6
-20 -20 -20 -20 -20 -20 -20 -20 -20 -20 -20 -20 -20 -20 -20 -20 -20 -5 -3 -20 -20 -12 -20 -20 -20 -20 -20 -20 -20 2 9 5 23 31 26 19 22 29 40 31 25 12 11
-20 -20 -20 -20 -20 -20 -20 -20 -20 -20 -1 -18 -15 -14 -20 -20 -20 -20 -20 -20 -20 -20 -20 -20 -20 -20 -20 -20 -20 -1 -18 21 17 35 38 32 24 26 32 31 29 31 24
-20 -20 -20 -20 -20 -20 -20 -20 -20 -20 -3 -20 -20 -20 -10 3 8 -20 -20 -20 -20 -20 -20 -20 -20 -20 -20 -20 -20 -20 -20 -20 9 30 28 32 34 35 26 28 22 25 29
-20 -20 -20 -20 -20 -20 -20 -20 -20 1 -20 -20 8 -11 -2 -17 10 5 -2 -20 -20 -8 -20 -20 -20 -20 -20 -20 -20 -20 -20 -5 15 23 27 35 33 33 33 25 23 22 17
-20 -20 -20 -20 -20 -20 -20 -20 -20 -20 -10 -20 -20 -16 -11 -20 0 -17 -3 -20 -19 -5 -17 -14 -20 -20 -20 -20 -20 -20 -12 -17 23 24 22 32 32 31 29 30 21 19 19
-20 -20 -20 -20 -20 -20 -20 -20 -20 -6 -15 -8 -7 -11 -20 -20 -20 -20 -20 -18 -20 -20 -20 -20 -20 -20 -20 -20 -19 -15 1 18 18 26 23 38 31 31 26 29 27 17 18
-20 -20 -20 -20 -20 -20 -20 -20 -20 -20 -20 -20 -20 -20 -20 -20 -20 -20 -20 -20 -20 -20 -20 -20 -20 -20 -20 -20 -20 -20 -12 16 17 29 27 28 25 24 25 29 22 24 20
-20 -20 -20 -20 -20 -20 -20 -20 -20 -20 -20 -20 -20 -20 -20 -20 -20 -20 -20 -20 -20 -20 -20 -20 -20 -20 -20 -20 -20 -20 -16 12 12 26 20 12 16 27 35 29 23 24 20
-20 -20 -20 -20 -20 -20 -20 -20 -20 -20 -20 -20 -20 -20 -20 -20 -20 -20 -20 -20 -20 -20 -20 -20 -20 -20 -20 -20 -20 -20 -20 -11 -18 9 18 25 29 30 30 20 14 10 7
-19 -20 -20 -20 -20 -20 -20 -20 -20 -20 -20 -20 -20 -20 -20 -20 -20 -20 -20 -20 -20 -20 -20 -20 -20 -20 -20 -20 -20 -20 -16 -11 -16 -10 -9 -17 -19 -19 -16 -20 -20 -20 -20
-7 -20 -20 -20 -20 -20 -20 -20 -20 -20 -20 -20 -20 -20 -20 3 -5 -16 -20 -20 -20 -20 -20 -20 -20 -20 -20 -20 -20 -20 -20 -20 -20 -20 -20 -20 -20 -20 -20 -20 -20 -20 -20
-20 -20 -20 -20 -20 -20 13 2 -20 -20 -20 -20 -20 -20 -20 5 -20 1 8 9 -1 -20 -20 -20 -20 -20 -20 -20 -20 -20 -20 -20 -20 -20 -20 -20 -20 -20 -20 -20 -20 -20 -20
-20 -20 -20 -20 -20 -20 6 -20 -20 -20 -20 -20 -20 -20 -20 -20 -20 -20 -20 -20 -19 -20 -13 -20 -20 -20 -20 -20 -20 -20 -20 -20 -20 -20 -20 -20 -20 -20 -20 -20 -20 -20 -20
-20 -20 -20 -20 -20 -19 -16 -20 -20 -20 -20 -20 -20 -20 -20 -20 -20 -20 -20 -20 -20 -20 -20 -20 -20 -20 -20 -20 -20 -20 -20 -20 -20 -20 -20 -20 -20 -20 -20 -20 -20 -20 -20
-20 -20 -20 -20 -20 -20 -20 -20 -20 -20 -20 -20 -20 -20 -20 -20 -20 -20 -20 -20 -20 -20 -20 -20 -20 -20 -20 -20 -20 -20 -20 -20 -20 -20 -20 -20 -20 -20 -20 -20 -20 -20 -20
-20 -20 -20 -20 -20 -20 -20 -20 -20 -20 -20 -20 -20 -20 -20 -20 -20 -20 -20 -20 -20 -20 -20 -20 -20 -20 -20 -20 -20 -20 -20 -20 -20 -20 -20 -20 -20 -20 -20 -20 -20 -20 -20

GFSMA_prec_radar_051.txt.gz
Reflectivity
-20 -20 -20 -20 -20 -20 -20 -20 -20 -20 -20 -20 -20 -20 -20 -20 -20 -20 -20 -20 -20 -20 -20 -14 -13 -20 -12 -7 -10 -20 -20 -20 -20 -20 -17 -20 -20 -20 -20 -20 -20 -20 -5
-20 -20 -20 -20 -20 -20 -20 -20 -20 -20 -20 -20 -20 -20 -20 -20 -20 -20 -20 -20 -20 -20 -20 -20 -20 -11 -20 -16 8 -5 -18 10 -20 -14 -20 -20 -20 -20 -20 -20 -20 -19 -19
-20 -20 -20 -20 -20 -20 -20 -20 -20 -20 -20 -20 -20 -20 -20 -20 -20 -20 -20 -20 -20 -20 -20 -20 -20 -20 -8 -2 2 10 6 8 -7 -4 -20 -20 -20 -20 -20 -20 -20 -20 -20
-20 -20 -20 -20 -20 -20 -20 -20 -20 -20 -20 -20 -20 -20 -20 -20 -20 -20 -20 -20 -20 -20 -20 -20 -20 -20 -20 -0 2 13 -0 2 4 -20 -0 -16 -20 -20 -20 -20 -20 -20 -20
-20 -20 -20 -20 -20 -20 -20 -20 -20 -20 -20 -20 -20 -20 -20 -20 -20 -20 -20 5 -20 -20 -20 -20 -20 -20 -20 -20 -20 -3 12 9 -5 -19 -20 -3 -20 -20 -20 -20 -20 -20 -20
-20 -20 -20 -20 -20 -20 -20 -20 -20 -20 -20 -20 -20 -20 -20 -20 -20 -20 -20 -20 -20 -20 -20 -20 -20 -20 -20 -20 -20 -20 -14 12 -6 -20 -20 -20 -6 -20 -20 -20 -20 -20 -20
-20 -20 -20 -20 -20 -20 -20 -20 -20 -20 -20 -20 -20 -20 -20 -20 -20 -20 -20 -20 -20 -20 -20 -20 -20 -20 -20 -20 -20 -20 -20 9 13 9 -16 -20 -20 -20 -20 -20 -4 -15 -4
-20 -20 -20 -20 -20 -20 -20 -20 -20 -20 -20 -20 -20 -20 -16 -20 -20 -20 -20 -20 -20 -20 -20 -20 -20 -20 -20 -20 -20 -19 -20 11 12 22 23 -18 -14 15 -16 -18 -15 3 -4
-20 -20 -20 -20 -20 -20 -20 2 -20 -1 7 -20 -20 -12 -14 -20 -20 -20 -20 -20 -20 -20 -20 -20 -20 -20 -20 -20 -20 -10 8 5 12 16 30 32 17 -12 12 -1 -18 9 5
-20 -20 -20 -20 -20 -20 -20 -20 -20 -20 -20 -20 -20 -20 -20 -20 -20 -20 -20 -20 -20 -20 -20 -20 -20 -20 -20 -20 -15 14 14 3 6 -5 24 38 41 36 20 5 29 30 6
-20 -20 -20 -20 -20 -20 -20 -20 -20 -20 -20 13 -20 -20 -20 -20 -20 -20 -20 -20 -20 -20 -20 -20 -20 -20 -20 -20 -20 -20 -20 -20 -20 -9 22 21 25 29 31 32 30 21 30
-20 -20 -20 -20 -20 -20 -20 -11 -20 -20 -20 -4 17 -20 -20 -20 -20 -20 -19 -13 -16 -20 -20 -20 -20 -20 -20 -20 -20 -20 -20 -20 -20 10 25 26 0 -18 6 26 35 26 30
-20 -20 -20 -20 -20 -20 -20 -14 -4 -0 -20 -6 5 -12 4 6 -10 -20 2 -19 -9 -15 -20 -20 -20 -20 -20 -20 -20 -20 -20 -20 -18 0 13 24 20 -10 -8 31 32 29 25
-20 -20 -20 -20 -20 -20 -20 -20 -15 15 -11 2 -20 -9 -18 -17 -20 -20 -20 -19 -20 -20 -20 -20 -20 -20 -20 -20 -20 -20 -20 -20 -20 -1 14 24 30 28 25 32 27 31 26
-20 -20 -20 -20 -20 -20 -20 -20 -20 -20 -20 -20 -20 -20 -20 -20 -20 -20 -20 -20 -20 -7 -20 -20 -20 -20 -14 -20 -3 -20 -20 -20 2 -3 7 29 23 28 27 16 25 33 23
-20 -20 -20 -20 -20 -20 -20 -20 -20 -20 -20 -20 -20 -20 -20 -20 -20 -20 -20 -20 -20 -20 -14 -20 -20 -5 -20 -20 -10 -20 -20 -9 11 -12 21 9 13 22 22 24 28 36 24
-20 -20 -20 -20 -20 -20 -20 -20 -20 -20 -20 -20 -20 -20 -20 -20 -20 -20 -20 -20 -20 -20 -20 -20 -20 -20 -20 -16 -20 -20 -20 -1 -2 18 15 17 23 18 29 23 18 10 1
-20 -20 -20 -20 -20 -20 -20 -20 -20 -20 -20 -20 -20 -20 -20 -20 -20 -20 -20 -20 -20 -20 -20 -20 -20 -20 -20 -20 -20 -20 -20 -20 -20 -7 -8 -19 -11 2 -8 -20 -20 13 -4
-20 -20 -20 -20 -20 -20 -20 -20 -20 -20 -20 -20 -20 -20 -20 -20 -20 -20 -20 -20 -20 -20 -20 -20 -20 -20 -20 -20 -20 -20 -20 -20 -20 -20 -20 -20 -18 -8 4 10 9 15 9
-20 -20 -20 -20 -20 -20 -20 -20 -20 -20 -20 -20 -20 -20 -20 -20 -20 -20 -20 -20 -19 -20 -20 -20 -20 -20 -20 -13 -19 -12 -20 -20 -20 -20 -20 -20 -20 -20 -20 -20 -20 -20 -20
-13 -20 -20 -20 -20 -20 -20 -20 -20 -20 -20 -20 -20 -20 -20 -13 -3 -0 -19 -20 -20 -20 -20 -20 -20 -20 -20 -20 -20 -20 -20 -20 -20 -20 -20 -20 -20 -20 -20 -20 -20 -20 -20
-20 -20 -20 -20 -20 -20 12 8 -2 -20 -20 -20 -20 -20 -20 -2 2 2 -13 2 -20 -20 -20 -20 -20 -20 -20 -20 -20 -20 -20 -20 -20 -20 -20 -20 -20 -20 -20 -20 -20 -20 -20
-20 -20 -20 -20 -16 -20 0 -20 -20 -20 -20 -20 -20 -20 -20 -20 -20 -20 -20 -20 -20 -20 -20 -20 -20 -20 -20 -20 -20 -20 -20 -20 -20 -20 -20 -20 -20 -20 -20 -20 -20 -20 -20
-20 -20 -18 -20 -20 -19 -20 -20 -20 -20 -20 -20 -20 -20 -20 -20 -20 -20 -20 -20 -20 -20 -20 -20 -20 -20 -20 -20 -20 -20 -20 -20 -20 -20 -20 -20 -20 -20 -20 -20 -20 -20 -20
-20 -20 -20 -20 -20 -20 -20 -20 -20 -20 -20 -20 -20 -20 -20 -20 -20 -20 -20 -20 -20 -20 -20 -20 -20 -20 -20 -20 -20 -20 -20 -20 -20 -20 -20 -20 -20 -20 -20 -20 -20 -20 -20
-20 -20 -20 -20 -20 -20 -20 -20 -20 -20 -20 -20 -20 -20 -20 -20 -20 -20 -20 -20 -20 -20 -20 -20 -20 -20 -20 -20 -20 -20 -20 -20 -20 -20 -20 -20 -20 -20 -20 -20 -20 -20 -20

GFSMA_prec_radar_054.txt.gz
Reflectivity
-20 -20 -20 -20 -20 -20 -20 -20 -20 -20 -20 -20 -20 -20 -20 -20 -20 -20 -20 -20 -20 -20 -20 -20 4 -15 -20 -20 -20 -3 -14 -20 -20 -17 -20 -20 -20 -20 -20 -20 -20 -18 -1
-20 -20 -20 -20 -20 -20 -20 -20 -20 -20 -20 -20 -20 -20 -20 -20 -20 -20 -20 -20 -20 -20 -20 -20 -20 -18 4 -8 -16 -19 -16 -9 -20 -13 -20 -20 -20 -20 -20 -20 -20 -20 -1
-20 -20 -20 -20 -20 -20 -20 -20 -20 -20 -20 -20 -20 -20 -20 -20 -20 -20 -20 -20 -20 -20 -20 -20 -20 -20 -8 6 -5 -8 -19 2 -18 -12 -0 -20 -20 -20 -20 -20 -20 7 -20
-20 -20 -20 -20 -20 -20 -20 -20 -20 -20 -20 -20 -20 -20 -20 -20 -20 -20 -20 -20 -20 -20 -20 -20 -20 -20 -20 -6 10 13 6 -19 -20 -20 -20 -20 -18 -20 -20 -20 -20 -20 -3
-20 -20 -20 -20 -20 -20 -20 -20 -20 -20 -20 -20 -20 -20 -20 -20 -20 -20 -20 -20 -20 -20 -20 -20 -20 -20 -20 -20 -18 10 14 11 -20 -20 -20 -20 -7 -20 -20 -20 -20 -20 -20
-20 -20 -20 -20 -20 -20 -20 -20 -20 -20 -20 -20 -9 -20 -20 -20 -20 -20 -20 -20 -20 -20 -20 -20 -20 -20 -20 -20 -20 -10 2 12 17 -16 -20 -20 -20 -20 -20 -20 -20 -20 -20
-20 -20 -20 -20 -20 -20 -20 -20 -20 -20 -1 -13 -20 -20 -20 -20 -20 -20 -20 -20 -20 -20 -20 -20 -20 -20 -20 -20 -20 -20 -20 16 7 21 13 -20 -20 -20 -20 -20 -20 -20 -9
-20 -8 -20 -20 -20 -17 -19 -19 -17 -10 -20 -20 -16 -16 -15 -20 -20 -20 -20 -20 -20 -20 -20 -20 -20 -20 -20 -20 -20 -20 -20 14 11 17 27 26 -3 -8 0 -6 5 16 -2
-20 -20 -19 -5 -12 5 6 1 1 10 -4 -9 -20 -11 -4 -20 -20 -20 -20 -20 -20 -20 -20 -20 -20 -20 -20 -20 -20 -20 -20 -20 -20 2 12 23 30 35 27 27 19 24 24
-20 -20 -20 -20 -20 -20 -11 -20 -20 -19 -14 -14 -20 -20 -20 -17 -16 -20 -20 -20 -20 -20 -20 -20 -20 -20 -20 -20 -20 -20 -20 -20 -11 11 10 19 24 -0 21 13 28 28 26
-20 -20 -20 -20 -20 -20 -20 -20 -20 -20 -20 -12 -18 -20 -20 -20 -10 8 -13 -4 -20 -20 -20 -20 -20 -20 -20 -20 -20 -20 -20 -20 -20 -20 -20 0 24 28 27 26 12 34 29
-20 -20 -20 -20 -20 -20 -20 -20 -20 -20 -20 8 -9 9 -17 -5 -9 -10 -20 -20 -20 -20 -20 -20 -20 -20 -20 -20 -20 -20 -20 -20 -20 -20 -9 12 27 29 25 17 8 26 30
-20 -20 -20 -20 -20 -20 -20 -11 6 11 4 10 -5 -7 8 -10 -8 -19 -5 -2 -12 -20 -20 -20 -20 -20 -20 -20 -20 -20 -20 -20 -20 -20 -3 10 14 1 32 19 14 9 32
-20 -20 -20 -20 -20 -20 -20 -18 -20 -18 -20 -11 -3 13 4 -1 -6 -20 -1 6 4 -10 -20 -7 -20 -20 -20 -20 -20 -20 -20 -20 -20 -20 -16 -0 -1 0 39 23 25 15 25
-20 -20 -20 -20 -20 -20 -20 -20 -20 -20 -20 -1 -5 4 -2 -18 -20 -20 -18 -17 -18 -10 -19 -20 -20 -20 -20 -20 -20 -20 -20 10 8 -19 -1 13 -20 5 17 29 19 -1 24
-20 -20 -20 -20 -20 -20 -20 -20 -20 -20 -20 -20 -20 -20 -20 -20 -20 -20 -20 -20 -20 -7 -4 -20 -20 -20 -20 -20 -20 -20 -20 -7 2 15 11 17 12 5 15 17 17 20 26
-20 -20 -20 -20 -20 -20 -20 -20 -20 -20 -20 -20 -20 -20 -20 -20 -20 -20 -20 -20 -20 -20 -20 -20 -20 -20 -20 -20 -20 -9 -12 -20 -20 -18 9 7 0 -18 -13 -8 -2 20 18
-20 -20 -20 -20 -20 -20 -20 -20 -20 -20 -20 -20 -20 -20 -20 -20 -20 -20 -20 -20 -20 -20 -20 -20 -20 -20 -20 -20 -20 -7 -20 -20 -20 -20 -12 -13 -9 -7 -20 -20 -12 -20 -1
-20 -20 -20 -20 -20 -20 -20 -20 -20 -20 -20 -20 -20 -20 -20 -20 -20 -20 -20 -20 -20 -20 -20 -20 -7 -20 -19 -20 -20 -20 -20 -20 -20 -20 -20 -20 -20 -20 -20 -20 -20 -20 -7
-20 -20 -20 -20 -20 -20 -20 -20 -20 -20 -20 -20 -20 -20 -20 -20 -20 -20 -20 -20 -20 -20 -20 -20 -20 -20 -20 -20 -18 -20 -20 -20 -20 -20 -20 -20 -20 -20 -20 -20 -20 -13 -6
-20 -20 -9 -20 -20 -20 -20 -20 -20 -20 -20 -20 -20 -20 -14 -20 -20 -20 -20 -20 -20 -20 -20 -20 -20 -20 -20 -20 -20 -20 -20 -20 -20 -20 -20 -20 -20 -20 -20 -20 -20 -20 -20
-1 3 -20 -20 -4 -20 13 1 -3 -20 -20 -20 -20 -20 -20 -14 -3 -13 -20 -20 -20 -20 -20 -20 -20 -20 -20 -20 -20 -20 -20 -20 -20 -20 -20 -20 -20 -20 -20 -20 -20 -20 -20
-20 -20 -20 -16 -1 -2 4 -20 -20 -20 -20 -20 -20 -20 -20 -20 -13 -20 -20 -20 -20 -20 -20 -20 -20 -20 -20 -20 -20 -20 -20 -20 -20 -20 -20 -20 -20 -20 -20 -20 -20 -20 -20
-20 -20 -20 -20 -20 -19 -20 -20 -20 -20 -20 -20 -20 -20 -20 -20 -20 -20 -20 -20 -20 -20 -20 -20 -20 -20 -20 -20 -20 -20 -20 -20 -20 -20 -20 -20 -20 -20 -20 -20 -20 -20 -20
-20 -20 -20 -20 -20 -20 -20 -20 -20 -20 -20 -20 -20 -20 -20 -20 -20 -20 -20 -20 -20 -20 -20 -20 -20 -20 -20 -20 -20 -20 -20 -20 -20 -20 -20 -20 -20 -20 -20 -20 -20 -20 -20
-16 -19 -15 -17 -20 -20 -20 -20 -20 -20 -20 -20 -20 -20 -20 -20 -20 -20 -20 -20 -20 -20 -20 -20 -20 -20 -20 -20 -20 -20 -20 -20 -20 -20 -20 -20 -20 -20 -20 -20 -20 -20 -20

GFSMA_prec_radar_057.txt.gz
Reflectivity
-20 -20 -20 -20 -20 -20 -20 -20 -20 -20 -20 -20 -20 -20 -20 -20 -20 -20 -20 -20 -20 -20 -20 -20 -5 -11 -20 -20 -20 -20 -20 -20 -20 -20 -20 -20 -20 -20 -20 -20 -20 -20 -20
-20 -20 -20 -20 -20 -20 -20 -20 -20 -20 -20 -20 -20 -20 -20 -20 -20 -20 -20 -20 -20 -20 -20 -20 -20 -20 -7 9 -20 -20 -20 -20 -20 -20 -3 -20 -20 -20 -20 -20 -20 -20 -15
-20 -20 -20 -20 -20 -20 -20 -20 -20 -20 -20 -20 -20 -20 -20 -20 -20 -20 -20 -20 -20 -20 -20 -20 -20 -20 -20 -20 4 6 -20 -20 -20 -20 -20 -20 -20 -20 -20 -20 -20 -20 -20
-20 -20 -20 -20 -20 -20 -20 -20 -20 -20 -20 -20 -20 -20 -17 -15 -20 -20 -20 -20 -20 -20 -20 -20 -20 -20 -20 -20 -19 7 19 -20 -20 -20 -20 -20 -20 -20 -20 -20 -20 -20 1
-20 -20 -20 -20 -20 -20 -20 -20 -20 -20 -18 -12 -0 -20 -20 -20 -20 -20 -20 -20 -20 -20 -20 -20 -20 -20 -20 -20 -20 -20 2 12 -20 -20 -20 -20 -20 -20 -20 -20 -20 -20 -20
-20 -20 -20 -20 -20 -20 -20 -19 6 4 -2 7 -20 -20 -20 -20 -20 -20 -20 -20 -20 -20 -20 -20 -20 -20 -20 -20 -20 -20 -20 13 25 22 -7 -9 1 -20 -20 -20 -20 -20 -20
-20 -20 -20 -20 -7 -20 -20 1 -4 1 -1 -20 -18 -20 -20 -20 -20 -20 -20 -20 -20 -20 -20 -20 -20 -20 -20 -20 -20 -20 -20 -0 24 24 24 25 -4 6 7 -20 -20 -20 -20
-8 1 -6 1 -5 -6 -6 -7 -8 1 -4 1 -6 16 -20 -20 -20 -20 -20 -20 -20 -20 -20 -20 -20 -20 -20 -20 -20 -20 -20 -4 9 -7 25 26 29 32 27 15 12 19 -19
-20 -20 -20 0 -16 14 4 -0 -4 8 13 3 -12 1 -1 -20 -20 -20 -20 -20 -20 -20 -20 -20 -20 -20 -20 -20 -20 -20 -20 -20 -20 -20 -20 -3 10 -9 17 19 23 -20 -20
-20 -20 -20 -20 -20 -16 -15 -20 -20 -1 4 5 -18 -20 -0 9 0 -0 -20 -20 -20 -20 -20 -20 -20 -20 -20 -20 -20 -20 -20 -20 -20 -20 -20 -20 -16 23 23 25 16 -5 -20
-20 -20 -20 -20 -20 -20 -20 -20 -20 -20 -20 -20 -20 6 6 -20 -11 -19 -20 -20 -20 -20 -20 -20 -20 -20 -20 -20 -20 -20 -20 -20 -20 -20 -20 -20 -15 6 29 27 25 21 13
-20 -20 -20 -20 -20 -20 -20 -20 -20 -20 -20 -20 -4 -14 2 -20 -12 -20 -19 -16 -20 -20 -20 -20 -20 -20 -20 -20 -20 -20 -20 -20 -20 -20 -20 -20 14 18 10 30 26 25 18
-20 -20 -20 -20 -20 -20 -20 -20 -20 -10 -7 3 10 3 8 -1 -13 21 9 -7 -20 -20 -20 -20 -20 -20 -20 -20 -20 -20 -20 -20 -20 -20 -20 -20 -2 -20 -20 5 24 43 31
-20 -20 -20 -20 -20 -20 -20 -20 4 0 -12 -16 14 -11 -19 4 7 16 13 6 -16 -20 -20 -20 -20 -20 -20 -20 -20 -20 -20 10 13 -8 -20 -20 10 -9 -20 -17 -5 27 26
-20 -20 -20 -20 -20 -20 -20 -20 -10 13 11 -4 -10 -4 13 -20 -1 11 -20 -20 -3 -20 -20 -20 -20 -20 -20 -20 -20 -20 -20 -17 1 17 13 12 13 3 2 17 21 11 -10
-20 -20 -20 -20 -20 -20 -20 -20 -20 -20 -20 -20 -20 -20 -17 -6 -20 -20 -20 -20 -20 -13 -3 -20 -20 -20 -20 -20 -20 -20 -20 -12 10 6 7 12 8 10 -14 11 25 21 22
-20 -20 -20 -20 -20 -20 -20 -20 -20 -20 -20 -20 -20 -20 -20 -20 -20 -20 -20 -20 -20 -20 -9 -20 -20 -20 -20 -20 -20 -20 -12 -20 -14 -6 10 11 -9 13 1 -19 -1 5 8
-20 -20 -20 -20 -20 -20 -20 -20 -20 -20 -20 -20 -20 -20 -20 -20 -20 -20 -20 -20 -20 -20 -20 -20 -20 -20 -20 -20 -20 -20 -20 -20 -20 -12 -20 2 12 4 2 8 -7 -20 -20
-20 -20 -20 -20 -20 -20 -20 -20 -20 -20 -20 -20 -20 -20 -20 -20 -20 -20 -20 -20 -20 -20 -20 -20 -20 -20 -20 -20 -20 -20 -20 -20 -20 -20 -20 -20 -20 -20 -20 -20 -20 -18 -20
-20 -20 -20 -20 -20 -20 -20 -20 -20 -20 -20 -20 -20 -20 -20 -20 -20 -20 -20 -20 -20 -20 -20 -20 -20 -20 -20 -20 -20 -20 -20 -20 -20 -20 -20 -20 -20 -20 -20 -20 -20 -20 -20
-20 -20 -20 -20 -20 -20 -20 -20 -20 -20 -20 -20 -20 -20 -20 -20 -20 -19 -12 -20 -20 -20 -10 -11 -20 -20 -20 -20 -20 -20 -20 -20 -20 -20 -20 -20 -20 -20 -20 -20 -20 -20 -20
-20 -20 -20 -20 -20 -20 -1 12 5 -20 -20 -20 -20 -20 -20 -20 -6 5 4 7 1 -20 -5 -20 3 -20 -20 -20 -20 -20 -20 -20 -20 -20 -20 -20 -20 -20 -20 -20 -20 -20 -20
-20 -20 -20 -20 -17 -20 12 8 5 -20 -20 -20 -20 -20 -20 -20 -20 -20 -20 -20 -20 -20 -20 -20 -20 -20 -20 -20 -20 -20 -20 -20 -20 -20 -20 -20 -20 -20 -20 -20 -20 -20 -20
-20 -20 -20 -20 -20 -18 -9 -20 -20 -20 -20 -20 -20 -20 -20 -20 -20 -20 -20 -20 -20 -20 -20 -20 -20 -20 -20 -20 -20 -20 -20 -20 -20 -20 -20 -20 -20 -20 -20 -20 -20 -20 -20
-20 -1 -20 -20 -20 -20 -20 -20 -20 -20 -20 -20 -20 -20 -20 -20 -20 -20 -20 -20 -20 -20 -20 -20 -20 -20 -20 -20 -20 -20 -20 -20 -20 -20 -20 -20 -20 -20 -20 -20 -20 -20 -20
-20 -20 -20 -20 -20 -19 -17 -19 -20 -20 -20 -20 -20 -20 -20 -20 -20 -20 -20 -20 -20 -20 -20 -20 -20 -20 -20 -20 -20 -20 -20 -20 -20 -20 -20 -20 -20 -20 -20 -20 -20 -20 -20

GFSMA_prec_radar_060.txt.gz
Reflectivity
-20 -20 -20 -20 -20 -20 -20 -20 -20 -20 -20 -20 -20 -20 -20 -20 -20 -20 -20 -20 -20 -20 -20 -20 -20 -20 -20 -20 -20 -20 -20 -20 -20 -20 -20 -20 -20 -20 -20 -20 -20 -20 -20
-20 -20 -20 -20 -20 -20 -20 -20 -20 -20 -20 -20 -20 -20 -20 -20 -20 -20 -20 -20 -20 -20 -20 -20 -20 -20 -20 -3 9 -20 -20 -20 -20 -20 -20 -20 -20 -20 -20 -20 -20 -20 -20
-20 -20 -20 -20 -20 -20 -20 -20 -20 -20 -20 -20 -20 -20 -20 -20 -20 -20 -20 -20 -20 -20 -20 -20 -20 -20 -20 -20 -20 7 4 -20 -20 -20 -20 -20 -20 -20 -20 -20 -20 -20 -20
-20 -20 -20 -20 -20 -20 -20 -20 -20 -20 -20 -20 -18 -4 -8 -16 -20 -20 -20 -20 -20 -20 -20 -20 -20 -20 -20 -20 -20 -10 19 6 -15 -20 -20 -20 -20 -20 -20 -20 -20 -20 -20
-20 -20 -20 -20 -20 -20 -11 -10 -13 -17 5 1 -13 -20 -20 -20 -20 -20 -20 -20 -20 -20 -18 12 -20 -20 -20 -20 -20 -20 5 7 23 8 -9 -20 -20 -15 -20 -20 -20 -20 -20
-20 -20 -20 -20 -5 3 9 3 0 -16 -20 -2 -4 -20 -20 -20 -20 -20 -20 -20 -20 -20 -20 -20 -20 -20 -20 -20 -20 -20 -20 -20 -10 23 17 19 8 9 11 -20 -20 -20 -20
-20 -20 -20 -20 3 -4 -2 -10 6 -10 -20 -20 5 -20 -20 -20 -20 -20 -20 -20 -20 -20 -20 -20 -20 -20 -20 -20 -20 -20 -20 -20 -3 13 10 22 30 2 2 -9 -4 -20 -20
-20 4 -9 -5 7 6 -1 2 4 7 4 3 6 -6 -15 -20 -20 -20 -20 -20 -20 -20 -20 -20 -20 -20 -20 -20 -20 -20 -20 -20 -20 -20 -9 -2 -8 27 31 23 20 -11 -5
-18 -20 -20 -20 -17 -14 -7 -18 4 -2 6 -6 -19 -9 -7 -20 -20 -20 -20 -20 -20 -20 -20 -20 -20 -20 -20 -20 -20 -20 -20 -20 -20 -20 -20 -20 -20 -9 -1 23 -9 7 11
-20 -20 -20 -20 -20 -20 -20 -20 -20 -20 -18 -15 -20 10 3 13 12 -20 -20 -20 -20 -20 -20 -20 -20 -20 -20 -20 -20 -20 -20 -20 -20 -20 -20 -20 -20 -20 7 3 28 13 5
-20 -20 -20 -20 -20 -20 -20 -20 -20 -20 -20 -20 -20 -20 3 -13 -1 12 5 -20 8 -12 -7 -20 -20 -20 -20 -20 -20 -20 -20 -20 -20 -20 -20 -20 -20 -4 14 17 27 27 23
-20 -20 -20 -20 -20 -20 -20 -20 -20 -20 -20 -20 -7 -20 -18 -20 -20 -20 11 -12 -18 6 8 -20 -20 -20 -20 -20 -20 -20 -20 -20 -20 -20 -20 -20 -20 -7 -20 -14 5 -6 28
-20 -20 -20 -20 -20 -20 -20 -20 -20 -20 -20 -20 -20 -20 -7 15 -20 -20 -20 -20 12 7 -20 -20 -20 -20 -20 -20 -20 -20 -20 -14 11 5 -20 -20 -7 3 -18 -20 -10 -20 -3
-20 -20 -20 -20 -20 -20 -20 -20 -20 -18 -20 -14 -17 -5 -6 -19 -18 -20 8 19 -8 -20 -20 -20 -20 -20 -20 -20 -20 -20 -20 5 8 16 16 17 6 -6 -18 -20 4 -20 -17
-20 -20 -20 -20 -20 -20 -20 -20 -20 -20 -20 -15 -18 -17 -18 -19 -3 -3 -2 -7 -20 -20 -20 -20 -20 -20 -20 -20 -20 -20 -20 9 7 16 8 8 8 4 5 16 23 1 -4
-20 -20 -20 -20 -20 -20 -20 -20 -20 -5 -12 -20 -6 8 -4 -20 -13 -15 -18 -20 -20 -20 -20 -20 -20 -20 -20 -20 -20 -20 -20 -10 -19 -8 4 11 2 0 7 16 14 10 10
-20 -20 -20 -20 -20 -20 -20 -20 -20 -8 -9 -20 -20 -20 -20 -20 -20 -20 -20 -20 -20 -20 -20 -20 -20 -20 -20 -20 -20 -20 -20 -20 -20 -20 -16 6 -0 4 13 -0 -1 5 3
-20 -20 -20 -20 -20 -20 -20 -20 -20 -20 -20 -20 -20 -20 -20 -20 -20 -20 -20 -20 -20 -20 -20 -20 -20 -20 -20 -20 -20 -20 -20 -20 -20 -20 -20 -20 -7 9 -1 -14 8 -14 -20
-20 -20 -20 -20 -20 -20 -20 -20 -20 -20 -20 -20 -20 -20 -20 -20 -20 -20 -20 -20 -20 -20 -20 -20 -20 -20 -16 -20 -20 -20 -20 -20 -20 -20 -20 -20 -20 -20 -20 -20 -20 -19 -20
-20 -20 -20 -20 -20 -20 -20 -20 -20 -20 -20 -20 -20 -20 -20 -20 -20 -20 -20 -20 -20 -20 -20 -20 -20 -5 -20 -20 -20 -20 -20 -20 -20 -20 -20 -20 -20 -20 -20 -20 -20 -20 -20
-20 -20 -20 -20 -20 -20 -20 -20 -20 -20 -20 -20 -20 -20 -20 -20 1 -20 -20 -20 -20 -20 -20 -20 -20 -20 -20 -20 -20 -20 -20 -20 -20 -20 -20 -20 -20 -20 -20 -20 -20 -20 -20
-20 -20 -20 -20 -20 1 10 4 3 -20 -20 -20 -20 -20 -20 -2 2 -6 -20 -5 -19 -20 -20 -20 -20 -20 -20 -20 -20 -20 -20 -20 -20 -20 -20 -20 -20 -20 -20 -20 -20 -20 -20
-20 -20 -20 -20 -20 -15 5 -3 10 -20 -20 -20 -20 -20 -20 -20 -20 -20 -20 -20 -20 -20 -20 -20 -20 -20 -20 -20 -20 -20 -20 -20 -20 -20 -20 -20 -20 -20 -20 -20 -20 -20 -20
-20 -20 1 -17 -20 -16 9 8 -6 -20 -20 -20 -20 -20 -20 -20 -20 -20 -20 -20 -20 -20 -20 -20 -20 -20 -20 -20 -20 -20 -20 -20 -20 -20 -20 -20 -20 -20 -20 -20 -20 -20 -20
-20 -20 6 -20 -20 9 -20 -20 -20 -20 -20 -20 -20 -20 -20 -20 -20 -20 -20 -20 -20 -20 -20 -20 -20 -20 -20 -20 -20 -20 -20 -20 -20 -20 -20 -20 -20 -20 -20 -20 -20 -20 -20
-20 -20 7 -20 -4 -20 -20 -20 -20 -20 -20 -20 -20 -20 -20 -20 -20 -20 -20 -20 -20 -20 -20 -20 -20 -20 -20 -20 -20 -20 -20 -20 -20 -20 -20 -20 -20 -20 -20 -20 -20 -20 -20

GFSMA_prec_radar_063.txt.gz
Reflectivity
-20 -20 -20 -20 -20 -20 -20 -20 -20 -20 -20 -20 -20 -20 -20 -20 -20 -20 -20 -20 -20 -20 -20 -20 -20 -13 -20 -20 -20 -20 -20 -20 -20 -20 -20 -20 -20 -20 -20 -20 -20 -20 -20
-20 -20 -20 -20 -20 -20 -20 -20 -20 -20 -20 -20 -20 -20 -20 -20 -20 -20 -20 -20 -20 -20 -20 -20 -20 -20 -20 -14 2 13 -1 -20 -20 -20 -20 -20 -20 -20 -20 -20 -20 -20 -20
-20 -20 -20 -20 -20 -20 -20 -20 -20 -20 -20 -20 -20 -20 -20 -20 -7 -11 -20 -20 -18 13 9 9 -20 -20 -20 -20 -20 -9 28 2 6 -20 -20 -20 -20 -20 -20 -20 -20 -20 -20
-20 -20 -20 -20 -20 -20 -20 -20 -20 -20 -20 -20 -20 -16 -5 -20 -20 -20 -20 -20 -20 -20 -20 16 13 -15 -20 -20 -16 13 17 27 8 -0 -20 -20 -20 -20 -20 -20 -20 -20 -20
-20 -20 -20 -20 -20 -20 -20 2 0 -2 -12 -11 -11 -12 -20 -20 -20 -20 -20 -20 -20 -20 -20 -2 -20 -20 -20 -20 -20 -5 -12 7 16 12 15 12 6 -14 -20 -20 -20 -20 -20
-20 -20 -20 -20 -20 -8 2 8 10 -1 -4 -13 1 -17 4 -9 -20 -20 -20 -20 -20 -17 -20 -20 -20 -20 -20 -20 -20 -20 -20 -20 -19 9 19 28 22 7 4 -14 -20 -20 -20
-20 -20 -20 -20 -1 7 -2 12 6 8 5 -11 11 2 -20 -20 -20 -20 -20 -20 -20 -20 -20 -20 -20 -20 -20 -20 -20 -20 -20 -20 -20 -20 -2 13 24 7 22 1 -10 -20 -20
6 -20 -2 3 -2 -13 2 10 6 7 5 7 -2 -17 7 -20 -20 -20 -20 -20 -20 -20 -20 -20 -20 -20 -20 -20 -20 -20 -20 -20 -20 -20 -20 -20 -20 -13 4 29 23 -14 -20
-20 -20 -15 -16 -20 -14 -10 -19 -10 13 -0 -16 -20 10 10 -20 -20 -20 -20 -20 -20 -20 -20 -20 -20 -20 -20 -20 -20 -20 -20 -20 -20 -20 -20 -20 -20 -20 -20 1 5 19 -20
-20 -20 -20 -20 -20 -20 -20 -20 -20 -20 -20 -20 -20 -20 3 9 10 -8 -20 -20 -20 -20 -20 -20 -20 -20 -20 -20 -20 -20 -20 -20 -20 -20 -20 -20 -15 11 9 -11 15 28 23
-20 -20 -20 -20 -20 -20 -20 -20 -20 -20 -20 -20 -20 -20 -20 -20 -20 4 -1 -20 -20 -20 -20 -20 -20 -18 -20 -20 -20 -20 -20 -20 -20 -20 -20 -20 -20 -16 14 -2 1 -1 30
-20 -20 -20 -20 -20 -20 -20 -20 -20 -20 -20 -20 -20 -20 -20 -20 -20 -20 -11 -20 -20 -20 -20 -20 -20 -20 -20 -20 -20 -20 -20 -20 10 -2 -20 -20 10 2 -19 -18 -18 -7 -13
-17 -20 5 -2 -20 -20 -20 -20 -20 -20 -20 -20 -20 -20 -20 -20 -20 -17 -4 -19 -20 -20 -13 8 -20 -20 -20 -20 -20 -20 -20 -10 1 18 19 19 17 12 9 -20 -20 -10 -11
23 4 -18 -20 -20 -20 -20 -20 -20 -20 -20 -20 -20 -2 10 -11 -16 -20 -18 2 -20 -18 -9 -20 -20 -20 -20 -20 -20 -20 -20 5 14 15 15 16 4 9 13 3 2 11 8
-20 -20 -20 -20 -20 -20 -20 -20 -20 -20 -20 -20 -20 -20 -20 -20 -17 -20 -17 8 18 9 -20 -20 -20 -20 -20 -20 -20 -20 -20 12 6 13 1 -13 -20 -4 16 14 10 6 0
-20 -20 -20 -20 -20 -20 -20 -20 -20 -20 -20 -20 -20 -20 -20 -12 2 8 -18 -8 -20 -20 -7 -20 -20 -20 -20 -20 -19 -20 -20 -8 8 6 -19 -9 -20 -20 4 11 5 -10 3
7 -20 -20 -20 -20 -20 -20 -20 -20 -20 -20 -20 -20 -20 -20 -20 -20 -20 -16 -17 -20 -20 -20 -20 -20 -20 -20 -20 -20 -20 -20 -20 -19 -20 1 -20 -20 -20 -20 -20 -7 1 5
-19 -15 4 14 11 4 -20 -20 -20 -19 -20 -20 -5 -13 -20 -20 -20 -20 -20 -20 -20 -20 -20 -20 -20 -20 -20 -20 -20 -20 -20 -20 -20 -20 -20 -20 -20 -20 -20 -20 -20 -20 1
-12 -13 3 -18 -20 -20 -13 -20 -20 -20 -20 -20 -20 -20 -20 -20 -20 -20 -20 -20 -20 -20 -20 -20 -20 -20 -20 -20 -20 -20 -20 -20 -20 -20 -20 -20 -20 -20 -20 -20 -20 -20 -20
-20 -20 -20 -20 -20 -19 -16 -20 -20 -20 -20 -20 -20 -20 -20 -20 -20 -20 -20 -20 -20 -20 -20 -20 -20 -20 -20 -20 -20 -20 -20 -20 -20 -20 -20 -20 -20 -20 -20 -20 -20 -20 -20
-20 -20 -17 -20 -18 -10 -12 -6 -20 -17 -20 -20 -20 -20 -20 -17 -17 -20 -20 -20 -20 -20 -20 -20 -20 -20 -20 -20 -20 -20 -20 -20 -20 -20 -20 -20 -20 -20 -20 -20 -20 -20 -20
-20 -20 -20 -20 -20 -20 -15 4 -0 -20 -20 -20 -20 -20 -20 -0 4 7 -20 -20 -15 -20 -20 -20 -20 -20 -20 -20 -20 -20 -20 -20 -20 -20 -20 -20 -20 -20 -20 -20 -20 -20 -20
-20 -20 -20 -20 -20 -20 7 10 11 -20 -20 -20 -20 -20 -20 -20 -20 -20 -20 -20 -20 -20 -20 -20 -20 -20 -20 -20 -20 -20 -20 -20 -20 -20 -20 -20 -20 -20 -20 -20 -20 -20 -20
-20 -20 -20 -20 -20 -17 12 -10 12 -20 -20 -20 -20 -20 -20 -20 -20 -20 -20 -20 -20 -20 -20 -20 -20 -20 -20 -20 -20 -20 -20 -20 -20 -20 -20 -20 -20 -20 -20 -20 -20 -20 -20
-20 -20 -20 -20 -10 -12 -10 -9 -18 -20 -20 -20 -20 -20 -20 -20 -20 -20 -20 -20 -20 -20 -20 -20 -20 -20 -20 -20 -20 -20 -20 -20 -20 -20 -20 -20 -20 -20 -20 -20 -20 -20 -20
-20 -20 -20 9 16 -20 -20 -20 -20 -20 -20 -20 -20 -20 -20 -20 -20 -20 -20 -20 -20 -20 -20 -20 -20 -20 -20 -20 -20 -20 -20 -20 -20 -20 -20 -20 -20 -20 -20 -20 -20 -20 -20

GFSMA_prec_radar_066.txt.gz
Reflectivity
-20 -20 -20 -20 -20 -20 -20 -20 -20 -20 -20 -20 -20 -20 -20 -20 -20 -20 -20 -20 -20 -20 -20 -20 -20 -20 -7 -16 -10 -16 -20 -20 -20 -20 -20 -20 -20 -20 -20 -20 -20 -20 -20
-20 -20 -20 -20 -20 -20 -20 -20 -20 -20 -20 -20 -20 -20 -20 -20 -20 -8 -20 -20 -17 10 3 -16 12 -18 -20 8 3 8 11 9 -17 -20 -20 -20 -20 -20 -20 -20 -20 -20 -20
-20 -20 -20 -20 -20 -20 -20 -20 -20 -20 -20 -20 -20 -20 -20 -20 -20 10 -4 -20 -2 -20 14 15 -10 14 8 -20 -20 -17 15 27 6 4 -20 -20 -20 -20 -20 -20 -20 -20 -20
-20 -20 -20 -20 -20 -20 -20 -20 -20 -20 -20 -20 -20 -18 -10 4 -10 -19 -20 -20 -20 -20 12 -20 3 -11 -20 -20 -20 -20 -20 -14 22 28 0 11 -17 -20 -20 -20 -20 -20 -20
-20 -20 -20 -20 -20 -20 -20 -20 -15 -10 -20 -13 -4 -20 -17 -6 -20 -18 -20 -20 -20 -20 -20 -20 -20 -20 -20 -20 -20 -20 -20 -20 -7 12 -2 27 6 10 -15 -20 -20 -20 -20
-20 -20 -20 -20 -20 -20 -12 1 4 8 3 9 8 1 -16 -20 -17 -20 -20 -20 -20 -20 -20 -20 -20 -20 -20 -20 -20 -20 -20 -20 -20 -14 5 28 28 24 6 -7 -20 -20 -20
-20 -20 -20 -20 -20 -20 3 -6 -14 5 -3 -20 7 -20 -20 -20 -20 -20 -20 -20 -20 -20 -20 -15 -20 -20 -20 -20 -20 -20 -20 -20 -20 -20 -20 -20 -9 15 22 28 -20 -11 21
-14 -8 -18 -9 -1 -9 -18 -13 0 6 7 -20 2 -20 -20 -20 -20 -20 -20 -20 -20 -20 -10 -4 -20 -20 -20 -20 -20 -20 -20 -20 -20 -20 8 6 -20 -20 -14 26 28 26 -20
20 16 8 -8 -18 -17 3 -13 -5 -3 -13 -20 -20 -18 -20 -20 -20 -20 -20 -20 -20 -9 -11 -19 -20 -20 -20 -20 -20 -20 -20 -20 -20 -20 -20 -20 -18 14 -4 -17 -20 26 4
22 -18 -20 -20 -20 -20 -20 -20 -20 -20 -20 -20 -20 -20 -20 -20 -5 -20 -20 -20 -20 -20 -20 -20 -20 -20 -20 -20 -20 -20 -20 -20 -20 -20 -20 -20 -16 7 15 6 15 -12 23
31 30 30 24 -12 -20 -20 -19 -20 -20 -20 -20 -20 -20 -20 -20 -20 -20 -20 -20 -20 -20 -20 -20 -20 -20 -20 -20 -20 -20 -20 -20 -19 -19 -20 -20 -15 15 5 4 16 11 -1
24 28 25 19 -17 -20 -20 -20 -20 -20 -20 -20 -20 -20 -20 -20 -20 -20 -20 -20 -20 -20 -20 -20 -15 -20 -14 -20 -20 -20 -20 -20 -17 14 13 14 15 17 15 -1 -20 -20 -3
26 18 -19 -20 -20 -20 -20 -20 -20 -20 -20 -20 -20 -20 -20 -20 -20 -20 -20 -20 11 4 0 5 -11 -4 -17 -20 -20 -20 -20 -20 -20 -4 5 18 14 13 15 -3 -14 -20 -15
-11 -20 -20 -20 -20 -7 2 -15 -20 -20 -20 -20 -20 -20 -20 -15 -20 -20 -9 12 1 -12 2 -19 7 -18 -20 -20 -20 -20 -20 -20 7 -1 -18 11 0 13 17 19 15 14 13
-20 -19 -13 -3 -20 -20 -17 -20 -20 -20 -20 -20 -20 -20 -20 -20 -20 -14 -20 -15 10 11 -5 5 17 -20 -20 -20 -20 -20 -20 -20 -20 -3 6 10 2 10 1 -3 -1 10 -1
24 18 -9 -20 -20 -20 -20 -20 -20 -20 -20 -20 -20 -11 -17 -20 -20 -20 -20 -20 1 8 16 -1 -19 -20 -20 -20 -20 -20 -20 -20 -5 -17 -19 -20 -20 -5 -9 -19 -20 -20 -11
-20 -20 -20 -5 -20 -20 -20 -20 -20 -20 -19 -20 -14 -12 -0 -2 4 -20 -18 -5 -20 -20 -20 -20 5 -19 -20 -20 -20 -20 -20 -20 -20 -17 1 -20 -20 -20 -20 -20 2 -20 -11
-20 -20 -20 -20 -20 -20 -20 -20 -20 -20 -20 -20 -20 5 6 12 2 5 -17 -20 -20 -20 -20 -20 -20 -20 7 -20 -20 -20 -20 -20 -20 -20 -20 -20 -20 -20 -20 -20 -20 -20 -20
-20 -20 -20 -20 -20 -20 -20 -20 -20 -20 -20 -15 -0 9 15 4 11 -5 7 -16 -20 -20 -20 -20 -20 -20 -20 -20 -20 -20 -20 -20 -20 -20 -20 -20 -20 -20 -20 -20 -20 -20 -20
-20 -20 -20 -20 -20 -20 -20 -20 -20 -20 -20 -16 -11 -20 -13 -13 -20 -20 -20 -20 -20 -20 -20 -20 -20 -20 -20 -20 -20 -20 -20 -20 -20 -20 -20 -20 -20 -20 -20 -20 -20 -20 -20
-20 -20 -20 -20 -20 -20 -20 -20 -20 -20 -20 -9 -20 -20 -20 -1 9 4 -16 -20 -20 -20 -20 -20 -20 -20 -20 -20 -20 -20 -20 -20 -20 -20 -20 -20 -20 -20 -20 -20 -20 -20 -20
-20 -20 -20 -20 -20 -20 -20 -20 -20 -20 -11 -17 -20 -20 -20 6 -7 10 12 7 -11 -20 -20 -20 -20 -20 -20 -20 -20 -20 -20 -20 -20 -20 -20 -20 -20 -20 -20 -20 -20 -20 -20
-20 -20 -20 -20 -20 -20 -20 -11 -5 -20 6 -20 -20 -20 -20 -20 2 -20 -14 -20 -17 -8 -20 -20 -20 -20 -20 -18 -19 -20 -20 -20 -20 -20 -20 -20 -20 -20 -20 -20 -20 -20 -20
-20 -20 -20 -20 -20 -20 -15 4 12 -20 -20 -20 -20 -20 -20 -20 -20 -20 -20 -20 -20 -20 -20 -20 -14 -20 -20 -20 -20 -20 -20 -20 -20 -20 -20 -20 -20 -20 -20 -20 -20 -20 -20
-20 -20 -20 -20 -20 -20 1 6 2 -20 -20 5 -2 -20 -20 -20 -20 -20 -20 -20 -20 -20 -20 -20 -20 -20 -20 -20 -20 -20 -20 -20 -20 -20 -20 -20 -20 -20 -20 -20 -20 -20 -20
-20 -20 -13 -20 -16 -19 14 -20 -20 -20 -20 -20 -20 -20 -20 -20 -20 -20 -18 -20 -20 -20 -20 -20 -20 -20 -20 -20 -20 -20 -20 -20 -20 -20 -20 -20 -20 -20 -20 -20 -20 -20 -20

GFSMA_prec_radar_069.txt.gz
Reflectivity
-20 -20 -20 -20 -20 -20 -20 -20 -20 -20 -20 -20 -20 -20 -20 -20 -20 -20 -20 -20 -20 -20 6 -17 -20 -5 -20 -20 -12 -7 6 -4 -14 -20 -20 -20 -20 -20 -20 -20 -20 -20 -20
-20 -20 -20 -20 -20 -20 -20 -20 -20 -20 -20 -20 -20 -20 -20 -20 -20 -20 -20 7 5 14 1 -20 13 -9 -20 -20 -20 14 -2 10 2 3 -17 -20 -20 -20 -20 -20 -20 -20 -20
-20 -20 -20 -20 -20 -20 -20 -20 -20 -20 -20 -20 -20 -20 -20 -20 -20 -20 9 9 9 3 15 1 13 -1 -20 -20 -20 -20 -18 16 15 25 -17 -20 -20 -20 -20 -20 -20 -20 -20
-20 -20 -20 -20 -20 -20 -20 -20 -20 -20 -20 -20 -20 -20 -20 -18 -19 -16 -20 1 5 -20 9 1 -20 -20 -20 -20 -20 -20 -20 -20 -20 -20 13 -10 3 -11 -20 -20 -20 -20 -20
-20 -20 -20 -20 -20 -20 -20 -20 -20 -20 -20 -20 -20 -20 -19 -20 -20 -20 -20 -20 -20 -20 -20 15 -20 -20 -20 -20 -20 -20 -20 -3 -20 -15 -20 15 25 12 6 -20 -20 -20 -20
-20 -20 -20 -20 -20 -20 -20 -20 -20 -20 -19 -15 10 1 -20 -20 -20 -20 -20 -20 -20 -20 -20 -20 -20 -20 -20 -20 -20 -20 -20 -20 -20 -20 -20 -20 -20 7 22 6 -20 -20 -20
-20 -20 -20 -20 -20 -20 -20 -20 -11 -8 -5 -20 1 -20 -20 -20 -20 -20 -20 -20 -20 -20 -20 -20 -20 -14 -17 -20 -20 -20 -20 -20 -20 -20 4 -20 -20 -20 -6 -14 29 -20 -20
13 -19 -19 -20 -20 -12 -13 -17 -19 -3 -9 -20 -8 -20 -11 -20 -20 -20 -20 -20 -20 -20 -20 -20 -19 -2 -20 -20 -20 -20 -20 -20 -20 -20 10 14 11 9 -20 -20 -20 23 17
14 9 9 13 -15 25 8 -5 2 -7 -14 -20 -20 -7 -11 -20 -20 -20 -20 -20 -20 -20 -20 -20 -4 -18 -20 -20 -20 -20 -20 -20 -20 -20 -20 -18 -16 -18 -1 1 5 -15 28
14 16 10 32 30 30 -13 -17 -20 -4 -18 -20 -20 -20 -20 -20 -20 -20 -20 -20 -20 -20 -20 -20 -20 -20 -20 -20 -20 -20 -20 -20 -20 -20 -20 -20 -20 8 15 11 10 6 4
19 27 34 29 19 23 15 30 -6 -20 -20 -20 -20 -20 -20 -20 -20 7 -12 -20 -20 -20 -20 -20 -20 -20 -20 -20 -20 -20 -20 -20 -20 10 -19 16 11 13 14 3 -20 3 -1
28 -3 31 25 19 21 30 7 -9 -20 -20 -20 -20 -20 -20 -20 -20 -20 -20 -20 -20 -20 -20 -20 -20 -19 -20 -17 13 -18 -20 -20 -20 -17 13 14 16 19 18 19 17 -20 -20
30 31 22 20 22 12 -17 -20 -20 -20 -20 -20 -20 -20 -20 -20 -20 -20 -20 -19 -20 -20 -20 -20 -13 -12 -20 -20 -7 -20 -20 -20 -20 -20 8 9 -4 10 12 13 -8 14 -7
32 23 15 28 -13 -18 -20 -20 -20 -20 -20 -20 -20 -20 -20 -20 -20 -20 1 -1 2 -2 -20 12 4 -20 -14 5 15 -10 -20 -20 -20 -20 -20 2 -3 4 16 15 11 7 13
28 20 -13 -11 -11 -20 -20 -20 -20 -20 -20 -20 -20 -20 -20 -20 -20 2 12 19 16 10 4 6 -20 -16 -11 19 11 -19 -20 -20 -20 -20 -20 -20 -20 -20 6 11 5 16 -1
-20 -20 -19 -12 -20 -16 -20 -20 -20 -20 -20 -20 -20 -20 -20 -20 -20 4 -20 -20 16 13 -0 -12 10 23 3 -6 -14 -20 -20 -20 -9 -11 -20 -20 -20 -14 11 4 -2 -4 8
9 0 -1 -20 -20 -20 -20 -20 -20 -20 -20 -20 -20 -20 -20 -20 -20 -20 -20 -20 -2 5 -6 17 -11 -16 -19 -20 -20 -19 -20 -20 -20 -18 11 -12 -20 -20 -20 -19 -9 -20 3
-20 -16 -20 -20 -20 -20 -20 -20 -20 -20 -20 -20 -20 -20 -20 -20 6 -9 -16 -12 8 -3 -16 -18 -20 -20 -20 -20 -20 -20 -20 -20 -20 -20 -20 -20 -20 -20 -20 -10 -20 -20 -20
-20 -20 -20 -20 -20 -20 -20 -20 -20 -20 -20 -20 -20 -20 -17 -19 -4 12 -11 1 3 5 -20 -20 -19 -20 -20 -20 -20 -20 -20 -20 -20 -20 -20 -20 -20 -20 -20 -20 -20 -20 -20
-20 -20 -20 -20 -20 -20 -20 -20 -20 -20 -20 -20 -20 -11 12 1 10 9 11 9 11 12 -6 -20 -20 -20 -15 -20 -20 -20 -20 -20 -20 -20 -20 -20 -20 -20 -20 -20 -20 -20 -20
-20 -20 -20 -20 -20 -20 -20 -20 -20 -20 -20 -20 -20 -9 11 17 16 4 -20 -11 -16 -20 -20 -20 -20 -20 -20 -20 -20 -20 -20 -20 -20 -20 -20 -20 -20 -20 -20 -20 -20 -20 -20
-20 -20 -20 -20 -20 -20 -20 -20 -20 -20 -20 -20 -2 -4 10 13 11 12 10 -17 -20 -20 -20 -20 -20 -20 -20 -20 -20 -20 -20 -20 -20 -20 -20 -20 -20 -20 -20 -20 -20 -20 -20
-20 -20 -20 -20 -20 -20 -20 -20 -8 -20 -20 -20 9 4 11 4 6 -20 12 10 4 1 -1 -20 -20 -20 -20 -20 -20 -20 -20 -20 -20 -20 -20 -20 -20 -20 -20 -20 -20 -20 -20
-20 -20 -20 -20 -20 -20 -20 -14 -20 -20 -20 -2 -17 -20 -17 -20 -8 -14 -20 -20 -20 -20 -20 -20 -20 -20 -20 -20 -20 -20 -20 -20 -20 -20 -20 -20 -20 -20 -20 -20 -20 -20 -20
-20 -20 -20 -20 -20 -20 -20 -20 -20 -20 -20 -20 -3 -18 -20 -20 2 -20 -20 -20 -20 -19 -11 -12 -20 -20 -20 -20 -20 -20 -20 -20 -20 -20 -20 -20 -20 -20 -20 -20 -20 -20 -20
-20 -20 -20 -20 15 -20 -20 1 -19 -20 -20 -20 -20 -20 -4 -20 -20 -20 -20 -20 -20 -20 -20 -20 -20 -20 -20 -20 -20 -20 -20 -20 -20 -20 -20 -20 -20 -20 -20 -20 -20 -20 -20

GFSMA_prec_radar_072.txt.gz
Reflectivity
-20 -20 -20 -20 -20 -20 -20 -20 -20 -20 -20 -20 -20 -20 -20 -20 -20 -20 -20 -20 -12 -14 3 -20 -20 8 18 -19 24 9 -3 -7 7 -10 -20 -20 -20 -20 -20 -20 -20 -20 -20
-20 -20 -20 -20 -20 -20 -20 -20 -20 -20 -20 -20 -20 -20 -20 -20 -20 -20 -20 -10 13 11 5 7 1 6 12 -20 16 14 -5 -20 1 -12 -20 -20 -20 -20 -20 -20 -20 -20 -20
-20 -20 -20 -20 -20 -20 -20 -20 -20 -20 -20 -20 -20 -20 -20 -20 -20 -20 -20 -20 3 -9 -4 -20 15 8 -20 -20 -17 -20 -20 -20 -20 13 -11 -5 -20 -20 -20 -20 -20 -20 -20
-20 -20 -20 -20 -20 -20 -20 -20 -20 -20 -20 -20 -20 -20 -20 -20 -20 -20 -20 -20 -20 -20 -16 0 -16 -2 -20 -20 -20 -20 -7 -20 -20 -20 6 21 -13 7 -17 -20 -20 -20 -20
-20 -20 -20 -20 -20 -20 -20 -20 -20 -20 -20 -20 -20 -20 -20 -20 -20 -20 -20 -20 -20 -20 -20 -20 -19 -17 -20 -20 -20 -20 -20 -20 -20 -20 -20 -20 3 23 9 -2 -20 -20 -20
-20 -20 -20 -20 -20 -20 -20 -20 -20 -20 0 -7 -20 -20 -20 -20 -20 -20 -20 -20 -20 -20 -20 -20 -20 -20 -20 5 -20 -20 -20 -20 -20 -20 -20 -20 -20 -19 -5 28 11 -20 -20
9 18 -11 -20 -20 -20 -20 -20 -5 7 6 6 -9 -20 -20 -20 -20 -20 -20 -20 -20 -20 -20 -20 -20 -20 0 6 -20 -20 -20 -20 -20 -20 10 3 -16 -20 -20 -20 15 23 -20
3 16 12 -14 -20 -20 -13 1 -8 -20 -16 2 12 -2 -20 -20 -20 -20 -20 -20 -20 -20 -20 -20 -20 -14 -15 -20 -20 -20 -20 -20 -20 -20 -20 -10 1 -13 -20 -20 -19 -19 23
-20 -19 -20 -20 -14 6 -11 -20 -16 -2 10 -20 -9 10 -1 -20 -20 -20 -20 -20 -20 -20 -20 -20 -20 -20 -20 -20 -20 -20 -20 -20 -20 -20 -20 -20 -6 1 12 6 1 -20 -20
-1 -20 17 8 29 30 31 28 25 2 -19 -11 -20 -20 -20 -20 -20 -20 -20 -20 -20 -20 -20 -20 -20 -20 -20 -20 -20 -20 -20 -20 -20 3 -20 -12 -2 9 13 -16 -13 6 -3
31 27 29 29 24 32 22 20 28 18 -9 12 -20 -20 -20 -20 -20 -3 -20 -20 -20 -20 -20 -20 -20 -20 -20 -20 -20 -20 -20 -20 -20 5 15 12 11 14 16 18 -12 -20 -4
30 28 32 28 23 21 20 27 15 21 27 -16 -20 -20 -20 -20 -20 -20 4 -20 -20 -20 -20 -17 -20 -20 -20 -20 5 -20 -4 -20 -20 -10 -6 5 -20 12 19 11 -5 16 1
23 25 29 22 25 24 29 20 18 23 11 -19 -20 -20 -20 -20 -20 -20 -20 -12 -6 -20 2 12 -20 -20 -20 -0 -20 -20 7 -7 -20 -20 -15 12 12 11 13 16 18 17 13
26 29 28 41 29 27 17 -18 -17 -20 -20 -20 -20 -20 -20 -20 -20 -20 -20 -20 -19 -4 -18 -20 -7 -20 3 -14 -16 -5 2 -20 -20 -20 12 11 -11 4 9 12 11 1 17
27 21 31 27 26 24 7 -20 -20 -19 -20 -20 -20 -20 -20 -20 -20 -20 -19 -1 2 14 -8 -5 -9 -15 15 -20 -15 -1 1 -1 -7 1 3 -20 -20 0 3 -8 -14 -13 2
17 19 6 -16 -17 -20 -20 -20 -20 -20 -20 -20 -20 -20 -20 -20 -20 -20 -20 -20 -19 -2 13 -20 1 6 -14 -6 22 13 -18 -3 -20 -20 -20 -20 -20 -20 -20 10 -11 -15 -12
-20 -20 -20 -20 -20 -20 -20 -20 -20 -20 -20 -20 -20 -20 -20 -20 -20 -20 -20 -20 -3 -6 10 -7 -20 -13 7 9 8 -7 -13 -20 -20 -20 3 -20 -20 -20 -20 -20 -20 -20 -20
-20 -20 -20 -20 -20 -20 -20 -20 -20 -20 -20 -20 -20 -20 -20 -20 -20 -12 -1 -20 -3 -10 -19 7 12 3 5 -7 11 -19 -15 -11 -20 -20 -20 -20 -20 -20 -16 -3 -20 -20 -20
-20 -20 -20 -20 -20 -20 -18 -20 -20 -20 -20 -20 -20 -20 -20 -20 -20 4 0 9 2 10 5 1 7 -20 -20 -4 -20 -20 -20 -20 -20 -20 -20 -20 -20 -20 -20 -20 -20 -20 -20
-20 -20 -20 -20 -20 -20 -20 -20 -20 -20 -20 -20 -20 -20 -20 -20 -8 7 3 10 12 8 -16 -13 8 3 -20 -20 -20 -12 -20 -20 -20 -20 -20 -20 -20 -20 -20 -20 -20 -20 -20
-20 -20 -20 -20 -20 -20 -20 -20 -20 -20 -20 -20 -20 -20 -20 3 9 10 1 5 17 13 9 13 -20 -20 -20 -20 -20 -20 -20 -20 -20 -20 -20 -20 -20 -20 -20 -20 -20 -20 -20
-20 -20 -20 -20 -20 -20 -20 -20 -20 -20 -20 -20 -20 -20 -16 8 7 9 7 13 1 -18 10 -20 -20 -20 -20 -20 -20 -20 -20 -20 -20 -20 -20 -20 -20 -20 -20 -20 -20 -20 -20
-20 -20 -20 -20 -20 -20 -20 -20 -20 -20 -20 -20 -20 -20 -20 -12 7 -9 14 10 8 13 12 -3 -7 -20 -20 -20 -20 -20 -20 -20 -20 -20 -20 -20 -20 -20 -20 -20 -20 -20 -20
-20 -20 -20 -20 -20 -20 -20 -20 -20 -20 -20 -20 -20 -20 -20 -14 -1 -3 -12 -2 -20 -20 -20 -18 -20 -20 -20 -20 -20 -20 -20 -20 -20 -20 -20 -20 -20 -20 -20 -20 -20 -20 -20
-20 -20 -20 -20 -20 -20 -20 4 2 -20 -20 -20 -20 -20 -1 -20 18 7 -20 -20 -20 -20 -20 -20 -20 -16 -13 -17 -8 -8 -20 -20 -20 -20 -20 -20 -20 -20 -20 -20 -20 -20 -20
-20 -20 -20 -20 -20 -20 8 -5 -9 -20 -20 -20 -20 -4 10 -0 11 -20 -20 -20 -20 -20 -20 -20 -20 -19 -16 -20 -20 -20 -20 -20 -20 -20 -20 -20 -20 -20 -20 -20 -20 -20 -20

GFSMA_prec_radar_075.txt.gz
Reflectivity
-20 -20 -20 -20 -20 -20 -20 -20 -20 -20 -20 -20 -20 -20 -20 -20 -20 -20 -20 -20 -20 13 -6 -8 -20 -20 11 20 15 18 -14 -20 -20 -20 -20 -20 -20 -20 -20 -20 -20 -20 -20
-20 -20 -20 -20 -20 -20 -20 -20 -20 -20 -20 -20 -20 -20 -20 -20 -20 -20 -20 -20 -20 -19 -20 -1 -12 -15 -20 -20 10 1 -20 -20 -20 -20 -14 -20 -20 -20 -20 -20 -20 -20 -20
-20 -20 -20 -20 -20 -20 -20 -20 -20 -20 -20 -20 -20 -20 -20 -20 -20 -20 -20 -20 -20 -20 -20 -20 15 7 13 -20 12 -20 -20 -20 -20 -20 -16 -16 -20 -20 -20 -20 -20 -20 -20
-20 -20 -20 -20 -20 -20 -20 -20 -20 -20 -20 -20 -20 -20 -20 -20 -20 -20 -20 -20 -20 -20 -20 -20 -20 -17 -20 -20 -20 -20 -18 -20 -20 -20 -20 -20 8 -9 -20 -20 -20 -20 -20
-20 -20 -20 -20 -20 -20 -20 -20 -20 -20 -20 -20 -20 -20 -20 -20 -20 -20 -20 -20 -20 -20 -20 -20 -20 -20 -20 -20 -20 -20 -20 -20 -20 -20 -20 -20 -20 -20 25 1 -20 -20 -20
16 -20 -20 -20 -20 -20 -20 -20 -20 -20 -20 -20 -4 -20 -20 -20 -20 -20 -20 -20 -20 -20 -20 -20 -20 -20 -20 -20 -20 -20 -20 -20 -20 -20 -20 -20 -20 -20 -20 6 21 -19 -20
30 -20 -10 -5 -20 -20 -20 -20 -20 -20 -20 2 9 -20 -20 -20 -20 -20 -20 -20 -20 -20 -20 -20 -20 -20 -20 -8 -20 -20 -20 -20 -20 -20 -20 -20 -10 -20 -20 -20 -20 24 -5
35 33 -7 9 -18 -20 -20 -20 4 11 15 -12 -2 -16 -20 -20 -20 -20 -20 -20 -20 -20 -20 -20 -20 -20 -20 -20 -16 -20 -20 -20 -20 -20 -20 -20 -20 11 -18 -20 -20 -20 -19
33 36 32 29 28 -18 -14 14 27 20 21 -20 -10 10 -14 -20 -20 -20 -20 -20 -20 -20 -20 -20 -20 -20 -20 -20 -20 -20 -20 -20 -20 -20 -20 -20 -20 -18 13 -7 -6 -2 -4
33 28 29 32 32 26 28 18 24 -5 24 17 -20 -20 -20 -20 -20 -20 -20 -20 -20 -20 -20 -20 -20 -20 -20 -17 -2 -20 -20 -20 -20 -20 6 10 11 10 3 -19 -20 -3 11
35 31 34 36 32 30 28 28 26 15 26 26 20 -18 -19 -20 -20 -20 -20 -20 -20 -20 -20 -20 -20 -20 -20 -20 -20 -20 -20 -20 -18 -20 -15 -9 -20 -8 11 11 10 -15 -20
28 17 32 35 35 34 35 31 22 15 20 26 29 16 -16 -20 -20 -20 -20 -20 -20 -20 -20 -20 -20 -11 -1 -20 -20 -20 -17 -16 -20 1 -20 7 9 2 11 18 3 11 -12
27 8 24 24 29 28 33 32 20 18 25 25 23 2 -19 -20 -20 -20 -20 -10 -20 -20 -20 -20 -20 -20 5 -20 -10 -20 -20 -20 -0 13 -19 3 -16 -2 5 10 8 12 13
12 19 21 27 32 26 36 37 27 25 14 11 5 10 7 -0 -20 -19 -19 -6 6 4 -20 -20 -20 -20 -20 -20 -20 12 -9 -20 -19 10 -20 -20 -20 -19 1 8 -2 -6 15
-20 -20 6 18 3 10 31 33 31 19 9 -15 -13 -20 -16 -17 -20 -19 -20 4 13 6 5 -20 -20 -20 -20 -20 4 -10 -20 13 -18 -0 -20 -20 -20 -20 -18 -3 5 -6 4
-20 -3 0 5 11 -20 -18 2 -12 -11 -12 -8 -17 -20 -19 -19 -20 -20 -20 -8 0 7 14 -20 -20 -20 -20 -16 7 -15 -12 14 11 -0 12 -20 -20 -17 -20 -14 9 1 -20
-20 -20 -20 -17 -19 -2 -8 -5 -5 -5 -13 -18 -20 -20 -20 -20 -20 -20 -20 -20 -19 -20 15 -20 -20 -5 0 -17 -15 9 10 -20 -13 -4 -19 -20 -20 -20 -9 -20 -14 8 -20
-20 -20 -20 -20 -20 -20 -20 -18 -10 -16 -20 -20 -20 -20 -20 -20 -20 -20 -20 -20 -20 -20 -20 -20 9 17 10 -3 -7 -14 -20 -20 -19 2 -20 -16 -20 -5 6 -20 -20 -20 -20
-19 -17 -20 -20 -20 -20 -20 -20 -20 -20 -20 -20 -20 -20 -20 -20 -20 -20 -20 -20 -13 -17 -3 -15 -12 2 -4 -14 -20 -16 11 3 -20 -8 -20 -16 -20 -20 -20 -20 -20 -20 -20
-20 -20 -20 -19 -20 -20 -20 -20 -20 -20 -20 -20 -20 -20 -20 -20 -20 -20 -20 -20 -18 -14 6 -4 6 4 13 2 -20 1 -20 -20 -20 -20 -17 -20 -20 -20 -20 -20 -20 -20 -20
-20 -20 -20 -20 -20 -20 -20 -20 -20 -20 -20 -20 -20 -20 -20 -20 -20 -1 -18 -20 -20 -19 -0 10 9 11 4 -16 5 -20 -20 -20 -20 -20 -20 -20 -20 -20 -20 -20 -20 -20 -20
-20 -20 -20 -20 -20 -20 -20 -20 -20 -20 -20 -20 -20 -20 -20 -20 -20 -16 -20 -20 -11 -20 -20 -16 2 -20 -20 11 1 11 -15 -20 -20 -20 -20 -20 -20 -20 -20 -20 -20 -20 -20
-20 -20 -20 -20 -20 -20 -20 -20 -20 -20 -20 -20 -20 -20 -20 -20 -20 -20 -4 -12 -18 -2 8 -16 -20 -5 -16 -5 -13 -20 -20 -20 -20 -20 -20 -20 -20 -20 -20 -20 -20 -20 -20
-20 -20 -20 -20 -20 -20 -20 -20 -20 -20 -20 -20 -20 -20 -20 -20 -14 -13 -20 -20 -20 -14 -17 -18 -20 -20 -20 -20 -20 -20 -18 -4 -13 -20 -20 -20 -20 -20 -20 -20 -20 -20 -20
-20 -20 -20 -20 -20 -20 -20 -20 5 -20 -20 -20 -20 -20 -20 -20 13 9 -20 -20 -20 -20 -20 -20 -20 -20 -20 -20 -20 2 -5 -20 -20 -20 -20 -20 -20 -20 -20 -20 -20 -20 -20
-20 -20 -20 -20 -20 -20 -20 -20 1 -20 -20 -20 -20 -20 -20 -13 9 -1 -20 -20 -20 -20 -20 -20 -20 -20 -20 -20 -18 -18 -17 3 3 -5 -19 -20 -19 -19 -11 -20 -20 -20 -20

GFSMA_prec_radar_078.txt.gz
Reflectivity
-20 -20 -20 -20 -20 -20 -20 -20 -20 -20 -20 -20 -20 -20 -20 -20 -20 -20 -20 -20 -20 -20 -20 -20 -20 -20 -20 -7 -18 -20 -20 -20 -20 -20 -20 -20 -20 -20 -20 -20 -20 -20 -20
-20 -20 -17 -20 -20 -20 -20 -20 -20 -20 -20 -20 -20 -20 -20 -20 -20 -20 -20 -20 -20 -20 -20 -20 13 2 -20 -18 15 -20 -20 -20 -20 -17 -12 -20 -20 -20 -20 -20 -20 -20 -20
-20 2 -16 -20 -20 -20 -20 -20 -20 -20 -20 -20 -20 -20 -20 -20 -20 -20 -20 -20 -20 -20 -20 -20 -20 16 15 11 13 -20 -13 -20 -20 -20 -20 -20 -1 -20 -20 -20 -20 -20 -20
-20 -12 -20 -20 -20 -20 -20 -20 -20 -20 -20 -20 -20 -20 -20 -20 -20 -20 -20 -20 -20 -20 -20 -20 -20 -20 15 6 -20 -20 -20 -20 -20 -20 -20 -20 -20 7 6 -20 -20 -20 -20
10 -20 -20 -20 -20 -20 -20 -20 -20 -20 -20 -20 -20 -20 -20 -20 -20 -20 -20 -20 -20 -20 -20 -20 -20 -20 -15 -20 -4 -20 -20 -20 -20 -20 -20 -20 -20 -20 2 26 -20 -20 -20
-20 -20 -20 -20 -20 -20 -20 -20 -20 -20 -20 -20 -20 -20 -20 -20 -20 -20 -20 -20 -20 -20 -20 -20 -20 -20 -20 -20 -20 -20 -20 -20 -20 -20 -20 -20 -20 -18 -20 -11 13 -8 -20
-20 -20 -6 9 -15 -20 -20 -20 -20 -20 -20 -20 -18 3 -20 -20 -20 -20 -20 -20 -20 -20 -20 -20 -20 -20 -20 -20 -20 -20 -20 -20 -20 -20 -20 -20 -20 -20 -20 -20 -14 -7 31
-20 -20 -20 20 -13 25 -20 -20 -20 -5 -20 -20 -19 -5 4 -20 -20 -20 -20 -20 -20 -20 -20 -20 -20 -20 -20 -20 -20 -20 -20 -20 -20 -20 -20 -20 -20 -20 -20 -20 -20 -13 6
-20 12 1 13 27 24 23 -2 3 26 23 10 -19 -18 -12 -20 -20 -20 -20 -20 -20 -20 -20 -20 -20 -20 -20 -20 -20 -20 -20 -20 -20 -20 -20 -20 -10 -9 2 1 -6 4 9
-20 -0 16 25 42 37 30 29 27 24 26 23 25 23 15 -19 -20 -20 -20 -9 -20 -20 -20 -20 -20 -20 -20 -20 -20 -20 -20 -20 -20 -7 6 -2 -16 -20 2 3 -1 -20 -12
29 23 29 38 35 39 32 32 35 24 16 4 4 19 9 19 -18 -0 -20 -20 -20 -20 -20 -20 -20 -20 -20 -20 -20 -17 -9 -20 -20 -20 -20 -18 -20 -20 -3 13 -20 5 7
35 37 38 36 37 38 28 28 33 37 26 20 19 -5 11 21 26 -10 -20 -20 -20 -20 -20 -20 -20 -20 -20 -20 -11 10 -3 -20 -20 -20 -20 -11 -20 -20 -0 14 21 14 7
24 26 25 33 32 28 28 21 31 19 36 28 24 23 22 15 18 6 -20 -20 -20 -20 -20 -20 -20 -20 -20 -20 -20 8 -12 3 -20 -20 -20 -20 -20 -20 -5 9 10 -16 10
22 10 9 10 22 17 24 19 36 21 11 33 31 31 20 -16 -18 -20 -16 -6 -14 -20 -20 -6 -20 -20 -20 -20 -20 -20 -20 -16 9 4 -9 4 -20 -20 0 -18 -11 2 -11
-14 20 23 18 -20 1 9 17 11 -19 10 15 31 15 -3 -20 -20 -20 -8 -5 -0 5 -19 -8 -20 -15 -20 -20 -19 -15 -20 -15 -5 -11 6 -20 -20 -20 -15 -0 7 -18 -20
-20 -20 -7 -12 -20 -20 -20 -16 4 -9 -16 3 12 9 -0 -6 -20 -17 -4 7 5 -4 10 -8 -20 -20 -20 -20 -20 -20 -20 1 -7 -16 6 11 -12 -20 -20 -3 -15 -20 -20
-20 -19 -14 -5 -20 -20 -20 -20 -12 7 4 -2 -3 0 2 -0 -3 -16 -13 -0 3 7 -1 -10 -17 -19 -20 -20 1 1 -1 -11 16 9 -12 -8 -20 -20 -20 -4 -20 -10 -20
-20 -20 -12 20 -20 -20 -20 -20 -20 -20 -20 -20 -20 -10 -13 -9 -3 -5 -19 -20 -4 1 -20 -18 -20 -19 -18 -0 7 -5 -15 -12 0 5 -20 -20 -16 -20 -4 -19 -20 -20 -2
-20 -20 -13 3 -20 -20 -20 -20 -20 -20 -20 -20 -20 -20 -20 -20 -20 -19 -18 2 -20 -20 -20 -20 -20 -20 -20 -18 -5 0 -1 -1 -19 16 8 -19 -16 -9 7 -6 -7 6 -12
-20 -20 -20 -20 -20 -20 -20 -20 -20 -20 -20 -20 -20 -20 -20 -20 -20 -20 1 2 -20 -20 -20 -20 -20 -20 -20 -14 -5 7 10 10 -12 0 11 -20 -20 -20 -20 -20 -17 -20 -20
-20 -20 -20 -20 -20 -20 -20 -20 -20 -20 -20 -20 -20 -20 -20 -20 -20 -20 -18 -11 -20 -20 -20 -20 -20 -18 -13 2 9 8 -9 11 1 -6 -20 -20 -20 -20 -20 -20 -20 -20 -20
-20 -20 -20 -20 -20 -20 -20 -20 -20 -20 -20 -20 -20 -20 -20 -20 -20 -20 -20 -20 -20 -20 -20 -20 -20 -13 9 11 18 14 -14 -13 -20 -20 -20 -20 -20 -20 -20 -20 -20 -20 -20
-20 -20 -20 -20 -20 -20 -20 -20 -20 -20 -20 -20 -20 -20 -20 -20 -20 -7 -20 -20 -20 -20 -20 -18 -20 -20 -20 5 -20 -20 -20 -20 -20 -20 -20 -20 -20 -20 -20 -20 -20 -20 -20
-20 -20 -20 -20 -20 -20 -20 -20 -20 -20 -20 -20 -20 -20 -20 -20 -18 -20 -20 -20 -20 -20 -20 -18 -20 -20 -20 -20 -20 -20 -20 -20 -20 -20 -20 -19 -20 -20 -20 -20 -20 -20 -20
-20 -20 -20 -20 -20 -20 -20 -20 -13 -20 -20 -20 -20 -20 -20 -20 -5 1 -20 -20 -20 -20 -20 -20 -20 -20 -18 -3 4 -20 -20 -20 -19 -3 -11 -20 -20 -11 -20 -20 -20 -20 -20
-20 -20 -20 -20 -20 -20 -20 -20 -20 -20 -20 -20 -20 -20 -20 -19 2 -20 -20 -20 -20 -20 -20 -20 -20 -20 -20 -20 -20 -20 -20 -20 -20 -20 -20 -20 -9 -3 -20 -19 -5 -20 -20

GFSMA_prec_radar_081.txt.gz
Reflectivity
-20 -20 -20 -20 -20 -20 -20 -20 -20 -20 -20 -20 -20 -20 -20 -20 -20 -20 -20 -20 -20 -20 -20 -20 -20 5 -16 16 12 -20 -20 -20 -11 -10 -8 -20 -20 -20 -20 -20 -20 -20 -20
-20 -20 -20 -20 -20 -20 -20 -20 -20 -20 -20 -20 -20 -20 -20 -20 -20 -20 -20 -20 -20 -20 -20 -20 -20 -0 16 16 -18 10 15 -20 -20 -20 -20 6 -20 -20 -20 -20 -20 -20 -20
-20 -20 -20 -20 -20 -20 3 -5 -20 -20 -20 -20 -20 -20 -20 -20 -20 -20 -20 -20 -20 -20 -20 -20 -20 -20 5 16 15 14 -20 -20 -20 -20 -20 -20 -18 -1 -20 -20 -20 -20 -20
-20 -20 -20 -20 -20 3 -4 -20 -20 -20 -20 -20 -20 -20 -20 -20 -20 -20 -20 -20 -20 -20 -20 -20 -20 -20 -20 -20 6 -20 -13 -20 -20 -20 -20 -20 -20 -20 11 8 -20 -20 -20
-12 -20 -20 -10 -20 -7 -20 -20 -20 -20 -20 -20 -20 -20 -8 -18 -20 -20 -20 -20 -20 -20 -20 -20 -20 -20 -20 -19 -20 3 -20 -20 -20 -20 -20 -20 -20 -20 -20 -6 24 -20 -20
-11 -20 -13 -9 6 11 -20 -20 -20 -20 -20 -20 -20 -18 -18 -20 -20 -20 -20 -20 -20 -20 -20 -20 -20 -20 -20 -20 -18 -20 -20 -20 -20 -20 -20 -20 -20 -20 -20 -20 -14 11 12
-20 9 8 3 -14 10 -20 -20 -20 -20 -20 -20 -18 3 -20 -20 -20 -20 -20 -20 -20 -20 -20 -20 -20 -20 -20 -20 -20 -20 -20 -20 -20 -20 -20 -20 -20 -20 -20 -20 -20 -20 -20
27 9 12 6 8 -20 -20 3 -20 -20 -20 -8 2 8 -3 -18 -20 -20 -20 -20 -20 -20 -20 -20 -20 -20 -20 -20 -20 -20 -20 -20 -20 -20 -20 -20 -20 -20 -20 -20 -20 -18 -9
4 2 12 1 -15 -20 5 9 26 19 4 2 -1 2 -5 -20 -20 -20 -20 -20 -20 -20 -20 -20 -20 -20 -20 -20 -20 -20 -20 -20 -20 -20 -20 -20 -20 -20 -20 -19 -20 -20 -20
5 19 22 18 -20 -3 -9 9 40 38 29 27 9 9 5 19 -20 -20 -20 -20 -20 -20 -20 -20 -20 -20 -20 -20 -20 -20 -20 -20 -20 -20 2 -2 -20 -20 -20 -20 15 8 -18
23 24 16 -13 11 8 11 13 24 35 44 39 27 31 23 5 3 22 1 15 -6 -3 -19 -20 -20 -20 -20 -20 -20 -20 -20 -20 7 -20 -20 -20 -20 -20 -20 17 8 -18 -20
33 26 28 31 26 -7 16 26 29 34 35 43 31 34 30 19 28 21 12 2 9 -20 -20 -20 -20 -20 -20 -20 -20 -20 -20 -20 6 -1 -19 -6 -10 -20 -11 8 6 9 14
8 17 14 11 22 23 27 32 25 25 33 33 31 30 34 33 35 28 3 3 -2 -18 -20 -20 -20 -20 -20 -20 -20 -20 -20 -20 -0 -17 -11 3 -14 -20 -15 -20 10 11 -20
-6 6 3 -5 9 13 18 27 26 26 30 26 30 20 34 38 30 19 -3 -20 -20 -20 -20 -20 -20 -20 -20 -20 -19 -16 -20 -20 -20 -20 -6 8 3 -19 -4 -1 7 4 -20
-6 7 19 21 18 25 4 -17 -16 4 5 11 22 23 14 15 22 -0 -11 -14 -19 -19 -20 -18 -14 -10 -20 -20 -20 -20 -20 -4 -9 -11 -17 5 -14 -1 3 9 -13 -20 -20
-18 7 1 -7 -12 -7 -9 4 20 1 -4 -3 -20 -17 -2 12 7 6 7 10 -0 -3 -8 -20 -20 -18 -16 -20 -20 -20 -20 -12 -7 -5 -12 -3 -8 9 2 -5 10 -10 -20
-20 -19 -15 -19 -14 -20 7 16 13 -16 -20 -20 -20 -13 -17 -19 -1 3 2 -8 1 -9 2 -17 -19 -19 -16 -18 -20 -20 -20 -16 -20 7 -18 11 -2 -20 4 11 -12 -19 -20
-20 -20 -20 -17 -5 23 11 -16 -2 -20 -20 -20 -20 -20 -20 -20 -19 -18 -10 -12 -8 -20 -15 -20 -20 -20 -20 -20 -20 -20 -16 -3 -8 14 -7 16 -0 -20 -19 -20 -20 -20 -17
-20 -20 -20 -18 6 17 18 -20 -20 -20 -20 -20 -20 -20 -20 -20 -20 -20 -20 -17 -8 -20 -20 -20 -20 -20 -20 -11 -20 -19 -6 -5 3 17 7 -9 -5 -20 -20 -20 -20 -20 -19
-20 -20 -20 -20 -10 -10 1 -16 -20 -2 -20 -20 -20 -20 -20 -20 -20 -20 -20 -20 -20 -20 -20 -20 -20 -20 -20 -20 -20 -20 -20 -20 -14 5 14 -5 -5 -20 -20 -20 -20 -20 -16
-20 -20 -20 -20 -20 -1 10 14 -20 -20 -20 -20 -20 -20 -20 -20 -20 -20 -20 -20 -20 -11 -20 -20 -20 -20 -20 -20 -20 -20 -20 2 9 0 -19 -19 -18 -20 -20 -20 -20 -20 -20
-20 -20 -20 -20 -20 -20 -20 9 5 -20 -20 -20 -20 -20 -20 -20 -20 -20 -20 -20 -10 -20 0 -20 -20 -20 -20 -20 -20 -20 -1 17 -5 -20 -20 -20 -20 -20 -20 -20 -20 -20 -20
-20 -20 -20 -20 -20 -20 -20 -20 -20 -20 -20 -20 -20 -20 -20 -20 -20 -20 -20 -20 -20 -14 -20 -18 -20 -20 -20 -20 -20 -20 1 -10 7 -19 -20 -20 -20 -20 -20 -20 -20 -20 -20
-20 -20 -20 -20 -20 -20 -20 -20 -20 -20 -20 -20 -20 -20 -20 -20 -10 -12 -20 -20 -20 -20 -20 -20 -20 -20 -20 -20 -20 -20 -6 -13 -18 -20 -20 -20 -20 -20 -20 -20 -20 -12 4
-20 -20 -20 -20 -20 -20 -20 -20 -20 -20 -20 -20 -20 -20 -20 -20 -20 -20 -20 -20 -20 -20 -20 -13 -11 -20 -16 8 4 -13 -19 -20 -20 -20 -20 -20 -20 -20 -20 -19 -10 -7 -20
-20 -20 -20 -20 -20 -20 -20 -20 -20 -20 -20 -20 -20 -20 6 -15 -20 -9 -14 -20 -20 -20 -20 -20 -20 -20 -20 -20 -20 -20 -20 -20 -20 -20 -20 -20 -20 -20 -10 -20 -20 -20 -20

GFSMA_prec_radar_084.txt.gz
Reflectivity
-20 -20 -20 -20 -20 -20 -20 -20 -20 -20 -20 -20 -20 -20 -20 -20 -20 -20 -20 -12 -20 -20 -20 -20 -20 14 12 7 24 -20 5 -20 -20 -20 -8 -20 -20 -20 -20 -20 -20 -20 -20
-20 -20 -20 -20 -20 -20 -20 -20 -20 -20 -20 -20 -20 -20 -20 -20 -20 -20 -13 -20 -20 -20 -20 -20 -20 -20 -12 10 -4 2 -14 -20 -20 -20 -20 -20 3 -20 -20 -20 -20 -20 -20
-20 -20 -20 -20 -20 -20 -20 -20 -20 -20 -18 -14 -20 -20 -20 -20 -20 -12 -20 -20 -20 -20 -20 -20 -20 -20 -20 -20 -19 -19 -20 -20 -20 -20 -20 -20 -20 -19 15 -20 -20 -20 -20
-20 -20 -20 -20 -20 -20 -20 -15 -20 -20 10 -20 -20 -20 -20 -20 -20 -18 -20 6 -1 -20 -20 -20 -20 -20 -20 -20 -9 12 -20 -20 -20 -20 -20 -20 -20 -20 -20 8 10 -20 -20
-20 -20 -20 -20 -20 -20 -20 -19 -20 -12 0 -19 -20 -20 -20 -9 -20 -20 -20 -20 -20 -20 -20 -20 -20 -20 -20 -20 -4 -15 -20 -20 -20 -20 -20 -20 -20 -20 -20 -20 -14 24 -0
-20 -20 -20 -20 -20 -20 -20 -20 -20 3 7 -20 -20 -20 -20 -19 -20 -20 -18 -20 -20 -20 -20 -20 -20 -20 -20 -20 -20 -20 -20 -20 -20 -20 -20 -20 -20 -20 -20 -20 -20 -20 4
25 6 -7 -19 -20 -20 -10 -18 -12 -8 6 -20 -20 -20 -20 -20 -20 -20 -20 -20 -20 -20 -20 -20 -20 -20 -20 -20 -20 -20 -20 -20 -20 -20 -20 -20 -20 -20 -20 -20 -20 -20 -20
-12 12 9 -18 -20 -8 -4 1 7 -3 1 -10 -20 -20 -5 -20 -20 -20 -20 -20 -20 -20 -20 -20 -20 -20 -20 -20 -20 -20 -20 -20 -20 -20 -20 -20 -20 -20 -20 -20 -19 -3 -6
4 10 -15 -20 -7 8 23 16 5 -11 -8 -19 14 10 -8 -20 -20 -20 -20 -20 -20 -20 -20 -20 -20 -20 -20 -20 -20 -20 -20 -20 -20 -20 -20 -20 -20 -20 -20 -20 -14 10 -4
22 23 21 17 16 17 16 15 7 21 15 30 33 31 29 15 -13 -20 -20 -5 -20 -20 -20 -20 -20 -20 -20 -20 -20 -20 -20 -20 -15 -20 1 -20 -20 -20 -20 -20 5 -7 -17
34 23 11 8 13 21 25 22 5 8 9 11 19 27 36 38 27 13 5 8 10 21 11 -18 -6 -20 -20 -20 -20 -20 -20 -20 -20 -19 -20 -19 -20 -20 -20 -5 9 2 4
18 13 8 -6 3 3 8 -7 6 -11 14 18 20 26 38 38 37 33 35 34 32 7 -19 4 -20 -20 -20 -20 -20 -20 -20 -20 -20 -20 -20 -20 -20 -20 -20 -19 6 8 -2
11 16 19 21 17 1 1 -16 -5 3 21 18 26 25 32 37 35 36 33 30 24 -20 -20 -20 -20 -20 -20 -20 -20 -20 -20 -20 -20 -20 -20 -14 -20 -20 -20 -20 -9 -5 -11
-20 -9 -6 -11 16 -20 -20 16 22 35 32 31 25 32 32 33 31 21 11 22 12 4 -17 -20 -18 -8 -14 -20 -20 -20 -20 -20 -20 -20 -13 -20 -17 3 -20 -20 -20 -2 5
4 -10 33 -9 2 2 5 -20 1 22 26 -2 -20 -10 5 17 16 18 12 18 14 8 -6 -10 -20 -20 -20 -20 -20 -20 -20 -20 12 -12 7 -20 -7 -5 -19 -20 -20 11 -2
-2 -2 3 8 10 -18 -2 -9 -18 -3 20 14 30 -20 -20 -19 -16 -19 -20 -19 -11 -4 2 6 -2 -17 -20 -20 -16 -19 -20 -20 -16 6 -7 -20 -20 -10 -20 -20 -19 5 1
-20 -20 -20 -16 -8 -10 -2 4 -5 -12 -3 20 23 -20 -18 -10 -8 -9 -17 -19 -20 -17 -8 -19 -20 -20 -20 -20 -20 -20 -12 -20 -15 -7 -6 -12 -10 -10 2 -20 9 9 -20
-20 -20 -19 -16 -20 -16 -3 8 4 15 18 12 -2 -7 -5 -16 -20 -9 -11 -15 -20 -14 -20 -15 -20 -20 1 -20 -20 -20 -19 -12 -12 -9 -2 -7 1 -20 -20 -20 -20 -19 -20
-20 -20 -20 -20 -20 -16 -9 -2 17 6 11 -7 -14 -11 -7 -7 -1 -14 -20 -20 -20 -20 -20 -20 -20 2 -15 5 -20 -20 -20 -20 -20 -18 -4 2 2 7 -16 -20 -20 -20 -20
-20 -20 -20 -20 -20 -20 -10 8 4 17 -9 -20 -20 -8 -20 -20 -20 -20 -20 -20 -20 -20 -20 -12 4 -6 -20 -13 -20 -20 -20 -20 -20 -20 7 -10 5 2 -18 -20 -20 -20 -20
-20 -20 -20 -20 -20 -20 -20 -17 13 10 4 -20 17 -20 -20 -20 -20 -20 -20 -20 -20 -20 -20 -9 0 -18 -15 -14 -20 -20 -20 -20 -20 -18 -0 6 6 -11 -13 -20 -20 -20 -20
-20 -20 -20 -20 -20 -20 -20 -20 -20 -18 14 15 -19 -20 -20 -8 -20 -20 -20 -20 -20 -20 -20 -20 -20 -6 -16 -20 -20 -20 -20 -12 -12 -20 -20 -10 -10 -20 -20 -20 -20 -20 -20
-20 -20 -20 -20 -20 -20 -20 -20 -20 -20 -20 -20 -9 -14 -20 -20 -13 -20 -20 -20 -20 -20 -20 -20 -16 3 -14 -20 -20 -20 -20 5 -5 -0 -8 -20 -20 -20 -20 -20 -20 -20 -20
-20 -20 -20 -20 -20 -20 -20 -20 -20 -20 -20 -20 -20 -18 -13 -20 -20 -20 -20 -20 -20 -20 -20 -17 -20 -20 -20 -20 -20 -20 -19 -3 -4 -14 -19 -20 -20 -20 -20 -20 -20 -20 -20
9 -20 -20 -20 -20 -20 -20 -20 -20 -20 -20 -20 -20 -20 -20 -20 -20 -2 -20 -20 -20 -20 -20 -20 -20 -20 -7 -11 1 -20 -20 -20 -20 -20 -20 -20 -20 -20 -20 -20 -20 -20 -18
-14 -5 -12 -20 8 -20 6 -20 -20 -20 -20 -20 -20 -20 -11 -20 2 9 -20 -20 -20 -20 -20 -20 -20 -20 -9 -19 -9 -20 -20 -20 -20 -20 -20 -20 -20 -20 -20 -20 -20 -20 -20

GFSMA_prec_radar_087.txt.gz
Reflectivity
-20 -20 -20 -20 -20 -20 -20 -20 -20 -20 -20 -20 -20 -20 -20 -20 -20 -20 -20 -14 -20 -20 -20 -20 -20 -20 -20 -20 12 -5 -17 -20 -20 -20 -20 -20 -20 -20 -20 -20 -20 -20 -20
-20 -20 -20 -20 -20 -20 -20 -20 -20 -20 -20 -20 -20 -20 -20 -20 -20 -20 -20 -1 -20 -20 -20 -20 -20 -14 -20 -20 13 12 -2 -20 -20 -20 -20 -20 1 12 -20 -20 -20 -20 -20
-20 -20 -20 -20 -20 -20 -20 -20 -20 -20 -20 -20 -20 -20 -20 -20 -20 -20 -20 -20 -20 -20 -20 -20 -20 -20 -20 -20 -20 -7 -20 -20 -20 -20 -20 -20 -20 -20 -20 14 -20 -20 -20
-20 -20 -20 -20 -20 -20 -20 -20 -20 -20 -20 -20 -20 -17 -15 -9 -20 -20 2 -10 -20 -20 -20 -20 -20 -20 -20 -20 4 -1 -20 -20 -20 -20 -20 -20 -20 -20 -20 -20 2 -6 -20
-20 -20 -20 -20 -20 -20 -20 -20 -20 -20 -20 -20 -20 -8 -20 -7 -20 -11 -20 -20 -20 -20 -20 -20 -20 -20 -20 -20 -17 -1 -20 -20 -20 -20 -20 -20 -20 -20 -20 -20 -20 -4 20
-20 -20 -20 -20 -20 -20 -20 -20 -20 -20 -20 -20 -20 -20 -2 15 -20 9 -6 -20 -6 -20 -20 -20 -20 -20 -20 -20 9 -7 -20 -20 -20 -20 -20 -20 -20 -20 -20 -20 -20 -20 -20
-20 -20 -20 -20 -20 -20 -16 -19 -20 -20 -20 -20 -20 -20 -16 4 -20 -18 1 -20 -20 -20 -20 -20 -20 -20 -20 -20 -13 -3 -20 -20 -20 -20 -20 -20 -20 -20 -20 -20 -20 -20 -20
3 -20 -19 -18 -20 -17 -20 -20 -7 4 -12 -12 -18 -19 4 10 -20 -20 -20 -20 -20 -20 -20 -20 -20 -20 -20 -20 -20 -20 -20 -20 -20 -20 -20 -20 -20 -20 -20 -20 -20 -16 -14
27 27 28 7 -20 10 -5 9 14 7 -2 3 -10 -11 -1 -16 -20 -20 -20 -20 -20 -20 -20 -20 -20 -20 -20 -20 -20 -20 -20 -20 -20 -20 -20 -20 -20 -20 -20 -20 -4 9 1
34 28 34 20 10 -0 -0 14 19 21 22 22 27 25 8 -5 -6 18 11 17 -1 -20 -20 -20 -20 -20 -20 -20 -20 -20 -20 -20 -20 -20 -0 -20 -20 -20 -20 -20 -10 11 12
25 22 29 29 29 31 30 20 -1 7 16 23 25 30 24 29 22 23 29 25 5 17 -16 -12 -5 -20 -20 -20 -20 -20 -20 -20 -20 -20 -20 -20 -20 -20 -20 -20 -1 -1 9
29 29 25 18 24 5 -5 22 10 -14 -20 -20 -20 1 11 20 18 28 31 35 31 25 30 32 27 -10 -20 -20 -20 -20 -20 -20 -20 -20 -20 -0 -15 -20 -20 -20 -20 -0 7
23 3 25 21 12 19 6 4 3 5 -19 -20 1 -20 -20 5 1 15 18 33 36 32 27 20 -5 -4 -20 -20 -20 -20 -20 -20 -20 -20 -20 14 -20 -20 -20 -20 -18 -1 -19
-9 -20 -14 -3 -18 -14 -0 11 12 8 -20 23 24 18 1 24 17 24 24 34 26 27 16 18 -11 -20 -20 -20 -20 -20 -20 -20 -20 -20 4 11 -17 -20 -20 -12 -3 -18 -20
23 -16 -7 28 30 12 9 -0 13 21 -18 4 15 21 18 12 16 -13 10 16 -8 4 -16 3 -20 3 -17 -20 -20 -20 -20 -20 -20 -20 8 2 -15 -20 -19 7 -10 -20 8
13 25 28 30 29 27 17 21 -20 14 6 -7 8 4 23 28 20 21 9 12 9 3 -3 -18 -20 -20 -7 -18 3 -8 -14 -17 -16 -14 -9 11 -5 -20 -20 -20 -10 -20 5
-8 -17 -20 -20 -19 -20 -20 -16 5 1 -8 4 -4 14 26 26 -19 -9 -12 -3 -1 -7 -15 -7 -17 -19 -20 -20 -20 -19 -20 -20 -9 12 -11 -20 -0 6 0 6 13 4 4
-20 -20 -20 -20 -20 -20 -20 -20 -19 5 8 19 1 15 20 5 -8 -20 -20 -20 -19 -17 -20 -20 -20 -20 -20 -20 -20 -20 -20 -20 -17 -20 -20 -20 3 6 8 8 -6 -20 -20
-20 -20 -20 -20 -16 -17 -20 -20 -20 -11 1 -0 22 24 7 -20 -20 -20 -20 -20 -20 -20 -20 -20 -20 -20 -20 -20 -13 -20 -20 -20 -20 4 -17 8 -18 -15 8 11 -12 -20 -20
-20 -20 -20 -20 -20 -20 -20 -20 9 1 -4 12 5 22 -20 -20 -20 -20 -20 -7 -20 -20 -20 -20 -20 -20 -20 -20 -20 -20 -20 -20 -20 -20 0 -8 -13 9 5 4 -20 -20 -20
-20 -20 -20 -20 -20 -20 -20 -20 -14 7 11 -5 16 10 -0 3 8 -20 -20 -20 -20 -20 -20 -20 -20 -20 -20 -20 -20 -20 -20 -20 -20 -20 -20 -20 -19 -13 -3 8 -18 -20 -20
-20 -20 -20 -20 -20 -20 -20 -20 -20 -20 -20 9 -9 23 -2 25 12 -2 -11 3 -20 -20 -20 -20 -20 -20 -20 -20 -20 -20 -20 -20 -20 -20 -20 -20 -8 -12 -7 -20 -20 -20 -20
-20 -20 -20 -20 -20 -20 -20 -20 -20 -20 -20 -20 -20 -20 7 3 17 -13 -13 -16 -3 -20 -20 -20 -20 -20 -20 -20 -19 -19 -20 -20 -20 -20 -20 -20 -4 -10 -20 -20 -20 -20 -20
-20 -20 -20 -20 -20 -19 -20 -20 -20 -20 -20 -20 -20 -20 -20 -19 -5 -9 6 -18 -10 -11 -20 -20 -20 -20 -20 -20 -9 -19 -20 -20 -20 -20 -16 -20 -20 -20 -20 -20 -20 -20 -20
-20 -20 -20 -20 -20 -20 9 -4 -20 -20 -20 -20 -20 -20 -20 -20 -20 -18 -18 -15 -19 -20 -20 -20 -20 -20 1 9 -20 -20 -20 -20 -20 -19 -19 -20 -20 -20 -20 -20 -20 -20 -20
-20 -20 -20 -20 -20 -20 -13 11 5 -20 -20 -20 -20 -20 -20 -20 -20 -20 -20 -20 -20 -20 -20 -20 -20 -20 -20 -20 -20 -20 -20 -20 -20 -20 -20 -20 -20 -20 -20 -20 -20 -20 -20

GFSMA_prec_radar_090.txt.gz
Reflectivity
3 16 -3 12 3 3 -20 -20 -20 -20 -20 -20 -20 -20 -20 -20 -20 -20 -20 -20 -20 -20 -20 -20 -20 -20 -20 -20 -20 -13 -18 -20 -20 -20 -20 -20 -16 -20 -20 -20 -20 -20 -20
31 37 33 -11 12 4 -15 -20 -20 -20 -20 -20 -20 -20 -20 -20 -20 -20 -20 -20 -20 -20 -20 -20 -20 -20 -20 -20 -20 17 -20 -20 -20 -20 -20 -20 -20 -13 3 -20 -20 -20 -20
35 -16 5 -20 -8 -4 -4 -20 -20 -20 -20 -20 -20 -20 -20 -20 -20 -20 -20 -20 -20 -8 -19 -20 -20 -10 -20 -20 -20 -20 -20 -20 -20 -20 -20 -20 -20 -20 -20 -2 13 -20 -20
16 25 20 0 4 -19 -20 -20 -20 -20 -20 -20 -20 -20 -20 -20 -20 -20 -14 -20 -20 -20 -20 -20 -20 -20 -20 -20 -20 -1 -19 -20 -20 -20 -20 -20 -20 -20 -20 -20 -20 -6 10
-5 13 30 -1 4 -20 -20 -20 -20 -20 -20 -20 -20 -20 -20 -20 -20 -20 -20 -20 -20 -20 -20 -20 -20 -20 -20 -20 -20 17 3 -20 -20 -20 -20 -20 -20 -20 -20 -20 -20 -20 -20
-5 6 15 15 -10 -20 -20 -20 -20 -20 -20 -20 -20 -20 -20 -20 -17 -20 -18 -10 -0 -20 -20 -20 -20 -20 -20 -20 -20 9 10 -20 -20 -20 -20 -20 -20 -20 -20 -20 -20 -20 -20
-5 -5 -20 -20 -20 -7 7 -7 -20 -20 -20 -20 -17 -9 -20 -20 -20 -20 -12 -20 2 -9 -20 -20 -20 -20 -20 -20 -20 9 6 -20 -20 -20 -20 -20 -20 -20 -20 -20 -20 -20 -20
22 13 -6 7 8 10 -12 -19 -14 -11 -20 -20 -4 -20 -19 -17 -20 -19 -15 -18 -20 -10 -20 -20 -20 -20 -20 -20 -20 1 -16 -20 -20 -20 -20 -20 -20 -20 -20 -20 -20 -3 2
20 27 19 16 1 -17 -20 -1 -20 -7 9 2 -12 -20 2 -12 1 1 9 -19 -20 -20 -20 -20 -20 -20 -20 -20 -20 -20 -20 -20 -20 -20 -20 -20 -20 -20 -20 -20 -20 10 -17
24 23 33 19 -7 -13 13 -4 -2 29 22 27 25 21 15 16 17 5 -1 -10 -20 -11 20 15 6 -20 -20 -20 -20 -20 -20 -20 -20 -20 -20 18 -20 -20 -20 -20 -15 -2 -18
33 33 32 30 27 24 26 24 28 26 24 6 13 12 22 -14 -20 -17 4 22 0 -11 12 17 -1 -1 -18 -19 -16 -9 -1 -20 -20 -20 -17 6 -4 -20 -20 -20 -20 -15 -18
33 34 35 34 32 31 32 28 32 30 24 25 28 28 14 4 -20 -4 -11 -18 6 24 -4 29 2 7 23 20 16 -4 -20 -20 -20 -20 -20 13 3 -20 -20 -20 -20 -18 1
34 31 33 31 27 30 32 31 32 27 32 34 4 -13 13 2 -5 -2 -7 -20 -20 -20 -2 17 21 15 15 16 -20 -20 -20 -20 -20 -20 -20 9 -10 -20 -20 -20 -20 -18 7
31 33 30 29 29 30 30 29 20 18 22 1 -16 8 11 12 20 17 16 -2 5 -7 7 21 8 11 21 -19 -2 -20 -20 -20 -20 -20 -9 -19 1 -20 -2 -20 -20 -13 11
29 31 25 27 24 -5 4 23 8 -15 22 22 25 -3 -20 17 38 23 24 13 26 38 13 22 21 0 -6 -2 -20 -20 -20 -20 -20 -20 -20 12 4 -8 -18 -3 -20 5 -0
29 31 31 21 9 30 34 24 21 21 17 9 12 7 -3 12 9 31 9 -6 10 12 12 10 13 7 -8 -15 -14 -20 -20 -9 -12 -20 -20 -20 -20 -20 -20 -20 -20 -20 -15
14 6 -11 -10 -3 -7 -2 8 11 14 16 5 11 10 -9 -16 20 39 20 25 20 8 -16 -16 10 10 4 -9 -14 -19 -14 -18 -20 -20 -20 -15 -20 -20 -10 -20 1 -20 3
5 7 9 4 -11 8 -20 -12 4 -7 7 16 6 16 16 -20 -2 15 31 6 10 -11 19 -20 -20 -20 -18 -18 -15 -20 -20 -20 -20 -20 -7 -20 -9 5 10 5 9 5 -9
-9 -12 -20 -20 -20 -20 -20 -20 1 0 -12 -8 8 -20 18 -9 8 15 18 9 -20 -20 -20 -20 -20 -20 -20 -20 -20 -20 -20 -20 -20 -0 10 1 -16 -17 2 -9 -6 -11 -2
-20 -6 -10 -20 -20 -20 -20 -20 -18 6 -11 -8 -17 -1 -5 -4 -3 16 36 -16 -20 -20 -20 -20 -20 -20 -20 -20 -20 -20 -20 -20 -20 -9 6 -10 -11 -20 -20 -20 -9 -1 -20
-20 -20 -20 -20 -20 -20 -20 -20 -20 -20 -0 11 -17 -20 -5 10 20 21 29 -20 -20 -13 -13 5 -15 -20 -20 -20 -20 -20 -20 -20 -20 -20 -20 -20 -20 -20 -20 -15 -4 -13 -20
-20 -20 -20 -20 -20 -20 -20 -20 -20 -20 -20 -20 -20 -20 -19 18 11 17 -15 -20 -20 -18 10 -14 -20 -20 -20 -20 -20 -20 -20 -20 -20 -20 -20 -20 -20 -20 -20 -12 13 -4 -20
-20 -20 -20 -20 -20 -20 -20 -20 -20 -20 -20 -20 -20 -5 -20 -7 5 8 -6 35 20 26 -12 5 -16 -20 -20 -20 -20 -20 -20 1 -20 -20 -20 -20 -20 -20 -20 -10 -2 -20 -20
-20 -20 -20 -20 -20 -20 -20 -20 -11 -20 -20 -20 -20 -20 -20 -20 -20 -20 -20 -20 -7 23 32 -8 -20 -20 -20 -20 -20 -20 -20 -18 -20 -20 -20 -20 -20 -20 -20 -20 -20 -20 -20
-20 -20 -20 -20 -20 -20 -20 -20 -20 -20 -20 -20 -20 -20 -20 -20 -20 -17 -12 -20 -19 0 -3 -6 -19 -20 -20 -20 -20 -20 -20 -20 -20 -20 -20 -20 -20 -20 -20 -20 -20 -20 -20
-20 -20 -20 -20 -20 -20 -20 -20 3 -20 -20 -20 -20 -20 -19 -18 -20 -20 -20 -20 -20 -20 -20 -18 -20 -20 -20 -20 -18 -20 -20 -20 -20 -20 -20 -20 -20 -20 -20 -20 -20 -20 -20

GFSMA_prec_radar_093.txt.gz
Reflectivity
19 23 3 -20 19 12 10 7 -1 -18 -20 -20 -20 -20 -20 -20 -20 -20 -20 -20 -20 -20 -11 -20 -20 -20 -20 -20 -19 20 -17 -20 -20 -20 -20 -20 -5 -17 -20 -20 -20 -20 -20
-8 26 20 10 33 18 -8 -3 -4 -6 -20 -20 -20 -20 -20 -20 -20 -20 -20 -20 -20 -20 -20 -20 8 -20 -20 -20 -20 -13 16 -3 -20 -20 -20 -20 -20 -20 -15 6 -20 -20 -20
-20 -18 37 34 18 37 15 2 -20 -14 -20 -20 -20 -20 -20 -20 -20 -20 -20 -20 -20 -20 -20 -20 -20 -6 -20 -20 -20 -20 -20 -20 -20 -20 -20 -20 -20 -20 -20 -20 -20 2 -20
-4 -20 12 26 31 24 15 -14 -7 -20 -20 -20 -20 -20 -20 -20 -20 -20 -20 -20 -20 -20 -20 -16 -20 6 -18 -20 -20 1 16 -20 -20 -20 -20 -20 -20 -20 -20 -20 -20 -20 -20
-20 -20 -18 29 39 39 29 -12 -18 -20 -20 -20 -20 -20 -20 -20 -20 -20 -20 -20 -20 -20 -20 -20 -20 -20 -20 -20 -20 -8 21 -20 -20 -20 -20 -20 -20 -20 -20 -20 -20 -20 -20
16 -15 0 28 28 21 22 -20 -17 -16 -20 -20 -20 -20 -20 -20 -20 -20 -20 -20 -20 -8 -18 -20 -14 -20 -20 -20 -20 -20 15 -20 -20 -20 -20 -20 -20 -20 -20 -20 -20 -20 -20
13 21 21 27 35 22 25 6 -10 -20 -20 -20 -20 -20 -20 -20 -20 -20 -20 -20 -20 -20 -20 -17 -13 -20 -20 -20 -20 -20 26 10 -20 -20 -20 -20 -20 -20 -20 -20 -20 -20 5
17 27 20 24 9 34 15 15 9 -5 2 -16 -16 -3 -18 -18 -20 -9 -16 -6 -2 -20 -20 -20 2 -20 -20 -20 -20 -20 13 5 -11 -20 -20 -20 -20 -20 -20 -20 -20 -9 -12
29 34 27 12 25 -11 -11 19 16 6 -20 -20 -19 -19 -19 -20 -5 -14 -13 -5 -16 8 9 -3 0 -17 -20 -20 -20 -20 8 11 -14 -20 -20 -20 -20 -20 -20 -20 -17 -17 1
27 33 34 27 30 24 10 10 -10 -17 24 4 -13 -20 -20 -20 14 -4 2 9 11 -12 -20 3 13 -18 -15 -1 -12 9 -20 -20 -20 -20 -16 -4 -8 -20 -20 -20 -14 -12 -20
28 30 30 30 31 30 15 28 18 24 14 3 26 -6 23 -20 -8 -4 -19 -2 -0 -20 1 -20 -15 23 -15 -8 13 9 -9 -3 -0 -9 -20 12 13 -20 -20 -20 -20 -20 1
32 32 28 27 26 20 22 28 31 26 32 27 22 20 24 3 13 15 19 9 18 -15 -20 -20 -20 -20 -20 -17 5 -6 20 -19 -20 -20 -20 13 14 -20 -20 -20 -20 -15 1
35 34 33 30 26 28 19 28 8 18 10 19 23 23 22 20 22 15 19 -17 -20 -20 -20 -20 -20 -20 -20 -20 -20 5 15 -11 -20 -20 -20 -8 15 -20 -20 -20 -20 -15 16
37 37 35 33 33 36 31 33 12 33 32 33 14 8 21 27 32 27 19 18 20 -5 25 24 10 -7 -11 -4 15 23 -8 -20 -11 -20 -20 -2 -20 9 9 -17 -20 -20 -20
35 32 30 32 34 33 30 31 30 29 32 32 30 29 24 25 17 21 -1 3 33 23 32 31 24 25 32 27 30 -0 -18 9 -15 -20 -20 -20 -17 -20 5 2 -20 -20 -20
27 24 29 30 30 32 31 14 16 26 33 26 24 26 28 25 24 20 9 29 23 9 10 -15 22 24 32 32 30 9 -9 -17 -20 -20 -20 -20 -20 -14 -4 -20 -20 -20 -18
9 9 15 25 28 25 28 32 32 35 27 27 27 32 28 30 30 22 5 23 28 5 -16 -20 -15 -16 -13 6 18 12 4 -9 -20 -1 -20 -20 -20 -20 -18 -20 -5 -12 -18
-6 -16 -5 8 11 10 4 7 12 11 12 4 0 -7 4 -5 4 7 15 12 17 26 40 21 5 1 -20 -20 -1 -20 -20 -20 -20 -20 -20 -20 -20 -20 -20 -20 -20 -19 2
2 6 7 9 6 9 12 8 10 12 11 -6 4 -3 -9 -19 13 6 16 -17 23 20 25 30 35 -1 23 -19 -8 -19 -20 -20 -20 -20 -20 -20 -17 0 -20 -20 -20 -7 -10
-20 -20 -17 -15 -19 -20 -18 -20 -20 -19 -5 -6 -1 -9 -8 9 1 -9 9 -7 9 32 34 1 -4 -19 -13 -20 -20 -20 -20 -20 -20 -20 -20 -2 8 1 -20 -20 -14 -14 -11
-20 -20 -20 -20 -20 -20 -20 -20 -20 -20 -20 -20 -20 -20 -15 13 21 12 -2 3 13 23 40 28 13 -20 -20 -20 -19 -20 -20 -20 -20 -20 -20 -20 -19 -20 -20 -20 -20 -20 -20
-20 -20 -20 -20 -20 -20 -20 -20 -20 -20 -20 -20 -20 -20 -7 12 2 -2 17 22 25 9 16 17 15 14 -20 0 -9 -20 -20 -20 -20 -20 -20 -20 -20 -20 -20 -20 -20 -20 -20
-20 -20 -20 -20 -20 -20 -20 -20 -20 -20 -20 -20 -20 -20 -20 -20 -12 -7 -20 2 5 4 11 5 -11 -14 -20 -4 -20 -20 -20 -20 -20 -20 -20 -20 -20 -20 -20 -20 -20 -10 -20
-20 -20 -20 -20 -20 -20 -20 -20 -20 -20 -20 -20 -20 -20 -20 -20 -8 -11 -10 -18 24 15 35 34 27 28 26 27 -17 -20 -20 -20 -20 -20 -20 -20 -20 -20 -20 -20 -20 -20 -20
-20 -20 -20 -20 -20 -20 -20 -20 -20 -20 -20 -20 -20 -20 -20 -20 -20 1 -12 -20 -19 -4 -18 12 19 23 28 33 28 -18 -20 -20 -20 -20 -20 -20 -20 -20 -20 -20 -20 -20 -20
-20 -20 -20 -20 -20 -20 -20 -20 -20 -10 5 -20 -20 -20 2 8 12 -14 -20 -20 -20 -20 -20 -10 13 8 9 11 -3 -8 -6 -20 -20 -19 -20 -20 -20 -20 -20 -20 -20 -20 -20

GFSMA_prec_radar_096.txt.gz
Reflectivity
-18 -20 7 -20 -13 -8 -10 -8 -19 -3 -20 -20 -20 -20 -20 -20 -20 -20 -20 -20 -20 -20 -2 -18 4 -20 -16 -20 -20 2 13 -20 -20 -20 -20 -20 -20 -17 -12 -20 -20 -20 -20
4 -2 -20 -20 -20 -20 16 -14 -14 -10 -11 -20 -20 -20 -20 -20 -20 -20 -20 -20 -20 -20 -20 12 -6 12 1 -10 -20 -20 -7 13 -20 -20 -20 -20 -20 -20 -20 -12 9 -1 -20
-20 8 9 -20 -20 -17 -4 21 2 -20 -14 -20 -20 -20 -20 -20 -20 -20 -20 -20 -20 -20 -20 -20 -13 13 -18 9 -18 -20 -20 -20 -20 -20 -20 -20 -20 -20 -20 -20 -20 -20 2
-20 -20 8 -20 -20 12 31 28 27 29 1 -14 -20 -20 -20 -20 -20 -20 -20 -20 -20 -20 -20 -20 -20 -20 -20 12 -20 -20 -11 19 -20 -20 -20 -20 -20 -20 -20 -20 -20 -20 -20
-20 -14 -1 12 1 -18 29 38 31 25 33 -10 -20 -20 -20 -20 -20 -20 -20 -20 -20 -20 -20 -20 -20 -13 -20 -19 -20 -20 3 -12 -20 -20 -20 -20 -20 -20 -20 -20 -20 -20 -20
-20 4 -1 -4 18 -10 -20 -3 27 25 32 28 -3 -20 -20 -20 -20 -20 -20 -20 -20 -20 -20 -20 -20 -17 -20 -20 -20 -20 9 -20 -20 -20 -20 -20 -20 -20 -20 -20 -20 -20 -20
-20 -1 12 18 11 19 -18 27 29 27 5 8 -3 -20 -19 -20 -20 -20 -20 -20 -20 -20 -20 -20 -13 -20 -20 -20 -20 -20 -0 10 -2 -20 -20 -20 -20 -20 -20 -20 -20 -20 -20
-20 1 3 18 11 17 -20 26 19 24 33 26 18 -6 -9 -20 -17 -16 -16 -12 -3 -2 3 3 -19 -19 -20 -20 -20 -20 -20 0 -20 -20 -20 -20 -20 -20 -20 -20 -20 -20 -20
-9 23 39 22 12 21 -4 10 36 16 11 -0 -20 -20 -20 -19 -17 -8 -1 -13 -19 -8 -8 -15 -9 -20 -20 -20 -20 -20 -20 -18 -20 -20 -20 -20 -20 -20 -20 -20 -20 -20 -20
-7 -1 23 28 40 36 28 7 32 29 4 11 15 -7 -20 -19 -4 -1 -9 -10 -8 -18 5 9 -20 -20 -20 -20 -20 -20 4 -17 -20 -20 4 -20 -11 -20 -20 -20 -20 -20 -20
-3 9 25 27 28 34 26 25 34 30 26 28 14 12 8 10 -3 -20 2 8 -9 -20 23 -11 -20 -20 -20 -20 -20 -20 -20 -20 8 19 -19 5 11 4 -20 -20 -20 -20 7
22 27 30 29 30 32 32 38 35 34 30 9 10 30 10 18 23 -5 -1 -11 -20 -20 -4 2 11 -18 -20 -20 -20 -20 -19 -19 13 1 -0 9 10 12 -19 -20 -20 -20 -18
29 28 32 35 31 32 34 36 36 34 26 15 24 14 22 30 27 7 12 26 -2 -20 5 18 1 -7 -20 -20 -20 10 25 3 2 -20 8 -19 8 -2 -18 -20 -20 -20 -20
31 39 34 36 35 34 34 34 34 31 30 33 32 32 32 32 21 26 13 23 8 2 -6 12 -20 -17 -20 21 28 26 16 24 16 20 4 -19 -17 -1 -20 -20 -20 -20 -20
28 31 35 35 33 30 28 25 23 27 28 35 35 34 34 30 28 26 18 15 17 23 9 -19 -13 19 22 22 26 24 29 28 25 26 12 -14 -20 -20 -20 -5 -16 -20 -20
26 30 25 25 31 25 31 30 30 32 31 30 28 30 30 31 29 31 20 2 24 21 17 21 21 26 -2 14 29 29 34 27 28 7 -5 -1 -20 -20 -20 -20 -6 -19 -20
14 17 17 16 15 22 28 27 28 26 31 26 29 26 29 33 33 36 27 20 19 30 29 22 24 28 -7 -3 23 22 26 29 27 14 -19 -20 -10 -20 -20 -20 -20 -20 -20
-7 1 7 8 3 4 5 16 18 24 26 16 3 22 24 28 29 20 25 34 33 32 27 31 20 36 16 13 2 12 8 -3 -5 -15 -8 -7 -20 -20 -20 -17 -20 -20 -20
-20 -20 -12 -10 -17 -17 -8 7 12 12 11 9 1 9 23 22 10 6 12 10 21 24 31 29 24 31 25 32 3 11 2 -20 -20 -20 -20 -20 -15 -20 -18 -17 -20 -20 -20
-20 -20 -20 -20 -20 -20 -20 -20 -20 -20 -14 -20 -20 -20 -13 -12 -8 8 1 7 12 17 16 11 12 37 29 36 33 17 13 10 -19 -20 -20 -20 7 -20 7 8 -20 -20 -20
-20 -20 -20 -20 -20 -20 -20 -20 -20 -20 -20 -20 -20 -20 -20 14 19 2 -18 8 -0 12 11 2 -3 27 35 36 21 23 26 -18 -19 -20 -20 -20 -20 -20 -17 7 -20 -20 -20
-20 -20 -20 -20 -20 -20 -20 -20 -20 -20 -20 -20 -20 -20 -20 -20 -20 -19 21 20 13 -17 18 13 14 -6 11 25 36 15 6 8 -20 -20 -20 -20 -20 -20 -12 -3 -0 5 8
-20 -20 -20 -20 -20 -20 -20 -20 -20 -20 -20 -20 -20 -20 -20 -20 -20 -20 -6 11 19 6 26 -7 22 17 13 25 26 15 3 5 -3 -20 -20 -20 -20 -20 -20 -17 7 -13 7
-20 -20 -20 -20 -20 -20 -20 -20 -20 -20 -20 -20 -20 -20 -20 -20 -20 -20 -20 -19 -2 -6 19 25 -2 8 34 26 24 5 3 2 -7 4 -8 -20 -20 -20 -20 -20 -15 -20 -18
-20 -20 -20 -20 -20 -20 -20 -20 -20 -20 -20 -20 -20 -20 -20 -20 -19 -20 -20 -20 -20 -16 23 14 28 26 19 18 8 23 31 20 29 9 -10 -20 -20 -20 -20 -20 -20 -20 -20
-20 -20 -20 -20 -20 -20 -20 -20 -20 -20 -20 -20 -20 -20 -20 -18 9 7 5 -19 2 -6 -10 20 1 22 33 26 34 27 26 30 31 13 18 5 -19 -20 -20 -20 -20 -20 -20

GFSMA_prec_radar_099.txt.gz
Reflectivity
8 1 -17 -20 -20 -20 -20 7 -20 -20 -20 -20 -20 -20 -20 -20 -20 -20 -20 -20 -20 -20 1 14 -20 -20 -20 -20 -20 -13 -7 -20 -20 -20 -20 -20 -20 -20 -20 -14 -20 -20 -20
-6 4 -8 -2 -20 -20 -20 -20 -20 -17 -20 -15 -20 -20 -20 -20 -20 -20 -20 -20 -20 -20 -20 2 14 -20 -5 14 -20 -20 13 12 -20 -20 -20 -20 -20 -20 -20 -20 -17 -11 -0
-20 -20 -20 -20 -10 -20 -20 -6 -12 7 23 -20 -20 -20 -20 -20 -20 -20 -20 -20 -20 -20 -20 -20 -20 -20 -19 -17 -20 -20 -20 14 -20 -20 -20 -20 -20 -20 -20 -20 -20 -20 -20
-20 -15 2 -1 0 -17 3 -3 22 1 37 27 7 8 -20 -20 -20 -20 -20 -20 -20 -20 -20 -20 -20 -20 -20 -14 -0 -20 -20 -20 -17 -20 -20 -20 -20 -20 -20 -20 -20 -20 -20
-20 -20 -2 -2 8 6 -14 10 19 -1 5 23 26 7 -14 -20 -20 -20 -20 -20 -20 -20 -20 -20 -20 -20 -20 -20 -20 -20 -19 -3 -20 -20 -20 -20 -20 -20 -20 -20 -20 -20 -20
-20 -8 -2 6 9 13 1 -6 -17 2 1 -9 20 35 9 33 26 -10 -20 -20 -20 -20 -20 -20 -20 -20 -20 -11 -20 -20 -3 7 -20 -20 -20 -20 -20 -20 -20 -20 -20 -20 -20
-20 0 5 6 10 14 7 10 6 -18 21 -20 -10 17 26 20 5 9 4 2 -20 -20 -20 -20 -20 -20 -8 -8 -1 -18 -20 -5 -1 -20 -20 -20 -20 -20 -20 -20 -20 -20 -20
-18 -1 8 -3 -2 8 2 -20 10 -4 19 -20 -19 18 19 20 1 8 6 -20 4 -15 -20 -8 -11 -1 -19 -20 -20 -20 -20 -20 5 -20 -20 -20 -20 -20 -20 -20 -20 -20 -20
-10 1 4 11 7 8 -2 -20 6 -2 9 -18 4 13 -5 -11 16 19 10 15 10 -3 -7 -10 -12 -20 -20 -20 -20 -20 -20 -20 8 -11 -20 -20 -20 -20 -20 -20 -20 -20 -20
0 4 9 -0 17 18 24 29 9 18 13 -9 25 12 17 15 18 5 7 -12 -20 -19 -19 -10 9 7 23 -18 -20 -20 -20 -20 -7 14 -16 -20 -20 -20 -20 -20 -20 -20 -20
9 10 4 9 11 13 19 33 30 35 26 25 21 21 28 18 22 16 -8 -2 -0 2 11 9 32 28 23 -17 -17 -20 -20 25 -20 8 22 11 -1 8 -16 -19 -20 -20 -20
7 -14 10 -4 -6 1 -12 23 27 30 30 28 25 25 28 25 24 26 18 15 28 26 24 7 7 1 -20 -5 17 -8 20 19 -9 8 6 22 20 22 20 3 -20 -20 -20
17 29 26 12 25 21 27 29 33 31 33 30 23 26 28 31 30 16 28 31 27 14 27 25 3 2 2 23 -5 1 -3 8 -15 2 15 21 14 25 11 6 -20 -20 -20
9 26 31 23 21 24 29 14 21 24 33 30 28 24 30 31 23 26 32 32 32 33 21 9 20 30 28 25 19 20 11 13 6 20 -11 27 21 28 -9 -11 -20 -20 -20
15 26 29 20 27 28 29 31 29 29 33 31 30 32 31 30 31 32 30 29 37 39 21 6 9 28 28 -9 10 -20 6 22 17 19 15 18 22 9 -4 2 -15 -0 -20
-3 24 32 26 28 24 23 26 27 26 29 30 30 32 29 28 30 34 32 29 30 29 21 8 -0 22 1 -10 -6 2 27 30 26 24 17 24 26 10 -20 -3 -20 -20 -20
-3 1 21 21 22 23 23 27 29 28 31 25 35 37 32 33 32 33 27 31 32 33 28 33 32 17 20 3 5 -1 30 26 27 22 16 21 19 24 -2 -20 -20 -20 -20
-17 -20 -8 -5 -19 -5 -8 -2 19 27 25 26 31 30 23 29 30 26 30 32 36 29 32 23 17 25 25 16 21 3 23 27 24 25 23 18 -3 -20 -20 -20 -20 -20 -20
-20 -20 -20 -20 -20 -20 -20 -20 -20 -17 -9 -11 -15 14 6 15 24 24 18 23 16 21 27 23 9 21 27 35 22 31 28 25 30 22 12 -8 -20 -20 -20 -20 -20 -20 -20
-20 -20 -20 -20 -20 -20 -20 -20 -20 -20 -20 -20 -20 -20 -20 -20 -6 -2 -4 7 5 0 17 22 7 6 4 7 21 26 31 33 6 -17 3 8 11 -20 -20 1 -10 -16 -20
-20 -20 -20 -20 -20 -20 -20 -20 -20 -20 -20 -20 -20 -20 -20 -20 -20 -17 -4 -7 -20 7 -5 13 9 13 18 23 11 2 27 30 33 20 11 -16 -11 -17 -16 7 5 5 -2
-20 -20 -20 -20 -20 -20 -20 -20 -20 -20 -20 -20 -20 -20 -20 -20 -20 -20 -20 -1 7 -10 -10 4 -4 7 7 4 19 -11 26 33 34 25 17 8 -12 -20 -20 -20 5 10 -1
-20 -20 -20 -20 -20 -20 -20 -20 -20 -20 -20 -20 -20 -20 -20 -20 -20 -20 -20 -20 -16 -3 24 6 6 6 -20 3 12 3 -10 7 26 32 30 17 -17 -20 -20 -20 -9 10 -20
-20 -20 -20 -20 -20 -20 -20 -20 -20 -20 -20 -20 -20 -20 -20 -20 -20 -2 -15 -20 -20 -20 10 5 11 -12 -20 -4 4 23 30 16 17 27 10 3 -15 -20 -20 -20 3 -15 -4
-20 -20 -20 -20 -20 -20 -20 -20 -20 -20 -20 -20 -20 -20 -20 -20 -20 -20 -20 -15 -20 -20 0 13 29 29 18 27 26 17 17 31 24 10 11 -20 10 -4 -2 -15 -12 7 -20
-20 -20 -20 -20 -20 -20 -20 -20 -20 -20 -20 -20 -20 -20 -20 -20 -20 -6 2 9 -19 15 -16 -20 -6 33 15 30 15 23 8 15 4 29 34 24 28 19 2 -4 -6 -5 -20

GFSMA_prec_radar_102.txt.gz
Reflectivity
6 10 8 -19 -9 12 -20 -20 -20 -20 -20 -11 -20 -20 -20 -20 -20 -20 -20 -20 -20 -20 -20 -14 -17 -20 -20 -20 -20 -16 -20 -20 -20 -20 -20 -20 -20 -20 -20 -12 -20 -20 -20
-20 -20 -20 0 -10 -0 -20 -20 -20 -20 -20 9 -19 -16 -20 -20 -20 -20 -20 -20 -20 -20 -20 -20 7 -2 -20 -20 -20 -20 -20 15 -20 -20 -20 -20 -20 -20 -20 -20 -20 -20 -14
-20 -20 -20 -20 -20 -20 15 21 13 12 -0 -11 -6 -6 -16 -20 -20 -20 -20 -20 -20 -20 -20 -20 -20 30 14 21 29 -20 -20 -20 -18 -20 -18 -20 -20 -20 -20 -20 -20 -20 -20
-20 -20 -20 -20 -20 -0 11 18 23 7 5 -16 11 11 29 -9 -20 -20 -20 -20 -20 -20 -20 -20 -20 -20 -20 -20 -20 -20 -20 -20 -17 -20 -20 -20 -20 -20 -20 -20 -20 -20 -20
-20 -20 -20 -20 -20 3 9 10 21 10 9 2 14 10 21 21 25 -4 -20 -20 -20 -20 -20 -20 -20 -20 -20 -20 -0 -20 -10 -20 -16 -20 -20 -20 -20 -20 -20 -20 -20 -20 -20
-20 -20 -20 -20 -20 -6 8 4 18 17 7 2 20 18 12 21 -4 -4 0 21 -20 -20 -20 -20 -20 -20 -20 -20 -20 -20 -8 -20 6 -11 -20 -20 -20 -20 -20 -20 -20 -20 -20
-20 -20 -20 -20 -20 -9 -11 1 11 9 7 15 16 18 -20 16 11 -20 -5 28 4 14 20 -20 -20 -20 -20 -20 -20 -16 -5 -2 26 8 -20 -20 -20 -20 -20 -20 -20 -20 -20
-20 -20 -20 -20 -20 9 5 6 13 12 11 14 17 -7 9 -20 -7 -17 -20 -13 -13 29 23 18 -16 -20 -20 -8 5 -6 -20 -8 -15 13 -9 -20 -20 -20 -20 -20 -20 -20 -20
1 -0 -4 -1 -2 11 17 3 17 4 9 2 24 -8 13 -3 -20 -20 -20 -20 15 30 16 13 1 -12 -20 -6 -12 -2 -10 -19 23 15 12 -20 -20 -20 -20 -20 -20 -20 -20
-10 0 5 6 8 11 17 6 1 -11 9 12 15 9 2 -20 -18 -20 -20 -19 17 -16 -1 18 -16 -20 -20 -6 -0 -2 -17 -20 -20 -19 28 3 -20 -20 -20 -13 -20 1 -19
-19 15 15 14 14 13 21 -8 -5 23 19 31 15 -4 -20 4 23 -11 10 17 -7 12 12 9 -1 -10 3 25 20 27 29 31 5 1 24 26 5 4 4 6 3 7 6
-19 8 5 7 9 9 18 -16 5 12 -8 -0 19 20 14 27 23 22 27 23 31 30 21 29 26 27 23 21 17 25 28 32 14 15 3 24 19 -5 1 7 -3 -20 -11
18 -1 3 11 20 18 12 7 11 12 -3 17 14 22 21 31 27 23 26 21 33 27 15 7 18 25 23 23 23 22 6 23 -1 9 -20 24 22 18 18 23 6 -20 -20
23 12 -5 18 34 25 31 17 29 31 31 24 13 2 22 25 19 21 27 31 32 29 24 20 19 23 24 29 28 14 28 15 -15 -4 17 24 23 22 19 20 23 7 -20
-2 12 24 19 29 28 29 27 29 33 29 27 28 17 16 10 8 16 22 26 29 25 17 15 23 23 23 30 24 27 28 13 12 -20 20 18 3 0 29 19 7 7 6
-20 -20 18 30 31 25 28 27 30 29 28 28 28 28 19 23 22 24 27 30 31 33 31 18 18 23 24 26 24 25 13 15 -20 -17 19 9 24 20 25 11 3 9 -18
-8 -16 10 9 17 21 29 28 26 26 25 29 28 31 31 32 31 31 30 30 31 30 27 14 10 26 24 34 28 22 16 -14 -9 22 31 24 25 10 12 16 10 -18 -20
8 6 8 -3 -3 15 9 9 1 -6 -12 7 23 26 29 29 30 33 31 37 37 36 39 31 21 16 27 15 24 14 14 14 -4 27 33 30 24 18 14 16 -13 -20 -20
-20 -18 -5 -19 9 -16 -13 -20 -20 -20 -20 -20 -20 -7 7 21 19 9 17 26 29 30 28 21 5 3 17 21 16 24 25 23 9 29 31 29 22 14 17 7 -20 -20 -20
-20 -20 -20 -20 -20 -20 -20 -20 -20 -20 -20 -20 -20 -20 -20 -20 -20 -20 -20 -8 -12 -18 10 15 -9 -20 -14 4 8 20 21 24 23 24 31 16 25 17 -3 -19 -13 -20 -20
-20 -20 -20 -20 -20 -20 -20 -20 -20 -20 -20 -20 -20 -20 -20 -20 -20 -20 -20 -20 -20 -13 -16 7 -4 -13 -20 -19 -16 3 -2 15 25 19 32 30 18 2 2 -10 -18 -20 -20
-20 -20 -20 -20 -20 -20 -20 -20 -20 -20 -20 -20 -20 -20 -20 -20 -20 -20 -20 -20 -20 -20 -20 4 6 18 1 -20 2 -20 11 19 25 16 21 28 28 3 -17 -20 -20 -20 -20
-20 -20 -20 -20 -20 -20 -20 -20 -20 -20 -20 -20 -20 -20 -20 -20 -20 -20 -20 -20 -9 1 5 -13 -19 -16 11 -10 18 -19 -20 -20 -2 11 1 28 21 33 31 15 -11 -19 -20
-20 -20 -20 -20 -20 -20 -20 -20 -20 -20 -20 -20 -20 -20 -20 -20 -20 -20 -20 -20 -20 -15 -17 -3 7 -5 -20 19 8 21 -2 -10 -2 -10 18 20 10 10 28 30 15 -5 -16
-20 -20 -20 -20 -20 -20 -20 -20 -20 -20 -20 -20 -20 -20 -20 -20 -20 -20 -20 -20 -20 -20 -20 -19 12 5 -3 -2 29 12 31 6 24 24 -5 3 4 24 22 14 12 -8 -7
-20 -20 -20 -20 -20 -20 -20 -20 -20 -20 -20 -20 -20 -20 -20 -20 -20 -20 -20 -20 -20 -20 -20 -20 -20 -20 -9 -16 22 11 11 13 27 29 10 24 9 16 16 4 2 8 2

GFSMA_prec_radar_105.txt.gz
Reflectivity
17 1 -15 4 2 -9 16 16 -0 -18 10 -20 -20 -20 -20 -20 -20 -20 -20 -20 -20 -20 -20 -1 8 -16 -20 -20 -20 -20 -20 -20 -20 -20 -20 -20 -20 -20 -20 -20 -20 -20 -20
-14 -20 -20 -4 -12 -5 11 -20 -11 -14 -20 29 -10 -20 -20 -20 -20 -20 -20 -20 -20 -20 -20 -20 -12 -16 -7 -5 -3 -4 4 3 -17 -20 -20 -20 -19 -9 -20 -20 -20 -20 -20
-20 -20 -20 -20 -20 -20 -20 -3 18 -19 -5 8 23 -20 -20 4 6 -19 -20 -20 -20 -20 -20 -20 -20 -20 -20 15 -9 -13 -17 -20 -11 -20 -20 -20 -20 -20 -20 -20 -20 -20 -20
-20 -20 -20 -20 -20 -20 -20 -18 -15 -20 -6 14 25 24 -4 -20 -12 11 2 4 -20 -20 -20 -20 -20 -20 -20 -20 13 -12 8 -20 -20 -9 -20 -20 -20 -17 -19 -20 -20 -20 -20
-20 -20 -20 -20 -20 -20 -20 -9 3 10 -13 -3 -9 -0 11 13 -9 -19 6 13 -3 -20 -20 -20 -20 -20 -20 -20 -20 -20 6 -20 -20 -20 -20 -20 -19 -20 -20 -20 -20 -20 -20
-20 -20 -20 -20 -20 -20 -20 -20 -8 -17 24 3 11 11 3 -20 24 -7 -20 -20 10 19 -20 -20 -15 -13 -19 -20 -20 -20 -20 16 6 -20 3 -7 -12 -20 -20 -20 -20 -20 -20
-20 -20 -20 -20 -20 -20 -20 -20 -7 9 8 1 -5 15 14 8 -20 -20 -20 27 -2 2 -20 -20 -17 26 -1 -20 -20 -20 -20 -20 -7 3 -5 -2 -20 -20 -20 -20 -20 -20 -20
-20 -20 -20 -12 -20 -20 -14 -16 -11 6 13 15 12 -9 15 5 18 -20 -20 -20 -19 -7 19 -20 -5 -7 -12 -1 21 1 -20 -20 -20 12 17 13 -17 -20 -20 -20 -20 -20 -20
-20 -17 -7 0 4 24 -14 -20 25 -14 8 3 21 3 16 8 -9 -20 -20 -20 -20 -20 -11 -20 -4 -20 -7 10 11 -4 -15 7 13 26 -7 6 0 -15 -20 -20 -20 -20 -15
-20 -20 -19 -5 6 10 14 4 11 19 22 20 22 15 7 -11 -8 17 14 -20 -20 -20 -20 -20 -20 -20 -15 5 -12 8 14 10 11 -7 26 4 10 6 -19 -20 -20 -19 -1
-20 -20 -20 -20 0 27 25 20 21 21 21 24 20 12 -6 -11 20 21 -1 8 -10 -20 -20 9 24 -7 -12 8 -17 -3 34 31 22 31 30 31 24 27 18 17 14 10 8
-20 -20 -20 7 -0 6 14 17 18 22 21 0 6 14 18 14 23 6 14 6 1 -3 13 17 -6 20 -3 14 -11 13 2 4 25 29 29 29 25 28 27 18 15 11 5
-4 1 6 17 -9 6 14 4 21 2 25 18 2 10 16 12 6 7 24 25 18 23 22 9 17 26 -15 -15 13 11 23 9 25 18 22 23 -10 27 31 25 26 17 3
16 -2 -14 31 20 10 27 32 33 31 33 26 30 26 27 30 24 30 25 21 25 25 24 21 25 30 -14 -3 11 9 9 24 3 15 21 26 25 25 29 28 26 24 14
18 -20 -20 -4 10 13 33 29 29 38 28 14 27 29 32 29 27 23 27 25 28 27 24 11 18 22 26 18 14 20 19 6 8 23 31 9 -20 10 27 30 28 25 27
10 4 -20 -16 -19 27 29 34 31 27 16 25 29 31 35 30 30 14 14 21 27 29 21 4 -3 14 24 25 23 16 20 20 18 20 20 -20 10 6 23 26 16 17 23
5 5 -15 8 14 10 9 13 28 33 30 25 31 32 30 27 29 29 30 33 31 29 22 -4 8 21 28 25 25 27 21 21 7 8 5 -9 -7 -5 16 31 27 32 25
3 -11 -12 10 -1 -4 17 2 9 16 24 16 10 10 25 22 23 20 27 28 26 28 35 25 19 21 23 27 20 24 24 19 21 17 19 8 -2 10 25 30 30 25 16
-20 -20 -20 4 4 4 -1 -11 -7 4 -19 -20 -19 -20 -19 -19 1 5 17 26 28 28 24 26 21 24 25 16 3 1 5 17 -3 21 4 13 13 28 34 27 24 -6 5
-20 -20 -20 -20 -20 -20 -16 -20 -13 -16 -20 -20 -19 -20 -20 -20 -20 -20 -20 -12 -11 -16 -9 7 15 14 4 -0 15 -7 -17 -2 13 11 8 17 23 23 25 28 24 7 -1
-20 -20 -20 -20 -20 -20 -20 -20 -20 -20 -20 -20 -20 -20 -20 -20 -20 -20 -20 -20 -12 -20 -20 -20 -20 -20 -20 8 2 -18 -19 -20 14 9 -1 -2 5 18 16 9 -18 4 -13
-20 -20 -20 -20 -20 -20 -20 -20 -20 -20 -20 -20 -20 -20 -20 -20 -20 -20 -20 -20 -20 -7 3 4 -15 -12 -11 -5 7 -12 -6 -14 19 16 15 30 11 -19 -16 -20 -20 -20 -20
-20 -20 -20 -20 -20 -20 -20 -20 -20 -20 -20 -20 -20 -20 -20 -20 -20 -20 -20 -20 -20 -20 -20 -18 7 2 19 1 11 -15 -18 -20 -7 16 -1 29 25 -1 -11 -13 -20 -17 -20
-20 -20 -20 -20 -20 -20 -20 -20 -20 -20 -20 -20 -20 -20 -20 -20 -20 -20 -20 -20 -20 -20 -20 -20 -20 -20 -17 2 -2 -9 5 -20 -20 2 16 25 23 32 17 5 20 17 -1
-20 -20 -20 -20 -20 -20 -20 -20 -20 -20 -20 -20 -20 -20 -20 -20 -20 -20 -20 -20 -20 -20 -20 -20 -20 -13 -4 -20 -19 -8 -15 9 -4 -5 -16 2 11 14 28 19 27 23 16
-20 -20 -20 -20 -20 -20 -20 -20 -20 -20 -20 -20 -20 -20 -20 -20 -20 -20 -20 -20 -20 -20 -20 -20 -20 -20 -20 -20 2 -20 -12 17 14 -6 -12 3 6 2 23 28 26 28 9

GFSMA_prec_radar_111.txt.gz
Reflectivity
-20 -20 -20 -20 -20 -20 18 14 11 -17 -20 -20 -20 -20 -20 -20 -20 -20 -20 -20 -20 -20 -20 -20 -20 -20 -20 -20 -20 -20 -20 -20 -20 -20 -20 -20 -20 -20 -20 -20 -20 -20 -20
-20 -20 -20 -20 -20 2 -10 31 -16 0 -19 5 -14 -19 -20 -20 -20 -20 -20 -20 -20 -20 -20 -20 -20 -18 3 -11 -20 -20 -20 -20 -8 -20 -20 -20 -20 -20 -20 -20 -20 -20 -11
-20 -20 -20 -20 -20 -20 -20 -20 -19 -20 -0 24 26 -20 26 -9 -20 -13 -20 -20 -20 -20 -20 -20 -20 -20 -19 8 -9 -20 -20 -19 -20 -20 2 -20 -20 -20 -20 -20 -20 -20 -20
-20 -20 -20 -20 -20 -20 -20 -20 -20 -20 -20 -20 -20 -12 -20 -17 -20 23 -17 -9 21 -20 -20 -20 -20 -20 -20 -20 -19 -5 -13 -20 -20 -20 -20 -20 -5 -20 -20 -20 -20 -20 -20
18 -12 -20 8 -20 -20 -20 -20 -20 -20 -20 -10 6 -20 -20 -20 -20 -7 4 -0 0 -20 -20 -20 -20 -20 -20 -20 -16 -20 -14 -20 -14 -20 -20 -20 -20 -20 -20 -20 -20 -20 -17
30 26 10 7 4 -20 -20 -20 -20 -20 -20 -20 -20 -20 -20 -20 -20 -11 -9 -3 -20 -20 -10 -20 -20 -20 -20 -15 10 -5 9 -20 -20 -20 -20 -20 -20 -11 -18 -20 -20 -20 -13
27 25 27 29 -20 -20 -20 -20 -20 -20 -20 -20 -20 -20 -20 -20 -20 -20 -20 -13 -17 -10 -20 -20 -20 -20 -20 -19 13 -2 -14 -14 -20 -20 -20 -20 -20 -20 -2 -20 -20 -20 -20
12 27 28 9 -7 29 -20 -20 -20 -20 -20 -20 1 -14 5 -20 -20 -20 -20 -20 -20 -20 -20 -20 -20 -20 -20 12 17 5 7 17 -20 -20 13 -7 -20 -20 -20 -20 -20 -20 -20
27 29 33 28 15 13 -20 -20 -2 -4 1 -20 6 14 -1 -17 -20 -20 -20 -20 -20 -20 -20 11 -20 -20 -20 -20 -20 -20 4 -11 -20 -20 -15 -20 -12 -11 -20 -11 -20 -20 -20
26 22 7 16 -6 -20 -20 -20 -20 -20 -13 -1 9 3 13 6 7 6 -15 1 0 -20 -20 -20 -20 -20 -20 -20 -20 -20 -10 10 -11 -18 -20 26 -14 -20 19 -0 -7 -5 -20
14 14 15 -12 -8 -20 -20 -20 -20 -20 -20 -13 1 14 11 20 9 19 5 -3 -18 -12 -20 -20 -20 -20 -19 -20 -20 1 22 14 15 -1 -18 -20 24 -19 26 32 29 17 5
32 32 22 13 -18 -20 -20 -20 -20 -20 -20 -17 20 3 23 16 -4 20 21 -6 2 -15 -4 -20 -20 -20 -20 -1 14 -19 -20 -5 15 -16 0 -20 -20 26 -20 17 32 30 30
-20 -20 2 -8 -13 9 0 -20 -20 -20 -20 1 12 18 21 5 26 25 23 8 1 -12 -9 -20 -17 -20 -20 15 23 18 -6 -20 7 6 24 8 -13 28 -20 -0 29 32 46
-20 -3 -20 -20 -20 -20 -20 -20 -20 -20 -20 -17 15 12 19 27 12 13 27 30 44 23 -4 -4 17 23 9 20 31 0 23 15 12 22 28 28 27 28 -17 -3 1 17 28
-6 -5 10 23 25 18 -5 10 -17 -20 -20 -20 14 6 6 28 35 27 25 30 29 22 15 25 15 12 24 21 16 13 16 23 16 7 17 7 21 24 33 14 -3 31 32
-18 9 8 18 15 13 10 -9 -2 -1 -12 -20 -20 -16 21 32 23 34 21 23 31 30 26 28 13 24 20 25 33 31 29 22 27 17 13 19 12 16 23 1 21 15 -2
-20 -20 -20 -20 -20 -20 -20 -20 -20 -20 -20 -2 -18 -17 8 24 32 33 36 36 36 35 31 26 25 31 16 1 -5 -7 29 23 20 23 22 31 25 8 -11 3 -14 -19 -20
-20 -20 -20 -20 -20 -20 -20 -20 -20 -20 -20 -20 -20 -20 1 18 19 20 19 24 27 29 27 33 33 31 27 12 23 27 26 26 28 25 21 23 11 8 4 -9 -8 -20 -12
-20 -20 -20 -20 -20 -20 -20 -20 -20 -20 -20 -20 -20 -20 -20 -16 -10 9 17 24 15 11 16 25 17 26 27 21 23 24 25 35 33 34 37 26 29 9 9 10 12 18 11
-20 -20 -20 -20 -20 -20 -20 -20 -20 -20 -20 -20 -20 -20 -20 -20 -20 -20 -20 -14 -3 7 -19 -20 -20 -16 12 13 28 24 27 28 31 30 30 32 22 24 20 21 18 23 22
-20 -20 -20 -20 -20 -20 -20 -20 -20 -20 -20 -20 -20 -20 -20 -20 -20 -20 -20 -20 -20 -20 -20 -20 -20 -20 -19 -20 -16 9 26 28 29 32 31 29 28 -1 -8 17 22 -3 -9
-20 -20 -20 -20 -20 -20 -20 -20 -20 -20 -20 -20 -20 -20 -20 -20 -20 -20 -20 -20 -20 -20 -20 -20 -20 -20 -20 -20 -15 -20 -9 -10 20 29 32 23 14 -8 -20 12 7 -10 4
-20 -20 -20 -20 -20 -20 -20 -20 -20 -20 -20 -20 -20 -20 -20 -20 -20 -20 -20 -20 -20 -20 -20 -20 -20 -20 -12 -20 -20 -20 -20 -8 -6 -15 12 -19 -14 -20 -20 -8 15 -12 -4
-20 -20 -20 -20 -20 -20 -20 -20 -20 -20 -20 -20 -20 -20 -20 -20 -20 -20 -20 -20 -20 -20 -20 -20 -20 -20 -20 -20 -20 -20 -20 -20 -20 -20 -17 -1 -15 -20 -20 -20 9 10 22
-20 -20 -20 -20 -20 -20 -20 -20 -20 -20 -20 -20 -20 -20 -20 -20 -20 -20 -20 -20 -20 -20 -20 -20 -20 -20 -20 -20 -20 -20 -20 -20 -20 -20 -20 8 -20 -20 -20 -20 -20 -20 5
-20 -20 -20 -20 -20 -20 -20 -20 -20 -20 -20 -20 -20 -20 -20 -20 -20 -20 -0 6 6 -20 -20 -20 -20 -20 -20 -20 -20 -20 -20 -9 -20 -19 -20 -19 -15 -20 -20 -20 -20 -20 -11

GFSMA_prec_radar_114.txt.gz
Reflectivity
-20 8 11 -20 -20 -19 0 16 7 32 -20 -19 -20 -20 -20 -20 -20 -20 -20 -20 -20 -20 -20 -11 -20 -20 -20 -20 -20 -20 -20 -20 -20 -20 -20 -20 -20 -20 -20 -20 -20 -20 -20
-20 -20 -20 -20 -20 -20 -17 -20 15 -5 -20 -14 7 11 -7 -13 -20 -20 -20 -20 -20 -20 -20 22 3 -20 -20 -19 -3 -8 -17 -20 -20 -20 -20 -20 -20 -20 -20 -20 -20 -20 -20
-10 15 -20 -20 -20 -20 -20 -20 -20 -20 -20 10 -20 -17 25 20 19 25 20 -20 -20 -20 -19 23 -17 6 -7 -20 -19 -3 0 2 -20 -20 -20 -10 -5 -14 -20 -20 -20 -20 -20
-4 -20 12 -20 -20 -20 -20 -20 -20 -20 -20 -20 -20 -20 -20 -20 -20 -20 -19 4 19 0 -20 6 21 -10 15 -20 -20 1 9 -20 -13 -20 -20 -20 -19 -12 -20 -20 -20 -20 -20
-20 4 2 -20 24 26 -2 -20 -20 -20 -20 -20 -20 -20 -20 -20 -20 -20 -20 -20 -20 -20 -20 15 13 -13 26 1 -20 -20 -6 -20 1 -16 -20 -20 -20 -9 5 -20 -20 -20 -20
-1 22 21 29 25 32 23 16 -20 -20 -20 -20 -20 -20 -20 -20 -20 -20 -20 -20 -20 -20 -20 -20 -20 -20 1 16 23 -20 -20 17 -13 -0 -4 -20 -8 -20 -15 -1 -20 -20 -20
-20 -20 21 23 25 22 23 2 13 17 -20 -20 -20 -20 -20 -20 -20 -20 -20 -20 -20 -20 -20 -20 -20 -20 -20 -20 -20 -20 -20 19 -17 -4 13 -19 -20 -20 -20 6 4 -20 -20
-20 -20 11 5 -9 31 23 21 20 -18 -20 -20 -20 -4 -12 -20 -20 -20 -20 -20 -20 -20 -20 -20 -20 -20 -20 -20 -20 -20 -20 -1 3 -14 -20 12 -20 -20 -20 -10 0 -8 -20
-0 -2 27 14 4 34 41 15 9 16 -10 -20 -10 5 -8 -20 -20 -20 -20 -18 -7 -12 -20 -20 -20 -20 -20 -20 -20 -20 -20 -16 3 14 -16 23 11 -20 -20 -20 3 13 -20
12 24 18 27 37 32 37 41 30 33 16 -3 -10 -19 -1 14 12 -1 -20 -20 8 9 2 -20 -20 -20 -20 -20 -20 -20 -20 -20 -20 -20 -20 -10 -12 -20 -20 23 -15 16 10
5 -14 -20 -20 18 26 32 32 38 29 14 -5 -18 -19 -20 -20 -18 18 7 -17 -20 -14 7 -20 -20 -20 -20 -20 -20 -20 -20 -20 -20 -20 -10 21 -13 -20 -12 -20 21 -6 12
-8 32 -4 -20 -20 -20 -18 1 -12 -20 -20 -20 -20 -17 -5 -4 -11 21 18 4 1 -8 -17 -19 -20 -20 -20 -20 -20 -20 0 -9 -11 -4 13 22 23 -12 24 -20 24 -20 26
-14 -20 -20 -2 -10 -14 -20 -20 -20 -20 -20 -17 -10 -11 -12 2 7 14 23 -4 -6 -20 -7 -6 -20 -20 -20 -20 -20 -20 -20 3 -17 6 9 24 7 18 26 3 4 -14 -20
5 4 2 -3 8 -12 -18 -12 -16 -20 -20 -20 -20 -20 -15 2 19 19 7 24 3 -19 4 6 -20 16 -20 -20 -20 -16 -20 11 -8 8 12 17 17 18 21 22 27 29 30
-20 -20 -4 4 11 -6 -6 -18 -20 -20 -20 -20 3 7 -17 -20 -17 3 21 18 23 11 16 15 31 32 38 21 11 -7 22 20 11 22 16 11 9 19 15 20 20 20 28
-20 -20 -20 -20 -20 -20 -20 -13 -20 -20 -20 -15 -20 -20 -18 -1 -2 -20 -7 23 25 35 30 19 24 17 22 -0 23 26 32 29 14 30 22 17 10 21 -15 4 15 21 23
-20 -20 -20 -20 -20 -20 -20 -20 -20 -20 -20 -20 -20 -20 -20 -20 -1 -6 -20 -4 11 22 20 28 30 25 22 1 20 13 14 32 34 29 33 17 22 2 -6 14 9 12 3
-20 -20 -20 -20 -20 -20 -20 -20 -20 -20 -20 -20 -20 -20 -20 -20 -20 -20 -20 -19 11 27 23 18 15 33 32 25 12 23 17 27 23 31 25 34 36 21 15 24 12 17 12
-20 -20 -20 -20 -20 -20 -20 -20 -20 -20 -20 -20 -20 -20 -20 -20 -20 -20 -20 -20 -19 -3 1 17 17 8 22 24 22 30 29 28 25 28 10 28 31 26 20 10 20 26 30
-20 -20 -20 -20 -20 -20 -20 -20 -20 -20 -20 -20 -20 -20 -20 -20 -20 -20 -20 -20 -20 -20 -20 -20 -3 12 8 16 13 9 19 24 24 23 25 28 22 21 21 25 26 18 17
-20 -20 -20 -20 -20 -20 -20 -20 -20 -20 -20 -20 -20 -20 -20 -20 -20 -20 -20 -20 -20 -20 -20 -20 -20 -12 2 -1 4 12 -6 10 24 29 20 19 24 24 23 20 29 25 23
-20 -20 -20 -20 -20 -20 -20 -20 -20 -20 -20 -20 -20 -20 -20 -20 -20 -20 -20 -20 -20 -20 -20 -20 -20 -20 -20 2 -13 -20 1 -17 8 3 7 29 26 22 26 27 29 23 24
-20 -20 -20 -20 -20 -20 -20 -20 -20 -20 -20 -20 -20 -20 -20 -20 -20 -20 -20 -20 -20 -20 -20 -20 -20 -20 -20 -20 -20 -20 -20 -20 -11 -20 -20 -20 16 23 34 29 27 25 24
-20 -20 -20 -20 -20 -20 -20 -20 -20 -20 -20 -20 -20 -20 -20 -20 -20 -20 -20 -20 -20 -20 -20 -20 -20 -20 -20 -20 -20 -20 -20 -20 -20 -20 -20 -8 -9 -9 23 28 22 23 16
-20 -20 -20 -20 -20 -20 -20 -20 -20 -20 -20 -20 -20 -20 -20 -20 -20 -20 -20 -20 -20 -20 -20 -20 -20 -20 -20 -20 -20 -20 -20 -20 -20 -20 -20 -17 -19 -17 -8 24 2 -17 -13
-20 -20 -20 -20 -20 -20 -20 -20 -20 -20 -20 -20 -20 -20 -20 -20 -1 1 7 -20 -20 -20 -20 -20 -20 -20 -20 -20 -20 -20 -20 -20 -7 -20 -18 -20 -20 0 -10 7 16 9 3

GFSMA_prec_radar_117.txt.gz
Reflectivity
5 -2 -14 -20 -20 -1 -20 -11 -6 -20 -20 0 -20 -20 -20 -20 -20 -20 -20 -20 -20 -20 -20 -20 2 4 -18 -20 -20 -20 -20 -20 -20 -20 -20 -20 -20 -20 -20 -20 -20 -20 -20
-17 -13 -4 -19 -18 -20 -20 -1 1 14 10 -20 -20 -20 -20 -20 -20 7 12 4 -20 -20 -20 -20 -20 -20 19 13 -20 -14 2 -5 -14 -2 -2 -9 -20 -20 -20 -20 -20 -20 -20
-20 -20 -20 -4 -20 -20 -20 -20 19 16 22 25 -20 -19 -18 -15 23 -6 22 24 20 -20 -20 -20 19 -20 -17 -15 18 3 -9 7 5 -0 -15 -5 2 0 -2 -20 -20 -20 -20
-20 -20 -20 -20 -20 7 -20 -20 -20 19 -11 29 31 -20 -20 -20 -20 -14 -1 11 11 15 33 11 -13 -17 3 16 -20 13 12 -20 -20 -20 -20 -20 -20 1 -3 -1 -20 -20 -20
-20 -14 -11 -20 -18 3 -8 17 -2 -20 -20 -3 -20 -20 -20 -20 -20 -20 -20 -20 -11 8 4 -9 16 6 3 26 -1 -9 14 -20 -20 -10 -20 -20 -20 -20 -8 -3 -20 -20 -20
-20 -18 -16 -17 -20 12 23 21 20 20 13 -20 -20 -20 -20 -20 -20 -20 -20 -20 -20 -20 -20 -20 -20 -20 -20 -16 -18 19 6 11 2 -14 -20 -20 -10 -20 -20 -15 2 -4 -20
-20 -20 -20 7 -12 32 31 23 24 20 22 17 15 -20 -20 -20 -20 -20 -20 -20 -20 -20 -20 -20 -20 -20 -20 -20 -20 -20 16 19 16 -20 -13 -20 -11 -15 -11 -20 -16 -6 3
-20 -20 -20 -20 11 -6 13 27 10 20 31 20 4 -20 -20 -20 -20 -20 -20 -20 -20 -20 -20 -20 -20 -20 -20 -20 -20 -20 12 -12 18 17 22 -20 -15 -18 20 19 5 -7 9
-20 -4 2 1 -2 17 7 6 35 35 26 36 21 22 -3 -20 -20 -20 -20 -20 -20 -20 -20 -20 -20 -20 -20 -20 -20 -20 -20 -20 15 18 19 21 10 9 -18 17 15 -17 -10
-20 -20 -20 -18 -19 4 23 5 -9 24 28 37 36 37 28 3 -15 -10 -20 -20 -20 -20 -20 -2 2 -20 -20 -20 -20 -20 -20 -20 -20 12 16 -13 -8 20 11 16 7 14 -20
-6 -20 -20 -19 -13 0 24 29 33 25 22 19 11 29 31 27 6 -14 -20 -20 -20 -20 -20 -20 -14 11 -12 -20 -20 -20 -20 -20 -20 -20 4 15 18 21 23 23 23 -20 -20
-1 -18 -4 2 14 -19 -6 -20 -13 8 15 0 -2 9 2 7 -16 -7 -2 -19 -20 -20 -20 -20 -20 -20 -20 -20 -20 -20 -20 -20 -20 -20 -20 15 -7 14 22 19 -5 -10 -19
-17 -16 -20 -20 -20 -20 -20 -20 -20 -20 -20 -10 1 -2 -18 5 -20 -20 6 -20 -20 -20 -20 -20 -19 23 18 22 25 13 -20 -20 -20 -20 -20 -20 -5 1 20 19 24 2 23
-20 -20 -20 -20 -20 -20 -20 -20 -20 -20 -11 1 -20 -20 -20 -20 -20 -16 -20 -6 -20 -20 -20 -20 -16 9 12 24 23 20 16 1 -20 -20 -20 -20 -1 15 19 13 8 34 14
-20 -20 -20 -20 -20 -20 -20 -20 -20 -20 -20 -20 -20 -20 -20 -20 -20 -20 -20 -20 13 -6 -18 -20 -20 11 20 25 18 21 15 30 9 -17 -20 -19 5 14 -7 11 -20 16 26
-20 -20 -20 -20 -20 -20 -20 -20 -20 -20 -20 -20 -20 -20 -20 -20 -20 -20 -20 -13 -19 -2 9 -20 -20 3 27 27 21 16 2 40 13 23 15 13 18 13 -7 27 12 20 4
-20 -20 -20 -20 -20 -20 -20 -20 -20 -20 -20 -20 -20 -20 -20 -20 -20 -20 -20 -20 -20 -20 -1 -20 -20 -20 20 29 31 20 22 30 23 28 16 29 23 36 26 29 -1 34 13
-20 -20 -20 -20 -20 -20 -20 -20 -20 -20 -20 -20 -20 -20 -20 -20 -20 -20 -20 -20 -20 -20 -0 -20 -20 -20 11 14 23 31 28 25 12 31 25 35 20 27 35 25 32 14 7
-20 -20 -20 -20 -20 -20 -20 -20 -20 -20 -20 -20 -20 -20 -20 -20 -20 -20 -20 -20 -20 -20 -20 -20 -20 -20 -20 -2 8 15 12 32 31 33 26 28 24 34 35 36 25 17 4
-20 -20 -20 -20 -20 -20 -20 -20 -20 -20 -20 -20 -20 -20 -20 -20 -20 -20 -20 -20 -20 -20 -20 -20 -20 -20 -20 -20 -10 7 16 13 22 26 26 32 27 34 33 30 25 24 28
-20 -20 -20 -20 -20 -20 -20 -20 -20 -20 -20 -20 -20 -20 -20 -20 -20 -20 -20 -20 -20 -20 -20 -20 -20 -20 -20 -20 -18 -1 -0 12 25 27 21 18 31 29 23 32 31 29 28
-20 -20 -20 -20 -20 -20 -20 -20 -20 -20 -20 -20 -20 -20 -20 -20 -20 -20 -20 -20 -20 -20 -5 2 -20 -20 -20 -20 -20 -20 -20 -20 8 20 23 15 11 25 24 19 25 21 22
-20 -20 -20 -20 -20 -20 -20 -20 -20 -20 -20 -20 -20 -20 -20 -20 -20 -20 -20 -20 -20 -20 -20 -18 -20 -20 -20 -20 -20 -20 -20 -20 -18 4 14 16 13 3 21 24 24 23 26
-20 -20 -20 -20 -20 -20 -20 -20 -20 -20 -20 -20 -20 -20 -20 -20 -20 -20 -20 -20 -20 -20 -20 -20 -20 -20 -20 -20 6 8 -17 -20 -20 -15 2 -7 12 0 5 14 19 28 27
-20 -20 -20 -20 -20 -20 -20 -20 -20 -20 -20 -20 -20 -20 -20 -20 -20 -20 -20 -20 -20 -20 -20 -20 -20 0 1 3 -14 10 -20 -20 -20 -20 -20 -18 -7 5 -10 3 7 18 22
-20 -20 -20 -20 -20 -20 -20 -20 -20 -20 -20 -20 -20 -20 -20 -20 -20 -4 -1 2 -18 -20 -20 -20 -20 -20 -20 -20 -20 -20 -20 -20 -20 -20 -20 -20 -20 -10 -20 -20 -6 -13 6

GFSMA_prec_radar_120.txt.gz
Reflectivity
-20 -20 -20 0 8 -3 -12 -7 4 -18 -4 24 27 26 2 27 -20 -20 -20 -20 -20 -20 -20 -20 -20 -11 11 16 -0 -12 -13 -20 -20 -17 -20 -20 -20 -20 -20 -20 -20 -20 -20
-20 -20 -20 -20 -20 -1 5 -20 -20 21 -20 -2 24 -5 -20 16 -20 -20 -5 -20 -20 -20 -20 -20 -20 -20 -17 -9 2 18 5 -20 -1 -14 -20 -0 -6 -20 -20 -8 -20 -20 -20
-20 -20 -20 -20 -20 -20 -20 -20 -20 -20 -15 -5 7 -19 1 27 26 24 -18 -20 -9 23 15 -4 -18 4 25 24 -20 3 20 -20 -20 -20 -20 -19 -14 -0 -17 16 10 -20 -20
-20 -20 -20 -20 -20 -20 -20 5 -4 -20 -20 -20 -20 22 -1 -20 -20 -20 -20 -20 -20 28 27 31 22 18 3 9 8 19 20 -20 -11 -20 -20 -20 -20 -20 -3 -4 6 -20 -20
-12 -20 -8 -12 -13 -10 -20 -18 0 -2 -20 14 -20 -20 -20 -20 -20 -20 -20 -20 -20 -20 -20 -17 -20 -2 -3 34 26 21 22 19 25 1 22 -20 -20 -20 -20 -20 -14 0 -20
-20 -20 -14 -16 -18 -20 -9 -20 -20 -18 24 -8 9 21 5 -9 -20 -20 -20 -20 -20 -20 -20 -20 -20 -20 -17 -20 -17 -17 -14 20 25 -1 16 -20 -20 -20 -20 -20 -18 -13 10
-20 -20 -10 -20 -20 6 7 -8 -20 8 13 15 32 9 22 17 10 6 -20 -20 -20 -20 -20 -20 -20 -20 -20 -20 -20 -20 -20 -20 6 -20 -9 25 -6 7 -6 -15 -19 -19 -13
-20 -20 -20 -20 6 1 3 -15 -18 -20 -3 4 30 28 17 20 -2 -17 -20 -20 -20 -20 -20 -20 -20 -20 -20 -20 -20 -20 -20 -20 -14 13 13 -10 2 19 -9 13 -13 -6 -4
-20 -20 -20 -20 -19 -5 -4 5 -19 -20 -3 23 11 27 27 15 25 14 -10 -20 -20 -20 -20 -20 -20 -20 -20 -20 -20 -20 -20 -20 -20 -20 12 14 11 -4 1 14 -1 9 -2
-20 -20 -20 -20 -20 -4 -20 -20 -20 3 -14 -20 17 32 34 24 15 13 30 34 23 -20 -20 -20 -20 -20 -20 8 -20 -20 -20 -20 -20 -20 -17 12 13 11 14 20 23 16 -20
-20 -20 -11 -20 -8 -1 14 -0 -15 2 -20 -9 -20 -4 -9 -2 16 -8 -18 11 15 -3 -12 -20 -20 -20 -20 -20 -20 17 13 16 -7 -20 -20 22 -8 16 15 17 21 22 -19
-20 -20 -20 -20 -20 -20 -20 -15 -19 -20 -15 -19 -20 -18 -20 0 -2 -17 -8 -3 4 13 9 -19 -14 -19 -19 -20 13 12 -4 -20 -17 5 1 -8 23 -6 18 19 21 23 8
-20 -20 -20 -20 -20 -20 -20 -20 -20 -20 -20 -17 -19 -20 -20 -20 -20 -20 -4 -20 -20 -19 -14 -15 -11 -14 -10 13 -1 16 11 4 -7 10 -6 13 17 -2 20 19 22 22 24
-20 -20 -20 -20 -20 -20 -20 -20 -20 -20 -20 -20 -20 -20 -20 -20 -20 -16 -20 -20 -20 -20 -20 -15 -11 -19 -20 -19 17 11 8 10 19 15 15 9 10 6 -17 -19 16 22 23
-20 -20 -20 -20 -20 -20 -20 -20 -20 -20 -20 -20 -20 -20 -20 -20 -20 -20 -20 -20 -20 -5 -20 -20 -20 -20 -20 -20 -18 0 -7 15 13 20 17 25 -3 7 -2 -19 -20 4 25
-20 -20 -20 -20 -20 -20 -20 -20 -20 -20 -20 -20 -20 -20 -20 -20 -20 -20 -20 -20 -20 -20 -8 -20 -20 -20 -20 -20 -20 -11 9 24 14 21 19 23 26 14 6 19 8 -4 17
-20 -20 -20 -20 -20 -20 -20 -20 -20 -20 -20 -20 -20 -20 -20 -20 -20 -20 -20 -20 -20 -12 -3 -20 -20 -20 -20 -20 -20 -1 1 16 25 30 37 37 23 34 22 16 4 -20 -10
-20 -20 -20 -20 -20 -20 -20 -20 -20 -20 -20 -20 -20 -20 -20 -20 -20 -20 -20 -20 -20 -20 -10 -20 -20 -20 -20 -20 -20 -20 -0 4 31 30 32 29 14 30 31 28 23 18 16
-20 -20 -20 -20 -20 -20 -20 -20 -20 -20 -20 -20 -20 -20 -20 -20 -20 -20 -20 -20 -20 -20 -20 -20 -20 -20 -20 -20 -20 -20 -20 -20 12 18 25 28 30 33 27 13 22 31 37
-20 -20 -20 -20 -20 -20 -20 -20 -20 -20 -20 -20 -20 -20 -20 -20 -20 -20 -20 -20 -20 -20 -20 -20 -20 -20 -20 -20 -20 -20 -20 -20 -20 -19 5 17 25 36 28 27 32 34 34
-20 -20 -20 -20 -20 -20 -20 -20 -20 -20 -20 -20 -20 -20 -20 -20 -20 -20 -20 -20 -20 -20 -20 -20 -20 -20 -20 -20 -20 -20 -20 -20 -20 -20 -20 -7 7 23 24 37 31 33 34
-20 -20 -20 -20 -20 -20 -20 -20 -20 -20 -20 -20 -20 -20 -20 -20 -20 -20 -20 -20 -20 -20 -20 -8 -14 -20 -20 -20 -20 -20 -20 -20 -20 -20 -20 -20 -4 18 22 18 25 25 34
-20 -20 -20 -20 -20 -20 -20 -20 -20 -20 -20 -20 -20 -20 -20 -20 -20 -20 -20 -20 -20 -20 -20 -19 -20 -20 -20 -20 2 -17 -13 8 -9 -20 -20 -20 -17 1 17 21 30 28 28
-20 -20 -20 -20 -20 -20 -20 -20 -20 -20 -20 -20 -20 -20 -20 -20 -20 -20 -20 -20 -20 -20 -20 -20 -20 -20 -20 -0 8 7 9 -8 -20 -20 -20 -20 -20 -14 -2 16 24 25 22
-20 -20 -20 -20 -20 -20 -20 -20 -20 -20 -20 -20 -20 -20 -20 -20 -20 -16 -11 -20 -20 -20 -20 -20 -20 -7 1 -15 -17 -20 -11 3 -17 -20 -20 -8 -20 -20 -10 7 6 7 12
-20 -20 -20 -20 -20 -20 -20 -20 -20 -20 -20 -20 -20 -20 -20 -20 -3 -2 -16 -20 -20 -20 -20 -18 -20 -20 -20 -20 -20 -20 -20 -20 -20 -20 -20 -20 -20 -20 -20 -20 -17 -16 5